<?xml version="1.0" encoding="UTF-8"?>
<gpx version="1.1" creator="https://www.youtrack.es" xsi:schemaLocation="http://www.topografix.com/GPX/1/1 http://www.topografix.com/GPX/1/1/gpx.xsd http://www.garmin.com/xmlschemas/GpxExtensions/v3 http://www.garmin.com/xmlschemas/GpxExtensionsv3.xsd http://www.garmin.com/xmlschemas/TrackPointExtension/v1 http://www.garmin.com/xmlschemas/TrackPointExtensionv1.xsd" xmlns:gpxtpx="http://www.garmin.com/xmlschemas/TrackPointExtension/v1" xmlns:gpxx="http://www.garmin.com/xmlschemas/GpxExtensions/v3" xmlns:xsi="http://www.w3.org/2001/XMLSchema-instance">
  <metadata>
    <link href="https://www.youtrack.es">
      <text>YouTrack.es</text>
    </link>
    <time>2026-05-08T10:18:59Z</time>
  </metadata>
  <trk>
    <src>https://www.youtrack.es</src>
    <link href="https://www.youtrack.es/ruta/38649-nocedo-trailino-2023">
      <text>YouTrack.es</text>
    </link>
    <trkseg>
      <trkpt lat="42.325256" lon="-8.803956">
        <ele>107.082</ele>
        <time>2022-01-02T00:22:16Z</time>
      </trkpt>
      <trkpt lat="42.325329" lon="-8.804502">
        <ele>105.843</ele>
        <time>1970-01-01T00:00:22Z</time>
      </trkpt>
      <trkpt lat="42.324788" lon="-8.804159">
        <ele>107.417</ele>
        <time>1970-01-01T00:00:48Z</time>
      </trkpt>
      <trkpt lat="42.324495" lon="-8.804222">
        <ele>108.208</ele>
        <time>1970-01-01T00:01:01Z</time>
      </trkpt>
      <trkpt lat="42.323819" lon="-8.805254">
        <ele>95.067</ele>
        <time>1970-01-01T00:01:38Z</time>
      </trkpt>
      <trkpt lat="42.323484" lon="-8.806166">
        <ele>86.099</ele>
        <time>1970-01-01T00:02:04Z</time>
      </trkpt>
      <trkpt lat="42.322937" lon="-8.806791">
        <ele>75.656</ele>
        <time>1970-01-01T00:02:29Z</time>
      </trkpt>
      <trkpt lat="42.322833" lon="-8.80719">
        <ele>72.222</ele>
        <time>1970-01-01T00:02:39Z</time>
      </trkpt>
      <trkpt lat="42.323094" lon="-8.807656">
        <ele>64.828</ele>
        <time>1970-01-01T00:02:55Z</time>
      </trkpt>
      <trkpt lat="42.322961" lon="-8.808555">
        <ele>60.46</ele>
        <time>1970-01-01T00:03:19Z</time>
      </trkpt>
      <trkpt lat="42.321932" lon="-8.810514">
        <ele>57.649</ele>
        <time>1970-01-01T00:04:19Z</time>
      </trkpt>
      <trkpt lat="42.321925" lon="-8.811141">
        <ele>58.656</ele>
        <time>1970-01-01T00:04:35Z</time>
      </trkpt>
      <trkpt lat="42.322227" lon="-8.811941">
        <ele>56.665</ele>
        <time>1970-01-01T00:04:58Z</time>
      </trkpt>
      <trkpt lat="42.32219" lon="-8.812543">
        <ele>55.268</ele>
        <time>1970-01-01T00:05:14Z</time>
      </trkpt>
      <trkpt lat="42.320995" lon="-8.81326">
        <ele>52.614</ele>
        <time>1970-01-01T00:06:01Z</time>
      </trkpt>
      <trkpt lat="42.320241" lon="-8.814853">
        <ele>51.608</ele>
        <time>1970-01-01T00:06:49Z</time>
      </trkpt>
      <trkpt lat="42.32018" lon="-8.815238">
        <ele>50.825</ele>
        <time>1970-01-01T00:07:00Z</time>
      </trkpt>
      <trkpt lat="42.320569" lon="-8.816475">
        <ele>49.817</ele>
        <time>1970-01-01T00:07:33Z</time>
      </trkpt>
      <trkpt lat="42.320146" lon="-8.818866">
        <ele>56.654</ele>
        <time>1970-01-01T00:08:44Z</time>
      </trkpt>
      <trkpt lat="42.320271" lon="-8.820961">
        <ele>45.43</ele>
        <time>1970-01-01T00:09:41Z</time>
      </trkpt>
      <trkpt lat="42.320874" lon="-8.820755">
        <ele>45.246</ele>
        <time>1970-01-01T00:10:55Z</time>
      </trkpt>
      <trkpt lat="42.320999" lon="-8.820523">
        <ele>47.438</ele>
        <time>1970-01-01T00:11:17Z</time>
      </trkpt>
      <trkpt lat="42.321366" lon="-8.820596">
        <ele>49.097</ele>
        <time>1970-01-01T00:12:06Z</time>
      </trkpt>
      <trkpt lat="42.321369" lon="-8.820699">
        <ele>48.854</ele>
        <time>1970-01-01T00:12:47Z</time>
      </trkpt>
      <trkpt lat="42.321292" lon="-8.82059">
        <ele>49.671</ele>
        <time>1970-01-01T00:13:43Z</time>
      </trkpt>
      <trkpt lat="42.321393" lon="-8.820574">
        <ele>49.641</ele>
        <time>1970-01-01T00:14:18Z</time>
      </trkpt>
      <trkpt lat="42.321679" lon="-8.820846">
        <ele>49.015</ele>
        <time>1970-01-01T00:14:36Z</time>
      </trkpt>
      <trkpt lat="42.321959" lon="-8.820687">
        <ele>46.208</ele>
        <time>1970-01-01T00:14:53Z</time>
      </trkpt>
      <trkpt lat="42.322218" lon="-8.820909">
        <ele>41.276</ele>
        <time>1970-01-01T00:15:16Z</time>
      </trkpt>
      <trkpt lat="42.323353" lon="-8.821038">
        <ele>44.818</ele>
        <time>1970-01-01T00:16:13Z</time>
      </trkpt>
      <trkpt lat="42.324392" lon="-8.821605">
        <ele>45.015</ele>
        <time>1970-01-01T00:16:54Z</time>
      </trkpt>
      <trkpt lat="42.325003" lon="-8.822655">
        <ele>39.631</ele>
        <time>1970-01-01T00:17:31Z</time>
      </trkpt>
      <trkpt lat="42.325109" lon="-8.823248">
        <ele>35.827</ele>
        <time>1970-01-01T00:17:46Z</time>
      </trkpt>
      <trkpt lat="42.325084" lon="-8.823779">
        <ele>29.069</ele>
        <time>1970-01-01T00:18:04Z</time>
      </trkpt>
      <trkpt lat="42.324802" lon="-8.824427">
        <ele>12.448</ele>
        <time>1970-01-01T00:18:33Z</time>
      </trkpt>
      <trkpt lat="42.324912" lon="-8.825006">
        <ele>6.445</ele>
        <time>1970-01-01T00:18:50Z</time>
      </trkpt>
      <trkpt lat="42.325881" lon="-8.825354">
        <ele>14.418</ele>
        <time>1970-01-01T00:23:34Z</time>
      </trkpt>
      <trkpt lat="42.326856" lon="-8.824781">
        <ele>21.898</ele>
        <time>1970-01-01T00:24:21Z</time>
      </trkpt>
      <trkpt lat="42.32705" lon="-8.825717">
        <ele>22.217</ele>
        <time>1970-01-01T00:24:50Z</time>
      </trkpt>
      <trkpt lat="42.327792" lon="-8.825964">
        <ele>23.408</ele>
        <time>1970-01-01T00:25:20Z</time>
      </trkpt>
      <trkpt lat="42.32798" lon="-8.826151">
        <ele>22.88</ele>
        <time>1970-01-01T00:25:30Z</time>
      </trkpt>
      <trkpt lat="42.328089" lon="-8.827119">
        <ele>4.222</ele>
        <time>1970-01-01T00:26:01Z</time>
      </trkpt>
      <trkpt lat="42.328546" lon="-8.827975">
        <ele>7.629</ele>
        <time>1970-01-01T00:26:48Z</time>
      </trkpt>
      <trkpt lat="42.329006" lon="-8.826158">
        <ele>9.245</ele>
        <time>1970-01-01T00:27:59Z</time>
      </trkpt>
      <trkpt lat="42.329127" lon="-8.82602">
        <ele>8.871</ele>
        <time>1970-01-01T00:28:06Z</time>
      </trkpt>
      <trkpt lat="42.329384" lon="-8.826097">
        <ele>9.033</ele>
        <time>1970-01-01T00:28:19Z</time>
      </trkpt>
      <trkpt lat="42.329408" lon="-8.825666">
        <ele>9.822</ele>
        <time>1970-01-01T00:28:37Z</time>
      </trkpt>
      <trkpt lat="42.329404" lon="-8.825516">
        <ele>17.236</ele>
        <time>2022-12-02T09:35:43Z</time>
      </trkpt>
      <trkpt lat="42.329051" lon="-8.825031">
        <ele>26.053</ele>
        <time>2022-12-02T09:36:03Z</time>
      </trkpt>
      <trkpt lat="42.329227" lon="-8.824026">
        <ele>31.974</ele>
        <time>2022-12-02T09:36:23Z</time>
      </trkpt>
      <trkpt lat="42.329626" lon="-8.823639">
        <ele>31.063</ele>
        <time>2022-12-02T09:36:43Z</time>
      </trkpt>
      <trkpt lat="42.329859" lon="-8.823038">
        <ele>36.37</ele>
        <time>2022-12-02T09:37:03Z</time>
      </trkpt>
      <trkpt lat="42.329967" lon="-8.822295">
        <ele>47.941</ele>
        <time>2022-12-02T09:37:23Z</time>
      </trkpt>
      <trkpt lat="42.330389" lon="-8.821281">
        <ele>64.766</ele>
        <time>2022-12-02T09:37:43Z</time>
      </trkpt>
      <trkpt lat="42.3308" lon="-8.819591">
        <ele>83.343</ele>
        <time>2022-12-02T09:38:03Z</time>
      </trkpt>
      <trkpt lat="42.330243" lon="-8.819303">
        <ele>90.129</ele>
        <time>2022-12-02T09:38:23Z</time>
      </trkpt>
      <trkpt lat="42.329487" lon="-8.819658">
        <ele>93.6</ele>
        <time>2022-12-02T09:38:43Z</time>
      </trkpt>
      <trkpt lat="42.328832" lon="-8.819495">
        <ele>104.12</ele>
        <time>2022-12-02T09:39:03Z</time>
      </trkpt>
      <trkpt lat="42.328919" lon="-8.818881">
        <ele>112.808</ele>
        <time>2022-12-02T09:39:23Z</time>
      </trkpt>
      <trkpt lat="42.329121" lon="-8.818672">
        <ele>115.041</ele>
        <time>2022-12-02T09:39:43Z</time>
      </trkpt>
      <trkpt lat="42.329197" lon="-8.818298">
        <ele>119.898</ele>
        <time>2022-12-02T09:40:03Z</time>
      </trkpt>
      <trkpt lat="42.328581" lon="-8.818425">
        <ele>119.089</ele>
        <time>2022-12-02T09:40:23Z</time>
      </trkpt>
      <trkpt lat="42.328129" lon="-8.818015">
        <ele>118.158</ele>
        <time>2022-12-02T09:40:43Z</time>
      </trkpt>
      <trkpt lat="42.327521" lon="-8.817979">
        <ele>118.665</ele>
        <time>2022-12-02T09:41:03Z</time>
      </trkpt>
      <trkpt lat="42.326864" lon="-8.817743">
        <ele>121.596</ele>
        <time>2022-12-02T09:41:23Z</time>
      </trkpt>
      <trkpt lat="42.326448" lon="-8.817918">
        <ele>125.631</ele>
        <time>2022-12-02T09:41:43Z</time>
      </trkpt>
      <trkpt lat="42.32655" lon="-8.818164">
        <ele>119.958</ele>
        <time>2022-12-02T09:42:03Z</time>
      </trkpt>
      <trkpt lat="42.326363" lon="-8.818608">
        <ele>115.572</ele>
        <time>2022-12-02T09:42:23Z</time>
      </trkpt>
      <trkpt lat="42.326709" lon="-8.819798">
        <ele>98.213</ele>
        <time>2022-12-02T09:42:43Z</time>
      </trkpt>
      <trkpt lat="42.327437" lon="-8.821024">
        <ele>81.614</ele>
        <time>2022-12-02T09:43:03Z</time>
      </trkpt>
      <trkpt lat="42.326971" lon="-8.821716">
        <ele>72.308</ele>
        <time>2022-12-02T09:43:23Z</time>
      </trkpt>
      <trkpt lat="42.326619" lon="-8.821372">
        <ele>73.246</ele>
        <time>2022-12-02T09:43:43Z</time>
      </trkpt>
      <trkpt lat="42.326324" lon="-8.821716">
        <ele>60.943</ele>
        <time>2022-12-02T09:44:03Z</time>
      </trkpt>
      <trkpt lat="42.326413" lon="-8.82226">
        <ele>54.954</ele>
        <time>2022-12-02T09:44:23Z</time>
      </trkpt>
      <trkpt lat="42.326949" lon="-8.823038">
        <ele>52.443</ele>
        <time>2022-12-02T09:44:43Z</time>
      </trkpt>
      <trkpt lat="42.327207" lon="-8.822982">
        <ele>58.78</ele>
        <time>2022-12-02T09:45:03Z</time>
      </trkpt>
      <trkpt lat="42.327135" lon="-8.823929">
        <ele>41.921</ele>
        <time>2022-12-02T09:45:23Z</time>
      </trkpt>
      <trkpt lat="42.326487" lon="-8.824505">
        <ele>26.116</ele>
        <time>2022-12-02T09:45:43Z</time>
      </trkpt>
      <trkpt lat="42.326185" lon="-8.824551">
        <ele>25.913</ele>
        <time>2022-12-02T09:46:03Z</time>
      </trkpt>
      <trkpt lat="42.325836" lon="-8.825267">
        <ele>13.347</ele>
        <time>2022-12-02T09:46:23Z</time>
      </trkpt>
      <trkpt lat="42.324914" lon="-8.824961">
        <ele>10.129</ele>
        <time>2022-12-02T09:46:43Z</time>
      </trkpt>
      <trkpt lat="42.324819" lon="-8.824291">
        <ele>25.721</ele>
        <time>2022-12-02T09:47:03Z</time>
      </trkpt>
      <trkpt lat="42.325105" lon="-8.823513">
        <ele>41.708</ele>
        <time>2022-12-02T09:47:23Z</time>
      </trkpt>
      <trkpt lat="42.325283" lon="-8.823379">
        <ele>41.423</ele>
        <time>2022-12-02T09:47:43Z</time>
      </trkpt>
      <trkpt lat="42.324466" lon="-8.821464">
        <ele>67.23</ele>
        <time>2022-12-02T09:48:03Z</time>
      </trkpt>
      <trkpt lat="42.324742" lon="-8.821246">
        <ele>70.151</ele>
        <time>2022-12-02T09:48:23Z</time>
      </trkpt>
      <trkpt lat="42.325002" lon="-8.821303">
        <ele>70.95</ele>
        <time>2022-12-02T09:48:43Z</time>
      </trkpt>
      <trkpt lat="42.325121" lon="-8.820806">
        <ele>76.397</ele>
        <time>2022-12-02T09:49:03Z</time>
      </trkpt>
      <trkpt lat="42.325013" lon="-8.819779">
        <ele>96.578</ele>
        <time>2022-12-02T09:49:23Z</time>
      </trkpt>
      <trkpt lat="42.325317" lon="-8.819347">
        <ele>106.853</ele>
        <time>2022-12-02T09:49:43Z</time>
      </trkpt>
      <trkpt lat="42.325215" lon="-8.818727">
        <ele>119.21</ele>
        <time>2022-12-02T09:50:03Z</time>
      </trkpt>
      <trkpt lat="42.325047" lon="-8.818625">
        <ele>120.078</ele>
        <time>2022-12-02T09:50:23Z</time>
      </trkpt>
      <trkpt lat="42.325172" lon="-8.818445">
        <ele>122.033</ele>
        <time>2022-12-02T09:50:43Z</time>
      </trkpt>
      <trkpt lat="42.325051" lon="-8.817569">
        <ele>123.226</ele>
        <time>2022-12-02T09:51:03Z</time>
      </trkpt>
      <trkpt lat="42.324238" lon="-8.818352">
        <ele>102.808</ele>
        <time>2022-12-02T09:51:23Z</time>
      </trkpt>
      <trkpt lat="42.32396" lon="-8.818282">
        <ele>99.346</ele>
        <time>2022-12-02T09:51:43Z</time>
      </trkpt>
      <trkpt lat="42.323669" lon="-8.818679">
        <ele>95.023</ele>
        <time>2022-12-02T09:52:03Z</time>
      </trkpt>
      <trkpt lat="42.323139" lon="-8.819007">
        <ele>77.034</ele>
        <time>2022-12-02T09:52:23Z</time>
      </trkpt>
      <trkpt lat="42.323142" lon="-8.818592">
        <ele>81.063</ele>
        <time>2022-12-02T09:52:43Z</time>
      </trkpt>
      <trkpt lat="42.322521" lon="-8.818046">
        <ele>84.44</ele>
        <time>2022-12-02T09:53:03Z</time>
      </trkpt>
      <trkpt lat="42.32242" lon="-8.817737">
        <ele>90.281</ele>
        <time>2022-12-02T09:53:23Z</time>
      </trkpt>
      <trkpt lat="42.321706" lon="-8.818331">
        <ele>83.816</ele>
        <time>2022-12-02T09:53:43Z</time>
      </trkpt>
      <trkpt lat="42.321047" lon="-8.818124">
        <ele>80.893</ele>
        <time>2022-12-02T09:54:03Z</time>
      </trkpt>
      <trkpt lat="42.320405" lon="-8.818661">
        <ele>64.328</ele>
        <time>2022-12-02T09:54:23Z</time>
      </trkpt>
      <trkpt lat="42.320236" lon="-8.81836">
        <ele>65.189</ele>
        <time>2022-12-02T09:54:43Z</time>
      </trkpt>
      <trkpt lat="42.320228" lon="-8.820557">
        <ele>49.017</ele>
        <time>2022-12-02T09:55:03Z</time>
      </trkpt>
      <trkpt lat="42.320393" lon="-8.821397">
        <ele>42.908</ele>
        <time>2022-12-02T09:55:23Z</time>
      </trkpt>
      <trkpt lat="42.320073" lon="-8.821651">
        <ele>38.771</ele>
        <time>2022-12-02T09:55:43Z</time>
      </trkpt>
      <trkpt lat="42.320179" lon="-8.82199">
        <ele>34.528</ele>
        <time>2022-12-02T09:56:03Z</time>
      </trkpt>
      <trkpt lat="42.320071" lon="-8.822319">
        <ele>29.029</ele>
        <time>2022-12-02T09:56:23Z</time>
      </trkpt>
      <trkpt lat="42.319695" lon="-8.822622">
        <ele>26.058</ele>
        <time>2022-12-02T09:56:43Z</time>
      </trkpt>
      <trkpt lat="42.319042" lon="-8.822708">
        <ele>26.385</ele>
        <time>2022-12-02T09:57:03Z</time>
      </trkpt>
      <trkpt lat="42.318848" lon="-8.823035">
        <ele>16.516</ele>
        <time>2022-12-02T09:57:23Z</time>
      </trkpt>
      <trkpt lat="42.318572" lon="-8.823075">
        <ele>9.591</ele>
        <time>2022-12-02T09:57:43Z</time>
      </trkpt>
      <trkpt lat="42.318649" lon="-8.822857">
        <ele>16.028</ele>
        <time>2022-12-02T09:58:03Z</time>
      </trkpt>
      <trkpt lat="42.318487" lon="-8.8228">
        <ele>16.028</ele>
        <time>2022-12-02T09:58:23Z</time>
      </trkpt>
      <trkpt lat="42.318487" lon="-8.822591">
        <ele>25.089</ele>
        <time>2022-12-02T09:58:43Z</time>
      </trkpt>
      <trkpt lat="42.318226" lon="-8.822611">
        <ele>23.717</ele>
        <time>2022-12-02T09:59:03Z</time>
      </trkpt>
      <trkpt lat="42.317878" lon="-8.822306">
        <ele>33.808</ele>
        <time>2022-12-02T09:59:23Z</time>
      </trkpt>
      <trkpt lat="42.317497" lon="-8.821026">
        <ele>53.721</ele>
        <time>2022-12-02T09:59:43Z</time>
      </trkpt>
      <trkpt lat="42.316859" lon="-8.821193">
        <ele>39.448</ele>
        <time>2022-12-02T10:00:03Z</time>
      </trkpt>
      <trkpt lat="42.316599" lon="-8.820289">
        <ele>33.019</ele>
        <time>2022-12-02T10:00:23Z</time>
      </trkpt>
      <trkpt lat="42.316218" lon="-8.819835">
        <ele>28.718</ele>
        <time>2022-12-02T10:00:43Z</time>
      </trkpt>
      <trkpt lat="42.316266" lon="-8.81953">
        <ele>29.845</ele>
        <time>2022-12-02T10:01:03Z</time>
      </trkpt>
      <trkpt lat="42.315984" lon="-8.819661">
        <ele>24.146</ele>
        <time>2022-12-02T10:01:23Z</time>
      </trkpt>
      <trkpt lat="42.315885" lon="-8.819412">
        <ele>20.431</ele>
        <time>2022-12-02T10:01:43Z</time>
      </trkpt>
      <trkpt lat="42.315202" lon="-8.819119">
        <ele>8.018</ele>
        <time>2022-12-02T10:02:03Z</time>
      </trkpt>
      <trkpt lat="42.315093" lon="-8.819194">
        <ele>8.255</ele>
        <time>2022-12-02T10:02:23Z</time>
      </trkpt>
      <trkpt lat="42.314611" lon="-8.818223">
        <ele>7.207</ele>
        <time>2022-12-02T10:02:43Z</time>
      </trkpt>
      <trkpt lat="42.314068" lon="-8.817958">
        <ele>4.517</ele>
        <time>2022-12-02T10:03:03Z</time>
      </trkpt>
      <trkpt lat="42.313466" lon="-8.81792">
        <ele>3.708</ele>
        <time>2022-12-02T10:03:23Z</time>
      </trkpt>
      <trkpt lat="42.313052" lon="-8.818079">
        <ele>5.714</ele>
        <time>2022-12-02T10:03:43Z</time>
      </trkpt>
      <trkpt lat="42.312761" lon="-8.817344">
        <ele>15.951</ele>
        <time>2022-12-02T10:04:03Z</time>
      </trkpt>
      <trkpt lat="42.311113" lon="-8.816193">
        <ele>29.692</ele>
        <time>2022-12-02T10:04:23Z</time>
      </trkpt>
      <trkpt lat="42.310057" lon="-8.816295">
        <ele>30.041</ele>
        <time>2022-12-02T10:04:43Z</time>
      </trkpt>
      <trkpt lat="42.310022" lon="-8.817312">
        <ele>32.928</ele>
        <time>2022-12-02T10:05:03Z</time>
      </trkpt>
      <trkpt lat="42.30962" lon="-8.817633">
        <ele>23.919</ele>
        <time>2022-12-02T10:05:23Z</time>
      </trkpt>
      <trkpt lat="42.309322" lon="-8.817459">
        <ele>17.124</ele>
        <time>2022-12-02T10:05:43Z</time>
      </trkpt>
      <trkpt lat="42.309273" lon="-8.817588">
        <ele>14.051</ele>
        <time>2022-12-02T10:06:03Z</time>
      </trkpt>
      <trkpt lat="42.30899" lon="-8.817259">
        <ele>10.765</ele>
        <time>2022-12-02T10:06:23Z</time>
      </trkpt>
      <trkpt lat="42.308584" lon="-8.817071">
        <ele>8.968</ele>
        <time>2022-12-02T10:06:43Z</time>
      </trkpt>
      <trkpt lat="42.308293" lon="-8.817108">
        <ele>5.314</ele>
        <time>2022-12-02T10:07:03Z</time>
      </trkpt>
      <trkpt lat="42.30822" lon="-8.816375">
        <ele>15.208</ele>
        <time>2022-12-02T10:07:23Z</time>
      </trkpt>
      <trkpt lat="42.308022" lon="-8.816198">
        <ele>18.355</ele>
        <time>2022-12-02T10:07:43Z</time>
      </trkpt>
      <trkpt lat="42.307888" lon="-8.816291">
        <ele>15.852</ele>
        <time>2022-12-02T10:08:03Z</time>
      </trkpt>
      <trkpt lat="42.308144" lon="-8.815343">
        <ele>27.413</ele>
        <time>2022-12-02T10:08:23Z</time>
      </trkpt>
      <trkpt lat="42.307973" lon="-8.814833">
        <ele>32.582</ele>
        <time>2022-12-02T10:08:43Z</time>
      </trkpt>
      <trkpt lat="42.308111" lon="-8.813618">
        <ele>28.449</ele>
        <time>2022-12-02T10:09:03Z</time>
      </trkpt>
      <trkpt lat="42.307786" lon="-8.813374">
        <ele>31.27</ele>
        <time>2022-12-02T10:09:23Z</time>
      </trkpt>
      <trkpt lat="42.307216" lon="-8.813252">
        <ele>35.595</ele>
        <time>2022-12-02T10:09:43Z</time>
      </trkpt>
      <trkpt lat="42.306814" lon="-8.812292">
        <ele>35.422</ele>
        <time>2022-12-02T10:10:03Z</time>
      </trkpt>
      <trkpt lat="42.306844" lon="-8.811947">
        <ele>36.224</ele>
        <time>2022-12-02T10:10:23Z</time>
      </trkpt>
      <trkpt lat="42.306983" lon="-8.811427">
        <ele>40.004</ele>
        <time>2022-12-02T10:10:43Z</time>
      </trkpt>
      <trkpt lat="42.308201" lon="-8.809581">
        <ele>48.914</ele>
        <time>2022-12-02T10:11:03Z</time>
      </trkpt>
      <trkpt lat="42.308302" lon="-8.808752">
        <ele>55.108</ele>
        <time>2022-12-02T10:11:23Z</time>
      </trkpt>
      <trkpt lat="42.30894" lon="-8.808756">
        <ele>48.681</ele>
        <time>2022-12-02T10:11:43Z</time>
      </trkpt>
      <trkpt lat="42.30968" lon="-8.807898">
        <ele>45.118</ele>
        <time>2022-12-02T10:12:03Z</time>
      </trkpt>
      <trkpt lat="42.309714" lon="-8.807398">
        <ele>47.999</ele>
        <time>2022-12-02T10:12:23Z</time>
      </trkpt>
      <trkpt lat="42.309505" lon="-8.807016">
        <ele>54.068</ele>
        <time>2022-12-02T10:12:43Z</time>
      </trkpt>
      <trkpt lat="42.309326" lon="-8.805872">
        <ele>67.045</ele>
        <time>2022-12-02T10:13:03Z</time>
      </trkpt>
      <trkpt lat="42.309532" lon="-8.805322">
        <ele>71.566</ele>
        <time>2022-12-02T10:13:23Z</time>
      </trkpt>
      <trkpt lat="42.309686" lon="-8.805395">
        <ele>65.591</ele>
        <time>2022-12-02T10:13:43Z</time>
      </trkpt>
      <trkpt lat="42.310027" lon="-8.805065">
        <ele>63.658</ele>
        <time>2022-12-02T10:14:03Z</time>
      </trkpt>
      <trkpt lat="42.310131" lon="-8.804516">
        <ele>67.128</ele>
        <time>2022-12-02T10:14:23Z</time>
      </trkpt>
      <trkpt lat="42.309431" lon="-8.804839">
        <ele>83.689</ele>
        <time>2022-12-02T10:14:43Z</time>
      </trkpt>
      <trkpt lat="42.309165" lon="-8.804721">
        <ele>88.017</ele>
        <time>2022-12-02T10:15:03Z</time>
      </trkpt>
      <trkpt lat="42.308951" lon="-8.804233">
        <ele>92.908</ele>
        <time>2022-12-02T10:15:23Z</time>
      </trkpt>
      <trkpt lat="42.309027" lon="-8.803609">
        <ele>103.031</ele>
        <time>2022-12-02T10:15:43Z</time>
      </trkpt>
      <trkpt lat="42.308776" lon="-8.804099">
        <ele>94.628</ele>
        <time>2022-12-02T10:16:03Z</time>
      </trkpt>
      <trkpt lat="42.307108" lon="-8.805349">
        <ele>107.499</ele>
        <time>2022-12-02T10:16:23Z</time>
      </trkpt>
      <trkpt lat="42.306657" lon="-8.805441">
        <ele>112.448</ele>
        <time>2022-12-02T10:16:43Z</time>
      </trkpt>
      <trkpt lat="42.306519" lon="-8.80477">
        <ele>122.115</ele>
        <time>2022-12-02T10:17:03Z</time>
      </trkpt>
      <trkpt lat="42.30642" lon="-8.804861">
        <ele>123.366</ele>
        <time>2022-12-02T10:17:23Z</time>
      </trkpt>
      <trkpt lat="42.306281" lon="-8.804651">
        <ele>130.251</ele>
        <time>2022-12-02T10:17:43Z</time>
      </trkpt>
      <trkpt lat="42.305943" lon="-8.804941">
        <ele>131.478</ele>
        <time>2022-12-02T10:18:03Z</time>
      </trkpt>
      <trkpt lat="42.305947" lon="-8.804625">
        <ele>138.372</ele>
        <time>2022-12-02T10:18:23Z</time>
      </trkpt>
      <trkpt lat="42.305677" lon="-8.804059">
        <ele>147.313</ele>
        <time>2022-12-02T10:18:43Z</time>
      </trkpt>
      <trkpt lat="42.306281" lon="-8.803203">
        <ele>147.814</ele>
        <time>2022-12-02T10:19:03Z</time>
      </trkpt>
      <trkpt lat="42.306868" lon="-8.802828">
        <ele>140.708</ele>
        <time>2022-12-02T10:19:23Z</time>
      </trkpt>
      <trkpt lat="42.308669" lon="-8.802227">
        <ele>87.8</ele>
        <time>1970-01-01T03:37:27.000Z</time>
      </trkpt>
      <trkpt lat="42.308669" lon="-8.802241">
        <ele>87.6</ele>
        <time>1970-01-01T03:37:28.000Z</time>
      </trkpt>
      <trkpt lat="42.30867" lon="-8.802255">
        <ele>87.6</ele>
        <time>1970-01-01T03:37:29.000Z</time>
      </trkpt>
      <trkpt lat="42.308676" lon="-8.802259">
        <ele>87.4</ele>
        <time>1970-01-01T03:37:30.000Z</time>
      </trkpt>
      <trkpt lat="42.308689" lon="-8.802265">
        <ele>87.4</ele>
        <time>1970-01-01T03:37:31.000Z</time>
      </trkpt>
      <trkpt lat="42.308696" lon="-8.802267">
        <ele>87.4</ele>
        <time>1970-01-01T03:37:32.000Z</time>
      </trkpt>
      <trkpt lat="42.308708" lon="-8.802271">
        <ele>87.4</ele>
        <time>1970-01-01T03:37:33.000Z</time>
      </trkpt>
      <trkpt lat="42.308723" lon="-8.80228">
        <ele>87.2</ele>
        <time>1970-01-01T03:37:34.000Z</time>
      </trkpt>
      <trkpt lat="42.308741" lon="-8.802288">
        <ele>87.2</ele>
        <time>1970-01-01T03:37:35.000Z</time>
      </trkpt>
      <trkpt lat="42.308756" lon="-8.802295">
        <ele>87</ele>
        <time>1970-01-01T03:37:36.000Z</time>
      </trkpt>
      <trkpt lat="42.308773" lon="-8.802294">
        <ele>86.4</ele>
        <time>1970-01-01T03:37:37.000Z</time>
      </trkpt>
      <trkpt lat="42.308794" lon="-8.802292">
        <ele>86.2</ele>
        <time>1970-01-01T03:37:38.000Z</time>
      </trkpt>
      <trkpt lat="42.308815" lon="-8.802291">
        <ele>85.8</ele>
        <time>1970-01-01T03:37:39.000Z</time>
      </trkpt>
      <trkpt lat="42.308834" lon="-8.802294">
        <ele>85.6</ele>
        <time>1970-01-01T03:37:40.000Z</time>
      </trkpt>
      <trkpt lat="42.308848" lon="-8.802291">
        <ele>85.4</ele>
        <time>1970-01-01T03:37:41.000Z</time>
      </trkpt>
      <trkpt lat="42.30886" lon="-8.802285">
        <ele>85.4</ele>
        <time>1970-01-01T03:37:42.000Z</time>
      </trkpt>
      <trkpt lat="42.308873" lon="-8.802278">
        <ele>85.4</ele>
        <time>1970-01-01T03:37:43.000Z</time>
      </trkpt>
      <trkpt lat="42.308891" lon="-8.802274">
        <ele>85.4</ele>
        <time>1970-01-01T03:37:44.000Z</time>
      </trkpt>
      <trkpt lat="42.308909" lon="-8.802269">
        <ele>85.4</ele>
        <time>1970-01-01T03:37:45.000Z</time>
      </trkpt>
      <trkpt lat="42.308929" lon="-8.802261">
        <ele>85.2</ele>
        <time>1970-01-01T03:37:46.000Z</time>
      </trkpt>
      <trkpt lat="42.308949" lon="-8.802254">
        <ele>84.8</ele>
        <time>1970-01-01T03:37:47.000Z</time>
      </trkpt>
      <trkpt lat="42.308963" lon="-8.802246">
        <ele>84.6</ele>
        <time>1970-01-01T03:37:48.000Z</time>
      </trkpt>
      <trkpt lat="42.308977" lon="-8.80224">
        <ele>84.6</ele>
        <time>1970-01-01T03:37:49.000Z</time>
      </trkpt>
      <trkpt lat="42.30899" lon="-8.802232">
        <ele>84.4</ele>
        <time>1970-01-01T03:37:50.000Z</time>
      </trkpt>
      <trkpt lat="42.309001" lon="-8.802221">
        <ele>83.8</ele>
        <time>1970-01-01T03:37:51.000Z</time>
      </trkpt>
      <trkpt lat="42.309012" lon="-8.802209">
        <ele>83.6</ele>
        <time>1970-01-01T03:37:52.000Z</time>
      </trkpt>
      <trkpt lat="42.309021" lon="-8.802197">
        <ele>83.2</ele>
        <time>1970-01-01T03:37:53.000Z</time>
      </trkpt>
      <trkpt lat="42.309028" lon="-8.802182">
        <ele>83</ele>
        <time>1970-01-01T03:37:54.000Z</time>
      </trkpt>
      <trkpt lat="42.309035" lon="-8.802172">
        <ele>83</ele>
        <time>1970-01-01T03:37:55.000Z</time>
      </trkpt>
      <trkpt lat="42.309044" lon="-8.802162">
        <ele>82.8</ele>
        <time>1970-01-01T03:37:56.000Z</time>
      </trkpt>
      <trkpt lat="42.309054" lon="-8.802155">
        <ele>82.6</ele>
        <time>1970-01-01T03:37:57.000Z</time>
      </trkpt>
      <trkpt lat="42.309064" lon="-8.802149">
        <ele>82.6</ele>
        <time>1970-01-01T03:37:58.000Z</time>
      </trkpt>
      <trkpt lat="42.309074" lon="-8.802144">
        <ele>82.6</ele>
        <time>1970-01-01T03:37:59.000Z</time>
      </trkpt>
      <trkpt lat="42.309088" lon="-8.802137">
        <ele>82.6</ele>
        <time>1970-01-01T03:38:00.000Z</time>
      </trkpt>
      <trkpt lat="42.309102" lon="-8.802129">
        <ele>82.6</ele>
        <time>1970-01-01T03:38:01.000Z</time>
      </trkpt>
      <trkpt lat="42.309119" lon="-8.802124">
        <ele>82.4</ele>
        <time>1970-01-01T03:38:02.000Z</time>
      </trkpt>
      <trkpt lat="42.309139" lon="-8.802121">
        <ele>82.2</ele>
        <time>1970-01-01T03:38:03.000Z</time>
      </trkpt>
      <trkpt lat="42.309156" lon="-8.802114">
        <ele>82</ele>
        <time>1970-01-01T03:38:04.000Z</time>
      </trkpt>
      <trkpt lat="42.309176" lon="-8.802102">
        <ele>81.8</ele>
        <time>1970-01-01T03:38:05.000Z</time>
      </trkpt>
      <trkpt lat="42.309191" lon="-8.802094">
        <ele>81.6</ele>
        <time>1970-01-01T03:38:06.000Z</time>
      </trkpt>
      <trkpt lat="42.309203" lon="-8.80208">
        <ele>81.4</ele>
        <time>1970-01-01T03:38:07.000Z</time>
      </trkpt>
      <trkpt lat="42.309216" lon="-8.80207">
        <ele>81</ele>
        <time>1970-01-01T03:38:08.000Z</time>
      </trkpt>
      <trkpt lat="42.309228" lon="-8.802067">
        <ele>80.8</ele>
        <time>1970-01-01T03:38:09.000Z</time>
      </trkpt>
      <trkpt lat="42.309238" lon="-8.802066">
        <ele>80.6</ele>
        <time>1970-01-01T03:38:10.000Z</time>
      </trkpt>
      <trkpt lat="42.30925" lon="-8.802071">
        <ele>80.6</ele>
        <time>1970-01-01T03:38:11.000Z</time>
      </trkpt>
      <trkpt lat="42.309261" lon="-8.802073">
        <ele>80.6</ele>
        <time>1970-01-01T03:38:12.000Z</time>
      </trkpt>
      <trkpt lat="42.309277" lon="-8.802067">
        <ele>80.4</ele>
        <time>1970-01-01T03:38:13.000Z</time>
      </trkpt>
      <trkpt lat="42.309294" lon="-8.802061">
        <ele>80.4</ele>
        <time>1970-01-01T03:38:14.000Z</time>
      </trkpt>
      <trkpt lat="42.309312" lon="-8.802057">
        <ele>80.4</ele>
        <time>1970-01-01T03:38:15.000Z</time>
      </trkpt>
      <trkpt lat="42.309326" lon="-8.802053">
        <ele>80.4</ele>
        <time>1970-01-01T03:38:16.000Z</time>
      </trkpt>
      <trkpt lat="42.309338" lon="-8.802048">
        <ele>80</ele>
        <time>1970-01-01T03:38:17.000Z</time>
      </trkpt>
      <trkpt lat="42.309349" lon="-8.802041">
        <ele>79.8</ele>
        <time>1970-01-01T03:38:18.000Z</time>
      </trkpt>
      <trkpt lat="42.309361" lon="-8.802035">
        <ele>79.6</ele>
        <time>1970-01-01T03:38:19.000Z</time>
      </trkpt>
      <trkpt lat="42.309377" lon="-8.802027">
        <ele>79.6</ele>
        <time>1970-01-01T03:38:20.000Z</time>
      </trkpt>
      <trkpt lat="42.30939" lon="-8.802013">
        <ele>79.2</ele>
        <time>1970-01-01T03:38:21.000Z</time>
      </trkpt>
      <trkpt lat="42.309403" lon="-8.802002">
        <ele>79.2</ele>
        <time>1970-01-01T03:38:22.000Z</time>
      </trkpt>
      <trkpt lat="42.309415" lon="-8.801991">
        <ele>79.2</ele>
        <time>1970-01-01T03:38:23.000Z</time>
      </trkpt>
      <trkpt lat="42.309427" lon="-8.801975">
        <ele>79.2</ele>
        <time>1970-01-01T03:38:24.000Z</time>
      </trkpt>
      <trkpt lat="42.309436" lon="-8.801961">
        <ele>79.2</ele>
        <time>1970-01-01T03:38:25.000Z</time>
      </trkpt>
      <trkpt lat="42.309443" lon="-8.801945">
        <ele>79</ele>
        <time>1970-01-01T03:38:26.000Z</time>
      </trkpt>
      <trkpt lat="42.309451" lon="-8.801932">
        <ele>78.8</ele>
        <time>1970-01-01T03:38:27.000Z</time>
      </trkpt>
      <trkpt lat="42.309459" lon="-8.801915">
        <ele>78.8</ele>
        <time>1970-01-01T03:38:28.000Z</time>
      </trkpt>
      <trkpt lat="42.309464" lon="-8.801898">
        <ele>78.8</ele>
        <time>1970-01-01T03:38:29.000Z</time>
      </trkpt>
      <trkpt lat="42.309469" lon="-8.801886">
        <ele>79</ele>
        <time>1970-01-01T03:38:30.000Z</time>
      </trkpt>
      <trkpt lat="42.309474" lon="-8.801871">
        <ele>79</ele>
        <time>1970-01-01T03:38:31.000Z</time>
      </trkpt>
      <trkpt lat="42.30948" lon="-8.80186">
        <ele>79</ele>
        <time>1970-01-01T03:38:32.000Z</time>
      </trkpt>
      <trkpt lat="42.309487" lon="-8.80185">
        <ele>79</ele>
        <time>1970-01-01T03:38:33.000Z</time>
      </trkpt>
      <trkpt lat="42.309495" lon="-8.80184">
        <ele>79.2</ele>
        <time>1970-01-01T03:38:34.000Z</time>
      </trkpt>
      <trkpt lat="42.309504" lon="-8.801832">
        <ele>79.2</ele>
        <time>1970-01-01T03:38:35.000Z</time>
      </trkpt>
      <trkpt lat="42.309511" lon="-8.801822">
        <ele>79</ele>
        <time>1970-01-01T03:38:36.000Z</time>
      </trkpt>
      <trkpt lat="42.309527" lon="-8.801805">
        <ele>78.8</ele>
        <time>1970-01-01T03:38:37.000Z</time>
      </trkpt>
      <trkpt lat="42.309544" lon="-8.801784">
        <ele>79</ele>
        <time>1970-01-01T03:38:38.000Z</time>
      </trkpt>
      <trkpt lat="42.309554" lon="-8.801766">
        <ele>79</ele>
        <time>1970-01-01T03:38:39.000Z</time>
      </trkpt>
      <trkpt lat="42.309563" lon="-8.801755">
        <ele>79.2</ele>
        <time>1970-01-01T03:38:40.000Z</time>
      </trkpt>
      <trkpt lat="42.309573" lon="-8.801745">
        <ele>79.2</ele>
        <time>1970-01-01T03:38:41.000Z</time>
      </trkpt>
      <trkpt lat="42.309582" lon="-8.801734">
        <ele>79</ele>
        <time>1970-01-01T03:38:42.000Z</time>
      </trkpt>
      <trkpt lat="42.309592" lon="-8.801722">
        <ele>79</ele>
        <time>1970-01-01T03:38:43.000Z</time>
      </trkpt>
      <trkpt lat="42.309604" lon="-8.801713">
        <ele>79</ele>
        <time>1970-01-01T03:38:44.000Z</time>
      </trkpt>
      <trkpt lat="42.30962" lon="-8.801703">
        <ele>79</ele>
        <time>1970-01-01T03:38:45.000Z</time>
      </trkpt>
      <trkpt lat="42.309637" lon="-8.801694">
        <ele>79.2</ele>
        <time>1970-01-01T03:38:46.000Z</time>
      </trkpt>
      <trkpt lat="42.309655" lon="-8.801685">
        <ele>79.2</ele>
        <time>1970-01-01T03:38:47.000Z</time>
      </trkpt>
      <trkpt lat="42.309669" lon="-8.801673">
        <ele>79.4</ele>
        <time>1970-01-01T03:38:48.000Z</time>
      </trkpt>
      <trkpt lat="42.309685" lon="-8.801659">
        <ele>79.8</ele>
        <time>1970-01-01T03:38:49.000Z</time>
      </trkpt>
      <trkpt lat="42.309699" lon="-8.801647">
        <ele>80.2</ele>
        <time>1970-01-01T03:38:50.000Z</time>
      </trkpt>
      <trkpt lat="42.309711" lon="-8.801635">
        <ele>80.2</ele>
        <time>1970-01-01T03:38:51.000Z</time>
      </trkpt>
      <trkpt lat="42.309723" lon="-8.801621">
        <ele>79.8</ele>
        <time>1970-01-01T03:38:52.000Z</time>
      </trkpt>
      <trkpt lat="42.309731" lon="-8.801601">
        <ele>79.6</ele>
        <time>1970-01-01T03:38:53.000Z</time>
      </trkpt>
      <trkpt lat="42.30974" lon="-8.801588">
        <ele>79.8</ele>
        <time>1970-01-01T03:38:54.000Z</time>
      </trkpt>
      <trkpt lat="42.309751" lon="-8.801576">
        <ele>79.4</ele>
        <time>1970-01-01T03:38:55.000Z</time>
      </trkpt>
      <trkpt lat="42.309761" lon="-8.801566">
        <ele>79.2</ele>
        <time>1970-01-01T03:38:56.000Z</time>
      </trkpt>
      <trkpt lat="42.30977" lon="-8.801559">
        <ele>79</ele>
        <time>1970-01-01T03:38:57.000Z</time>
      </trkpt>
      <trkpt lat="42.309779" lon="-8.801544">
        <ele>79</ele>
        <time>1970-01-01T03:38:58.000Z</time>
      </trkpt>
      <trkpt lat="42.309788" lon="-8.801526">
        <ele>79.2</ele>
        <time>1970-01-01T03:38:59.000Z</time>
      </trkpt>
      <trkpt lat="42.309797" lon="-8.801511">
        <ele>79.2</ele>
        <time>1970-01-01T03:39:00.000Z</time>
      </trkpt>
      <trkpt lat="42.309806" lon="-8.801494">
        <ele>79.2</ele>
        <time>1970-01-01T03:39:01.000Z</time>
      </trkpt>
      <trkpt lat="42.309817" lon="-8.801481">
        <ele>79.4</ele>
        <time>1970-01-01T03:39:02.000Z</time>
      </trkpt>
      <trkpt lat="42.309827" lon="-8.801466">
        <ele>79.4</ele>
        <time>1970-01-01T03:39:03.000Z</time>
      </trkpt>
      <trkpt lat="42.309836" lon="-8.801453">
        <ele>79.4</ele>
        <time>1970-01-01T03:39:04.000Z</time>
      </trkpt>
      <trkpt lat="42.309846" lon="-8.801442">
        <ele>79.4</ele>
        <time>1970-01-01T03:39:05.000Z</time>
      </trkpt>
      <trkpt lat="42.309855" lon="-8.801431">
        <ele>79.2</ele>
        <time>1970-01-01T03:39:06.000Z</time>
      </trkpt>
      <trkpt lat="42.309864" lon="-8.801421">
        <ele>79.2</ele>
        <time>1970-01-01T03:39:07.000Z</time>
      </trkpt>
      <trkpt lat="42.309874" lon="-8.801414">
        <ele>79</ele>
        <time>1970-01-01T03:39:08.000Z</time>
      </trkpt>
      <trkpt lat="42.309888" lon="-8.80141">
        <ele>78.8</ele>
        <time>1970-01-01T03:39:09.000Z</time>
      </trkpt>
      <trkpt lat="42.309905" lon="-8.801404">
        <ele>78.6</ele>
        <time>1970-01-01T03:39:10.000Z</time>
      </trkpt>
      <trkpt lat="42.309916" lon="-8.801397">
        <ele>78.6</ele>
        <time>1970-01-01T03:39:11.000Z</time>
      </trkpt>
      <trkpt lat="42.309927" lon="-8.80139">
        <ele>78.4</ele>
        <time>1970-01-01T03:39:12.000Z</time>
      </trkpt>
      <trkpt lat="42.309937" lon="-8.801382">
        <ele>78.4</ele>
        <time>1970-01-01T03:39:13.000Z</time>
      </trkpt>
      <trkpt lat="42.309949" lon="-8.801376">
        <ele>78.4</ele>
        <time>1970-01-01T03:39:14.000Z</time>
      </trkpt>
      <trkpt lat="42.30996" lon="-8.801369">
        <ele>78.4</ele>
        <time>1970-01-01T03:39:15.000Z</time>
      </trkpt>
      <trkpt lat="42.309972" lon="-8.801362">
        <ele>78.4</ele>
        <time>1970-01-01T03:39:16.000Z</time>
      </trkpt>
      <trkpt lat="42.309985" lon="-8.801352">
        <ele>78.4</ele>
        <time>1970-01-01T03:39:17.000Z</time>
      </trkpt>
      <trkpt lat="42.309997" lon="-8.801344">
        <ele>78.4</ele>
        <time>1970-01-01T03:39:18.000Z</time>
      </trkpt>
      <trkpt lat="42.310007" lon="-8.801336">
        <ele>78.4</ele>
        <time>1970-01-01T03:39:19.000Z</time>
      </trkpt>
      <trkpt lat="42.310018" lon="-8.801326">
        <ele>78.4</ele>
        <time>1970-01-01T03:39:20.000Z</time>
      </trkpt>
      <trkpt lat="42.310028" lon="-8.80131">
        <ele>78.4</ele>
        <time>1970-01-01T03:39:21.000Z</time>
      </trkpt>
      <trkpt lat="42.310039" lon="-8.801292">
        <ele>78.4</ele>
        <time>1970-01-01T03:39:22.000Z</time>
      </trkpt>
      <trkpt lat="42.31005" lon="-8.801275">
        <ele>78.4</ele>
        <time>1970-01-01T03:39:23.000Z</time>
      </trkpt>
      <trkpt lat="42.310059" lon="-8.801261">
        <ele>78.4</ele>
        <time>1970-01-01T03:39:24.000Z</time>
      </trkpt>
      <trkpt lat="42.310067" lon="-8.801244">
        <ele>78.4</ele>
        <time>1970-01-01T03:39:25.000Z</time>
      </trkpt>
      <trkpt lat="42.310075" lon="-8.80123">
        <ele>78.4</ele>
        <time>1970-01-01T03:39:26.000Z</time>
      </trkpt>
      <trkpt lat="42.310084" lon="-8.801219">
        <ele>78.4</ele>
        <time>1970-01-01T03:39:27.000Z</time>
      </trkpt>
      <trkpt lat="42.310093" lon="-8.801211">
        <ele>78.4</ele>
        <time>1970-01-01T03:39:28.000Z</time>
      </trkpt>
      <trkpt lat="42.310103" lon="-8.801204">
        <ele>78.6</ele>
        <time>1970-01-01T03:39:29.000Z</time>
      </trkpt>
      <trkpt lat="42.310114" lon="-8.801197">
        <ele>78.8</ele>
        <time>1970-01-01T03:39:30.000Z</time>
      </trkpt>
      <trkpt lat="42.310123" lon="-8.801188">
        <ele>79</ele>
        <time>1970-01-01T03:39:31.000Z</time>
      </trkpt>
      <trkpt lat="42.310134" lon="-8.801178">
        <ele>79</ele>
        <time>1970-01-01T03:39:32.000Z</time>
      </trkpt>
      <trkpt lat="42.310145" lon="-8.801168">
        <ele>79</ele>
        <time>1970-01-01T03:39:33.000Z</time>
      </trkpt>
      <trkpt lat="42.310154" lon="-8.801165">
        <ele>79</ele>
        <time>1970-01-01T03:39:34.000Z</time>
      </trkpt>
      <trkpt lat="42.310167" lon="-8.801159">
        <ele>78.8</ele>
        <time>1970-01-01T03:39:35.000Z</time>
      </trkpt>
      <trkpt lat="42.310178" lon="-8.801152">
        <ele>78.8</ele>
        <time>1970-01-01T03:39:36.000Z</time>
      </trkpt>
      <trkpt lat="42.310195" lon="-8.801142">
        <ele>78.8</ele>
        <time>1970-01-01T03:39:37.000Z</time>
      </trkpt>
      <trkpt lat="42.310212" lon="-8.801134">
        <ele>79</ele>
        <time>1970-01-01T03:39:38.000Z</time>
      </trkpt>
      <trkpt lat="42.31023" lon="-8.801129">
        <ele>79.4</ele>
        <time>1970-01-01T03:39:39.000Z</time>
      </trkpt>
      <trkpt lat="42.310245" lon="-8.801128">
        <ele>79.6</ele>
        <time>1970-01-01T03:39:40.000Z</time>
      </trkpt>
      <trkpt lat="42.31026" lon="-8.801123">
        <ele>79.6</ele>
        <time>1970-01-01T03:39:41.000Z</time>
      </trkpt>
      <trkpt lat="42.310272" lon="-8.801112">
        <ele>79.6</ele>
        <time>1970-01-01T03:39:42.000Z</time>
      </trkpt>
      <trkpt lat="42.31029" lon="-8.801104">
        <ele>79</ele>
        <time>1970-01-01T03:39:43.000Z</time>
      </trkpt>
      <trkpt lat="42.310306" lon="-8.801099">
        <ele>78.8</ele>
        <time>1970-01-01T03:39:44.000Z</time>
      </trkpt>
      <trkpt lat="42.310324" lon="-8.801097">
        <ele>78.6</ele>
        <time>1970-01-01T03:39:45.000Z</time>
      </trkpt>
      <trkpt lat="42.310339" lon="-8.801098">
        <ele>78.4</ele>
        <time>1970-01-01T03:39:46.000Z</time>
      </trkpt>
      <trkpt lat="42.310352" lon="-8.801096">
        <ele>78.4</ele>
        <time>1970-01-01T03:39:47.000Z</time>
      </trkpt>
      <trkpt lat="42.310363" lon="-8.801095">
        <ele>78.4</ele>
        <time>1970-01-01T03:39:48.000Z</time>
      </trkpt>
      <trkpt lat="42.310374" lon="-8.801097">
        <ele>78.6</ele>
        <time>1970-01-01T03:39:49.000Z</time>
      </trkpt>
      <trkpt lat="42.310384" lon="-8.801099">
        <ele>78.6</ele>
        <time>1970-01-01T03:39:50.000Z</time>
      </trkpt>
      <trkpt lat="42.310393" lon="-8.801103">
        <ele>78.6</ele>
        <time>1970-01-01T03:39:51.000Z</time>
      </trkpt>
      <trkpt lat="42.310401" lon="-8.801107">
        <ele>78.6</ele>
        <time>1970-01-01T03:39:52.000Z</time>
      </trkpt>
      <trkpt lat="42.310409" lon="-8.801116">
        <ele>78.6</ele>
        <time>1970-01-01T03:39:53.000Z</time>
      </trkpt>
      <trkpt lat="42.310417" lon="-8.80113">
        <ele>78.6</ele>
        <time>1970-01-01T03:39:54.000Z</time>
      </trkpt>
      <trkpt lat="42.310425" lon="-8.801145">
        <ele>78.4</ele>
        <time>1970-01-01T03:39:55.000Z</time>
      </trkpt>
      <trkpt lat="42.310433" lon="-8.801161">
        <ele>78.6</ele>
        <time>1970-01-01T03:39:56.000Z</time>
      </trkpt>
      <trkpt lat="42.310442" lon="-8.801174">
        <ele>78.6</ele>
        <time>1970-01-01T03:39:57.000Z</time>
      </trkpt>
      <trkpt lat="42.310449" lon="-8.80119">
        <ele>78.6</ele>
        <time>1970-01-01T03:39:58.000Z</time>
      </trkpt>
      <trkpt lat="42.310453" lon="-8.801203">
        <ele>78.8</ele>
        <time>1970-01-01T03:39:59.000Z</time>
      </trkpt>
      <trkpt lat="42.310455" lon="-8.801217">
        <ele>78.8</ele>
        <time>1970-01-01T03:40:00.000Z</time>
      </trkpt>
      <trkpt lat="42.310454" lon="-8.801232">
        <ele>78.8</ele>
        <time>1970-01-01T03:40:01.000Z</time>
      </trkpt>
      <trkpt lat="42.310455" lon="-8.801242">
        <ele>79</ele>
        <time>1970-01-01T03:40:02.000Z</time>
      </trkpt>
      <trkpt lat="42.310453" lon="-8.801249">
        <ele>79</ele>
        <time>1970-01-01T03:40:03.000Z</time>
      </trkpt>
      <trkpt lat="42.31045" lon="-8.801254">
        <ele>79</ele>
        <time>1970-01-01T03:40:04.000Z</time>
      </trkpt>
      <trkpt lat="42.310446" lon="-8.801263">
        <ele>79</ele>
        <time>1970-01-01T03:40:05.000Z</time>
      </trkpt>
      <trkpt lat="42.31044" lon="-8.80127">
        <ele>79</ele>
        <time>1970-01-01T03:40:06.000Z</time>
      </trkpt>
      <trkpt lat="42.310433" lon="-8.801273">
        <ele>79</ele>
        <time>1970-01-01T03:40:07.000Z</time>
      </trkpt>
      <trkpt lat="42.310427" lon="-8.801273">
        <ele>79</ele>
        <time>1970-01-01T03:40:08.000Z</time>
      </trkpt>
      <trkpt lat="42.310422" lon="-8.801275">
        <ele>78.8</ele>
        <time>1970-01-01T03:40:09.000Z</time>
      </trkpt>
      <trkpt lat="42.310419" lon="-8.801277">
        <ele>78.6</ele>
        <time>1970-01-01T03:40:10.000Z</time>
      </trkpt>
      <trkpt lat="42.310415" lon="-8.801282">
        <ele>78.6</ele>
        <time>1970-01-01T03:40:11.000Z</time>
      </trkpt>
      <trkpt lat="42.310413" lon="-8.801286">
        <ele>78.6</ele>
        <time>1970-01-01T03:40:12.000Z</time>
      </trkpt>
      <trkpt lat="42.310412" lon="-8.801287">
        <ele>78.6</ele>
        <time>1970-01-01T03:40:13.000Z</time>
      </trkpt>
      <trkpt lat="42.310407" lon="-8.801291">
        <ele>78.6</ele>
        <time>1970-01-01T03:40:14.000Z</time>
      </trkpt>
      <trkpt lat="42.310403" lon="-8.801296">
        <ele>78.6</ele>
        <time>1970-01-01T03:40:15.000Z</time>
      </trkpt>
      <trkpt lat="42.310398" lon="-8.801298">
        <ele>78.6</ele>
        <time>1970-01-01T03:40:16.000Z</time>
      </trkpt>
      <trkpt lat="42.310393" lon="-8.801299">
        <ele>78.4</ele>
        <time>1970-01-01T03:40:17.000Z</time>
      </trkpt>
      <trkpt lat="42.310391" lon="-8.8013">
        <ele>78.2</ele>
        <time>1970-01-01T03:40:18.000Z</time>
      </trkpt>
      <trkpt lat="42.310391" lon="-8.801299">
        <ele>78.2</ele>
        <time>1970-01-01T03:40:19.000Z</time>
      </trkpt>
      <trkpt lat="42.31039" lon="-8.801296">
        <ele>77.8</ele>
        <time>1970-01-01T03:40:20.000Z</time>
      </trkpt>
      <trkpt lat="42.310388" lon="-8.801294">
        <ele>77.4</ele>
        <time>1970-01-01T03:40:21.000Z</time>
      </trkpt>
      <trkpt lat="42.310388" lon="-8.80129">
        <ele>77.4</ele>
        <time>1970-01-01T03:40:22.000Z</time>
      </trkpt>
      <trkpt lat="42.310389" lon="-8.801284">
        <ele>77.2</ele>
        <time>1970-01-01T03:40:23.000Z</time>
      </trkpt>
      <trkpt lat="42.310391" lon="-8.80127">
        <ele>76.8</ele>
        <time>1970-01-01T03:40:24.000Z</time>
      </trkpt>
      <trkpt lat="42.310391" lon="-8.801262">
        <ele>76.4</ele>
        <time>1970-01-01T03:40:25.000Z</time>
      </trkpt>
      <trkpt lat="42.31039" lon="-8.801256">
        <ele>75.8</ele>
        <time>1970-01-01T03:40:26.000Z</time>
      </trkpt>
      <trkpt lat="42.310389" lon="-8.80125">
        <ele>75.2</ele>
        <time>1970-01-01T03:40:27.000Z</time>
      </trkpt>
      <trkpt lat="42.310378" lon="-8.801244">
        <ele>75</ele>
        <time>1970-01-01T03:40:28.000Z</time>
      </trkpt>
      <trkpt lat="42.310364" lon="-8.801234">
        <ele>74.4</ele>
        <time>1970-01-01T03:40:29.000Z</time>
      </trkpt>
      <trkpt lat="42.310346" lon="-8.801232">
        <ele>74.2</ele>
        <time>1970-01-01T03:40:30.000Z</time>
      </trkpt>
      <trkpt lat="42.310333" lon="-8.801239">
        <ele>73.8</ele>
        <time>1970-01-01T03:40:31.000Z</time>
      </trkpt>
      <trkpt lat="42.31032" lon="-8.801245">
        <ele>73.6</ele>
        <time>1970-01-01T03:40:32.000Z</time>
      </trkpt>
      <trkpt lat="42.310305" lon="-8.801255">
        <ele>73.6</ele>
        <time>1970-01-01T03:40:33.000Z</time>
      </trkpt>
      <trkpt lat="42.310294" lon="-8.801265">
        <ele>73.4</ele>
        <time>1970-01-01T03:40:34.000Z</time>
      </trkpt>
      <trkpt lat="42.310285" lon="-8.801275">
        <ele>73.2</ele>
        <time>1970-01-01T03:40:35.000Z</time>
      </trkpt>
      <trkpt lat="42.310277" lon="-8.80128">
        <ele>72.8</ele>
        <time>1970-01-01T03:40:36.000Z</time>
      </trkpt>
      <trkpt lat="42.310271" lon="-8.801285">
        <ele>72.8</ele>
        <time>1970-01-01T03:40:37.000Z</time>
      </trkpt>
      <trkpt lat="42.310265" lon="-8.801289">
        <ele>72.6</ele>
        <time>1970-01-01T03:40:38.000Z</time>
      </trkpt>
      <trkpt lat="42.310261" lon="-8.801293">
        <ele>72.6</ele>
        <time>1970-01-01T03:40:39.000Z</time>
      </trkpt>
      <trkpt lat="42.310254" lon="-8.801298">
        <ele>72.4</ele>
        <time>1970-01-01T03:40:40.000Z</time>
      </trkpt>
      <trkpt lat="42.310247" lon="-8.801301">
        <ele>72.2</ele>
        <time>1970-01-01T03:40:41.000Z</time>
      </trkpt>
      <trkpt lat="42.310244" lon="-8.801306">
        <ele>72</ele>
        <time>1970-01-01T03:40:42.000Z</time>
      </trkpt>
      <trkpt lat="42.31024" lon="-8.801313">
        <ele>72</ele>
        <time>1970-01-01T03:40:43.000Z</time>
      </trkpt>
      <trkpt lat="42.310235" lon="-8.801326">
        <ele>71.8</ele>
        <time>1970-01-01T03:40:44.000Z</time>
      </trkpt>
      <trkpt lat="42.31023" lon="-8.801344">
        <ele>71.8</ele>
        <time>1970-01-01T03:40:45.000Z</time>
      </trkpt>
      <trkpt lat="42.310226" lon="-8.801362">
        <ele>71.2</ele>
        <time>1970-01-01T03:40:46.000Z</time>
      </trkpt>
      <trkpt lat="42.310224" lon="-8.801374">
        <ele>70.8</ele>
        <time>1970-01-01T03:40:47.000Z</time>
      </trkpt>
      <trkpt lat="42.310222" lon="-8.801388">
        <ele>70.4</ele>
        <time>1970-01-01T03:40:48.000Z</time>
      </trkpt>
      <trkpt lat="42.310222" lon="-8.801401">
        <ele>70.2</ele>
        <time>1970-01-01T03:40:49.000Z</time>
      </trkpt>
      <trkpt lat="42.310223" lon="-8.801407">
        <ele>70.2</ele>
        <time>1970-01-01T03:40:50.000Z</time>
      </trkpt>
      <trkpt lat="42.310223" lon="-8.801413">
        <ele>70</ele>
        <time>1970-01-01T03:40:51.000Z</time>
      </trkpt>
      <trkpt lat="42.310225" lon="-8.801415">
        <ele>69.8</ele>
        <time>1970-01-01T03:40:52.000Z</time>
      </trkpt>
      <trkpt lat="42.310225" lon="-8.801419">
        <ele>69.8</ele>
        <time>1970-01-01T03:40:53.000Z</time>
      </trkpt>
      <trkpt lat="42.310226" lon="-8.801425">
        <ele>69.6</ele>
        <time>1970-01-01T03:40:54.000Z</time>
      </trkpt>
      <trkpt lat="42.310227" lon="-8.801432">
        <ele>69.6</ele>
        <time>1970-01-01T03:40:55.000Z</time>
      </trkpt>
      <trkpt lat="42.310231" lon="-8.80144">
        <ele>69.6</ele>
        <time>1970-01-01T03:40:56.000Z</time>
      </trkpt>
      <trkpt lat="42.310233" lon="-8.801447">
        <ele>69.6</ele>
        <time>1970-01-01T03:40:57.000Z</time>
      </trkpt>
      <trkpt lat="42.310232" lon="-8.801454">
        <ele>69.6</ele>
        <time>1970-01-01T03:40:58.000Z</time>
      </trkpt>
      <trkpt lat="42.310232" lon="-8.801463">
        <ele>69.6</ele>
        <time>1970-01-01T03:40:59.000Z</time>
      </trkpt>
      <trkpt lat="42.31023" lon="-8.801467">
        <ele>69.6</ele>
        <time>1970-01-01T03:41:00.000Z</time>
      </trkpt>
      <trkpt lat="42.310226" lon="-8.801472">
        <ele>69.6</ele>
        <time>1970-01-01T03:41:01.000Z</time>
      </trkpt>
      <trkpt lat="42.310221" lon="-8.801477">
        <ele>69.8</ele>
        <time>1970-01-01T03:41:02.000Z</time>
      </trkpt>
      <trkpt lat="42.310219" lon="-8.801479">
        <ele>69.6</ele>
        <time>1970-01-01T03:41:03.000Z</time>
      </trkpt>
      <trkpt lat="42.310217" lon="-8.801479">
        <ele>69.6</ele>
        <time>1970-01-01T03:41:04.000Z</time>
      </trkpt>
      <trkpt lat="42.310215" lon="-8.801481">
        <ele>69.6</ele>
        <time>1970-01-01T03:41:05.000Z</time>
      </trkpt>
      <trkpt lat="42.310213" lon="-8.80148">
        <ele>69.2</ele>
        <time>1970-01-01T03:41:06.000Z</time>
      </trkpt>
      <trkpt lat="42.310212" lon="-8.80148">
        <ele>69.2</ele>
        <time>1970-01-01T03:41:07.000Z</time>
      </trkpt>
      <trkpt lat="42.310211" lon="-8.80148">
        <ele>69</ele>
        <time>1970-01-01T03:41:08.000Z</time>
      </trkpt>
      <trkpt lat="42.310208" lon="-8.801479">
        <ele>69</ele>
        <time>1970-01-01T03:41:09.000Z</time>
      </trkpt>
      <trkpt lat="42.310205" lon="-8.801481">
        <ele>69</ele>
        <time>1970-01-01T03:41:10.000Z</time>
      </trkpt>
      <trkpt lat="42.310199" lon="-8.80148">
        <ele>69.2</ele>
        <time>1970-01-01T03:41:11.000Z</time>
      </trkpt>
      <trkpt lat="42.310185" lon="-8.80148">
        <ele>69.2</ele>
        <time>1970-01-01T03:41:12.000Z</time>
      </trkpt>
      <trkpt lat="42.310172" lon="-8.801479">
        <ele>69.2</ele>
        <time>1970-01-01T03:41:13.000Z</time>
      </trkpt>
      <trkpt lat="42.310163" lon="-8.801478">
        <ele>69.2</ele>
        <time>1970-01-01T03:41:14.000Z</time>
      </trkpt>
      <trkpt lat="42.310157" lon="-8.801474">
        <ele>69</ele>
        <time>1970-01-01T03:41:15.000Z</time>
      </trkpt>
      <trkpt lat="42.310154" lon="-8.801476">
        <ele>69</ele>
        <time>1970-01-01T03:41:16.000Z</time>
      </trkpt>
      <trkpt lat="42.310153" lon="-8.801479">
        <ele>69</ele>
        <time>1970-01-01T03:41:17.000Z</time>
      </trkpt>
      <trkpt lat="42.310146" lon="-8.801479">
        <ele>69</ele>
        <time>1970-01-01T03:41:18.000Z</time>
      </trkpt>
      <trkpt lat="42.310137" lon="-8.801477">
        <ele>69</ele>
        <time>1970-01-01T03:41:19.000Z</time>
      </trkpt>
      <trkpt lat="42.310124" lon="-8.80147">
        <ele>69.2</ele>
        <time>1970-01-01T03:41:20.000Z</time>
      </trkpt>
      <trkpt lat="42.310109" lon="-8.801462">
        <ele>69.4</ele>
        <time>1970-01-01T03:41:21.000Z</time>
      </trkpt>
      <trkpt lat="42.310094" lon="-8.801463">
        <ele>69.4</ele>
        <time>1970-01-01T03:41:22.000Z</time>
      </trkpt>
      <trkpt lat="42.310086" lon="-8.80146">
        <ele>69.6</ele>
        <time>1970-01-01T03:41:23.000Z</time>
      </trkpt>
      <trkpt lat="42.31008" lon="-8.801461">
        <ele>69.6</ele>
        <time>1970-01-01T03:41:24.000Z</time>
      </trkpt>
      <trkpt lat="42.310075" lon="-8.801458">
        <ele>69.6</ele>
        <time>1970-01-01T03:41:25.000Z</time>
      </trkpt>
      <trkpt lat="42.310067" lon="-8.80146">
        <ele>69.6</ele>
        <time>1970-01-01T03:41:26.000Z</time>
      </trkpt>
      <trkpt lat="42.310063" lon="-8.80146">
        <ele>69.8</ele>
        <time>1970-01-01T03:41:27.000Z</time>
      </trkpt>
      <trkpt lat="42.310061" lon="-8.801458">
        <ele>69.6</ele>
        <time>1970-01-01T03:41:28.000Z</time>
      </trkpt>
      <trkpt lat="42.310062" lon="-8.801452">
        <ele>69.6</ele>
        <time>1970-01-01T03:41:29.000Z</time>
      </trkpt>
      <trkpt lat="42.310063" lon="-8.80145">
        <ele>69.6</ele>
        <time>1970-01-01T03:41:30.000Z</time>
      </trkpt>
      <trkpt lat="42.310063" lon="-8.801448">
        <ele>69.6</ele>
        <time>1970-01-01T03:41:31.000Z</time>
      </trkpt>
      <trkpt lat="42.310064" lon="-8.801445">
        <ele>69.6</ele>
        <time>1970-01-01T03:41:32.000Z</time>
      </trkpt>
      <trkpt lat="42.310065" lon="-8.80144">
        <ele>69.6</ele>
        <time>1970-01-01T03:41:33.000Z</time>
      </trkpt>
      <trkpt lat="42.310066" lon="-8.801436">
        <ele>69.4</ele>
        <time>1970-01-01T03:41:34.000Z</time>
      </trkpt>
      <trkpt lat="42.310068" lon="-8.801431">
        <ele>69.2</ele>
        <time>1970-01-01T03:41:35.000Z</time>
      </trkpt>
      <trkpt lat="42.310068" lon="-8.801422">
        <ele>69.2</ele>
        <time>1970-01-01T03:41:36.000Z</time>
      </trkpt>
      <trkpt lat="42.310067" lon="-8.801414">
        <ele>69.2</ele>
        <time>1970-01-01T03:41:37.000Z</time>
      </trkpt>
      <trkpt lat="42.310071" lon="-8.801409">
        <ele>69.2</ele>
        <time>1970-01-01T03:41:38.000Z</time>
      </trkpt>
      <trkpt lat="42.310074" lon="-8.80141">
        <ele>69.2</ele>
        <time>1970-01-01T03:41:39.000Z</time>
      </trkpt>
      <trkpt lat="42.310077" lon="-8.801416">
        <ele>69.4</ele>
        <time>1970-01-01T03:41:40.000Z</time>
      </trkpt>
      <trkpt lat="42.310081" lon="-8.801427">
        <ele>69.6</ele>
        <time>1970-01-01T03:41:41.000Z</time>
      </trkpt>
      <trkpt lat="42.310091" lon="-8.801446">
        <ele>69.6</ele>
        <time>1970-01-01T03:41:42.000Z</time>
      </trkpt>
      <trkpt lat="42.310099" lon="-8.80146">
        <ele>69.6</ele>
        <time>1970-01-01T03:41:43.000Z</time>
      </trkpt>
      <trkpt lat="42.310109" lon="-8.801468">
        <ele>69.6</ele>
        <time>1970-01-01T03:41:44.000Z</time>
      </trkpt>
      <trkpt lat="42.310118" lon="-8.801477">
        <ele>69.4</ele>
        <time>1970-01-01T03:41:45.000Z</time>
      </trkpt>
      <trkpt lat="42.310128" lon="-8.801493">
        <ele>69.4</ele>
        <time>1970-01-01T03:41:46.000Z</time>
      </trkpt>
      <trkpt lat="42.310135" lon="-8.801507">
        <ele>69.2</ele>
        <time>1970-01-01T03:41:47.000Z</time>
      </trkpt>
      <trkpt lat="42.310141" lon="-8.80152">
        <ele>69</ele>
        <time>1970-01-01T03:41:48.000Z</time>
      </trkpt>
      <trkpt lat="42.310146" lon="-8.801534">
        <ele>69</ele>
        <time>1970-01-01T03:41:49.000Z</time>
      </trkpt>
      <trkpt lat="42.31015" lon="-8.801545">
        <ele>69</ele>
        <time>1970-01-01T03:41:50.000Z</time>
      </trkpt>
      <trkpt lat="42.310153" lon="-8.801557">
        <ele>69</ele>
        <time>1970-01-01T03:41:51.000Z</time>
      </trkpt>
      <trkpt lat="42.310156" lon="-8.801569">
        <ele>69</ele>
        <time>1970-01-01T03:41:52.000Z</time>
      </trkpt>
      <trkpt lat="42.310156" lon="-8.801583">
        <ele>68.8</ele>
        <time>1970-01-01T03:41:53.000Z</time>
      </trkpt>
      <trkpt lat="42.310158" lon="-8.801596">
        <ele>68.4</ele>
        <time>1970-01-01T03:41:54.000Z</time>
      </trkpt>
      <trkpt lat="42.310163" lon="-8.801609">
        <ele>68.2</ele>
        <time>1970-01-01T03:41:55.000Z</time>
      </trkpt>
      <trkpt lat="42.310164" lon="-8.801628">
        <ele>68.2</ele>
        <time>1970-01-01T03:41:56.000Z</time>
      </trkpt>
      <trkpt lat="42.310162" lon="-8.801641">
        <ele>68.4</ele>
        <time>1970-01-01T03:41:57.000Z</time>
      </trkpt>
      <trkpt lat="42.31016" lon="-8.801656">
        <ele>68.2</ele>
        <time>1970-01-01T03:41:58.000Z</time>
      </trkpt>
      <trkpt lat="42.310156" lon="-8.801669">
        <ele>68.2</ele>
        <time>1970-01-01T03:41:59.000Z</time>
      </trkpt>
      <trkpt lat="42.31015" lon="-8.801681">
        <ele>68.2</ele>
        <time>1970-01-01T03:42:00.000Z</time>
      </trkpt>
      <trkpt lat="42.310143" lon="-8.801696">
        <ele>68.2</ele>
        <time>1970-01-01T03:42:01.000Z</time>
      </trkpt>
      <trkpt lat="42.310138" lon="-8.801718">
        <ele>68.2</ele>
        <time>1970-01-01T03:42:02.000Z</time>
      </trkpt>
      <trkpt lat="42.310135" lon="-8.801728">
        <ele>68</ele>
        <time>1970-01-01T03:42:03.000Z</time>
      </trkpt>
      <trkpt lat="42.310135" lon="-8.801741">
        <ele>67.8</ele>
        <time>1970-01-01T03:42:04.000Z</time>
      </trkpt>
      <trkpt lat="42.310133" lon="-8.801757">
        <ele>67.6</ele>
        <time>1970-01-01T03:42:05.000Z</time>
      </trkpt>
      <trkpt lat="42.310136" lon="-8.801776">
        <ele>67.2</ele>
        <time>1970-01-01T03:42:06.000Z</time>
      </trkpt>
      <trkpt lat="42.310138" lon="-8.80179">
        <ele>66.8</ele>
        <time>1970-01-01T03:42:07.000Z</time>
      </trkpt>
      <trkpt lat="42.310141" lon="-8.801803">
        <ele>66.6</ele>
        <time>1970-01-01T03:42:08.000Z</time>
      </trkpt>
      <trkpt lat="42.310144" lon="-8.801812">
        <ele>66.2</ele>
        <time>1970-01-01T03:42:09.000Z</time>
      </trkpt>
      <trkpt lat="42.310146" lon="-8.80182">
        <ele>66.2</ele>
        <time>1970-01-01T03:42:10.000Z</time>
      </trkpt>
      <trkpt lat="42.310145" lon="-8.801831">
        <ele>66.2</ele>
        <time>1970-01-01T03:42:11.000Z</time>
      </trkpt>
      <trkpt lat="42.310143" lon="-8.801851">
        <ele>66.2</ele>
        <time>1970-01-01T03:42:12.000Z</time>
      </trkpt>
      <trkpt lat="42.310139" lon="-8.801859">
        <ele>66.2</ele>
        <time>1970-01-01T03:42:13.000Z</time>
      </trkpt>
      <trkpt lat="42.310133" lon="-8.801871">
        <ele>66.2</ele>
        <time>1970-01-01T03:42:14.000Z</time>
      </trkpt>
      <trkpt lat="42.310127" lon="-8.801884">
        <ele>66.2</ele>
        <time>1970-01-01T03:42:15.000Z</time>
      </trkpt>
      <trkpt lat="42.310122" lon="-8.801898">
        <ele>66.2</ele>
        <time>1970-01-01T03:42:16.000Z</time>
      </trkpt>
      <trkpt lat="42.310116" lon="-8.801914">
        <ele>66</ele>
        <time>1970-01-01T03:42:17.000Z</time>
      </trkpt>
      <trkpt lat="42.310114" lon="-8.801931">
        <ele>65.6</ele>
        <time>1970-01-01T03:42:18.000Z</time>
      </trkpt>
      <trkpt lat="42.31011" lon="-8.801951">
        <ele>65.2</ele>
        <time>1970-01-01T03:42:19.000Z</time>
      </trkpt>
      <trkpt lat="42.310107" lon="-8.801967">
        <ele>64.8</ele>
        <time>1970-01-01T03:42:20.000Z</time>
      </trkpt>
      <trkpt lat="42.310107" lon="-8.80198">
        <ele>64</ele>
        <time>1970-01-01T03:42:21.000Z</time>
      </trkpt>
      <trkpt lat="42.310106" lon="-8.801996">
        <ele>63.4</ele>
        <time>1970-01-01T03:42:22.000Z</time>
      </trkpt>
      <trkpt lat="42.310104" lon="-8.80201">
        <ele>63.2</ele>
        <time>1970-01-01T03:42:23.000Z</time>
      </trkpt>
      <trkpt lat="42.3101" lon="-8.802026">
        <ele>62.8</ele>
        <time>1970-01-01T03:42:24.000Z</time>
      </trkpt>
      <trkpt lat="42.310097" lon="-8.802041">
        <ele>62.8</ele>
        <time>1970-01-01T03:42:25.000Z</time>
      </trkpt>
      <trkpt lat="42.310092" lon="-8.802063">
        <ele>62.6</ele>
        <time>1970-01-01T03:42:26.000Z</time>
      </trkpt>
      <trkpt lat="42.310089" lon="-8.802079">
        <ele>62.6</ele>
        <time>1970-01-01T03:42:27.000Z</time>
      </trkpt>
      <trkpt lat="42.310084" lon="-8.802096">
        <ele>62.2</ele>
        <time>1970-01-01T03:42:28.000Z</time>
      </trkpt>
      <trkpt lat="42.310078" lon="-8.802114">
        <ele>62</ele>
        <time>1970-01-01T03:42:29.000Z</time>
      </trkpt>
      <trkpt lat="42.310073" lon="-8.80213">
        <ele>61.6</ele>
        <time>1970-01-01T03:42:30.000Z</time>
      </trkpt>
      <trkpt lat="42.310068" lon="-8.802141">
        <ele>61.4</ele>
        <time>1970-01-01T03:42:31.000Z</time>
      </trkpt>
      <trkpt lat="42.310062" lon="-8.802149">
        <ele>61.4</ele>
        <time>1970-01-01T03:42:32.000Z</time>
      </trkpt>
      <trkpt lat="42.310055" lon="-8.802159">
        <ele>60.4</ele>
        <time>1970-01-01T03:42:33.000Z</time>
      </trkpt>
      <trkpt lat="42.310048" lon="-8.802169">
        <ele>59.8</ele>
        <time>1970-01-01T03:42:34.000Z</time>
      </trkpt>
      <trkpt lat="42.31004" lon="-8.802182">
        <ele>59.2</ele>
        <time>1970-01-01T03:42:35.000Z</time>
      </trkpt>
      <trkpt lat="42.310033" lon="-8.802195">
        <ele>58.8</ele>
        <time>1970-01-01T03:42:36.000Z</time>
      </trkpt>
      <trkpt lat="42.310027" lon="-8.802209">
        <ele>58.6</ele>
        <time>1970-01-01T03:42:37.000Z</time>
      </trkpt>
      <trkpt lat="42.310023" lon="-8.802223">
        <ele>58.4</ele>
        <time>1970-01-01T03:42:38.000Z</time>
      </trkpt>
      <trkpt lat="42.31002" lon="-8.80224">
        <ele>58.2</ele>
        <time>1970-01-01T03:42:39.000Z</time>
      </trkpt>
      <trkpt lat="42.310012" lon="-8.80226">
        <ele>58.2</ele>
        <time>1970-01-01T03:42:40.000Z</time>
      </trkpt>
      <trkpt lat="42.310003" lon="-8.802275">
        <ele>58.2</ele>
        <time>1970-01-01T03:42:41.000Z</time>
      </trkpt>
      <trkpt lat="42.309993" lon="-8.802286">
        <ele>58.2</ele>
        <time>1970-01-01T03:42:42.000Z</time>
      </trkpt>
      <trkpt lat="42.309988" lon="-8.802295">
        <ele>58.2</ele>
        <time>1970-01-01T03:42:43.000Z</time>
      </trkpt>
      <trkpt lat="42.309982" lon="-8.802306">
        <ele>58.2</ele>
        <time>1970-01-01T03:42:44.000Z</time>
      </trkpt>
      <trkpt lat="42.309976" lon="-8.802319">
        <ele>58.2</ele>
        <time>1970-01-01T03:42:45.000Z</time>
      </trkpt>
      <trkpt lat="42.30997" lon="-8.802338">
        <ele>57.6</ele>
        <time>1970-01-01T03:42:46.000Z</time>
      </trkpt>
      <trkpt lat="42.309966" lon="-8.802354">
        <ele>57.2</ele>
        <time>1970-01-01T03:42:47.000Z</time>
      </trkpt>
      <trkpt lat="42.309961" lon="-8.802367">
        <ele>56.8</ele>
        <time>1970-01-01T03:42:48.000Z</time>
      </trkpt>
      <trkpt lat="42.309953" lon="-8.802385">
        <ele>56.4</ele>
        <time>1970-01-01T03:42:49.000Z</time>
      </trkpt>
      <trkpt lat="42.309944" lon="-8.802401">
        <ele>56</ele>
        <time>1970-01-01T03:42:50.000Z</time>
      </trkpt>
      <trkpt lat="42.30994" lon="-8.802411">
        <ele>55.8</ele>
        <time>1970-01-01T03:42:51.000Z</time>
      </trkpt>
      <trkpt lat="42.309936" lon="-8.802422">
        <ele>55.4</ele>
        <time>1970-01-01T03:42:52.000Z</time>
      </trkpt>
      <trkpt lat="42.30993" lon="-8.802433">
        <ele>55.2</ele>
        <time>1970-01-01T03:42:53.000Z</time>
      </trkpt>
      <trkpt lat="42.309921" lon="-8.802448">
        <ele>55.2</ele>
        <time>1970-01-01T03:42:54.000Z</time>
      </trkpt>
      <trkpt lat="42.309915" lon="-8.802458">
        <ele>55.2</ele>
        <time>1970-01-01T03:42:55.000Z</time>
      </trkpt>
      <trkpt lat="42.309908" lon="-8.802468">
        <ele>55</ele>
        <time>1970-01-01T03:42:56.000Z</time>
      </trkpt>
      <trkpt lat="42.309901" lon="-8.802482">
        <ele>55</ele>
        <time>1970-01-01T03:42:57.000Z</time>
      </trkpt>
      <trkpt lat="42.309896" lon="-8.802495">
        <ele>55</ele>
        <time>1970-01-01T03:42:58.000Z</time>
      </trkpt>
      <trkpt lat="42.309891" lon="-8.80251">
        <ele>54.6</ele>
        <time>1970-01-01T03:42:59.000Z</time>
      </trkpt>
      <trkpt lat="42.309886" lon="-8.802523">
        <ele>54.4</ele>
        <time>1970-01-01T03:43:00.000Z</time>
      </trkpt>
      <trkpt lat="42.309879" lon="-8.802535">
        <ele>54.2</ele>
        <time>1970-01-01T03:43:01.000Z</time>
      </trkpt>
      <trkpt lat="42.30987" lon="-8.802552">
        <ele>54.2</ele>
        <time>1970-01-01T03:43:02.000Z</time>
      </trkpt>
      <trkpt lat="42.309859" lon="-8.802572">
        <ele>54.2</ele>
        <time>1970-01-01T03:43:03.000Z</time>
      </trkpt>
      <trkpt lat="42.309852" lon="-8.802597">
        <ele>54.2</ele>
        <time>1970-01-01T03:43:04.000Z</time>
      </trkpt>
      <trkpt lat="42.309849" lon="-8.802618">
        <ele>54</ele>
        <time>1970-01-01T03:43:05.000Z</time>
      </trkpt>
      <trkpt lat="42.309849" lon="-8.80264">
        <ele>54</ele>
        <time>1970-01-01T03:43:06.000Z</time>
      </trkpt>
      <trkpt lat="42.309848" lon="-8.80266">
        <ele>53.8</ele>
        <time>1970-01-01T03:43:07.000Z</time>
      </trkpt>
      <trkpt lat="42.309846" lon="-8.802679">
        <ele>53.6</ele>
        <time>1970-01-01T03:43:08.000Z</time>
      </trkpt>
      <trkpt lat="42.309847" lon="-8.802698">
        <ele>53.4</ele>
        <time>1970-01-01T03:43:09.000Z</time>
      </trkpt>
      <trkpt lat="42.309846" lon="-8.802718">
        <ele>53.2</ele>
        <time>1970-01-01T03:43:10.000Z</time>
      </trkpt>
      <trkpt lat="42.309841" lon="-8.802733">
        <ele>53.2</ele>
        <time>1970-01-01T03:43:11.000Z</time>
      </trkpt>
      <trkpt lat="42.309836" lon="-8.802743">
        <ele>53.2</ele>
        <time>1970-01-01T03:43:12.000Z</time>
      </trkpt>
      <trkpt lat="42.309828" lon="-8.802755">
        <ele>53.2</ele>
        <time>1970-01-01T03:43:13.000Z</time>
      </trkpt>
      <trkpt lat="42.309815" lon="-8.802765">
        <ele>53.2</ele>
        <time>1970-01-01T03:43:14.000Z</time>
      </trkpt>
      <trkpt lat="42.309801" lon="-8.802775">
        <ele>53</ele>
        <time>1970-01-01T03:43:15.000Z</time>
      </trkpt>
      <trkpt lat="42.309788" lon="-8.802787">
        <ele>52.8</ele>
        <time>1970-01-01T03:43:16.000Z</time>
      </trkpt>
      <trkpt lat="42.309773" lon="-8.8028">
        <ele>52.4</ele>
        <time>1970-01-01T03:43:17.000Z</time>
      </trkpt>
      <trkpt lat="42.30976" lon="-8.802814">
        <ele>52.2</ele>
        <time>1970-01-01T03:43:18.000Z</time>
      </trkpt>
      <trkpt lat="42.309748" lon="-8.802827">
        <ele>51.6</ele>
        <time>1970-01-01T03:43:19.000Z</time>
      </trkpt>
      <trkpt lat="42.30974" lon="-8.802839">
        <ele>51.4</ele>
        <time>1970-01-01T03:43:20.000Z</time>
      </trkpt>
      <trkpt lat="42.309735" lon="-8.802849">
        <ele>51.2</ele>
        <time>1970-01-01T03:43:21.000Z</time>
      </trkpt>
      <trkpt lat="42.309731" lon="-8.802857">
        <ele>51</ele>
        <time>1970-01-01T03:43:22.000Z</time>
      </trkpt>
      <trkpt lat="42.309724" lon="-8.802865">
        <ele>50.8</ele>
        <time>1970-01-01T03:43:23.000Z</time>
      </trkpt>
      <trkpt lat="42.309716" lon="-8.802874">
        <ele>50.6</ele>
        <time>1970-01-01T03:43:24.000Z</time>
      </trkpt>
      <trkpt lat="42.30971" lon="-8.802882">
        <ele>50.6</ele>
        <time>1970-01-01T03:43:25.000Z</time>
      </trkpt>
      <trkpt lat="42.309702" lon="-8.802889">
        <ele>50.4</ele>
        <time>1970-01-01T03:43:26.000Z</time>
      </trkpt>
      <trkpt lat="42.309695" lon="-8.802896">
        <ele>50.4</ele>
        <time>1970-01-01T03:43:27.000Z</time>
      </trkpt>
      <trkpt lat="42.309688" lon="-8.802902">
        <ele>50</ele>
        <time>1970-01-01T03:43:28.000Z</time>
      </trkpt>
      <trkpt lat="42.309679" lon="-8.802906">
        <ele>49.6</ele>
        <time>1970-01-01T03:43:29.000Z</time>
      </trkpt>
      <trkpt lat="42.309671" lon="-8.802909">
        <ele>49.4</ele>
        <time>1970-01-01T03:43:30.000Z</time>
      </trkpt>
      <trkpt lat="42.309661" lon="-8.802917">
        <ele>49</ele>
        <time>1970-01-01T03:43:31.000Z</time>
      </trkpt>
      <trkpt lat="42.309647" lon="-8.80293">
        <ele>49</ele>
        <time>1970-01-01T03:43:32.000Z</time>
      </trkpt>
      <trkpt lat="42.309635" lon="-8.802943">
        <ele>48.8</ele>
        <time>1970-01-01T03:43:33.000Z</time>
      </trkpt>
      <trkpt lat="42.309625" lon="-8.802956">
        <ele>48.6</ele>
        <time>1970-01-01T03:43:34.000Z</time>
      </trkpt>
      <trkpt lat="42.309617" lon="-8.802967">
        <ele>48.4</ele>
        <time>1970-01-01T03:43:35.000Z</time>
      </trkpt>
      <trkpt lat="42.309608" lon="-8.802976">
        <ele>48.4</ele>
        <time>1970-01-01T03:43:36.000Z</time>
      </trkpt>
      <trkpt lat="42.309598" lon="-8.802986">
        <ele>48.4</ele>
        <time>1970-01-01T03:43:37.000Z</time>
      </trkpt>
      <trkpt lat="42.309584" lon="-8.803002">
        <ele>48.4</ele>
        <time>1970-01-01T03:43:38.000Z</time>
      </trkpt>
      <trkpt lat="42.309573" lon="-8.803019">
        <ele>48.4</ele>
        <time>1970-01-01T03:43:39.000Z</time>
      </trkpt>
      <trkpt lat="42.309565" lon="-8.803043">
        <ele>48.4</ele>
        <time>1970-01-01T03:43:40.000Z</time>
      </trkpt>
      <trkpt lat="42.309562" lon="-8.803061">
        <ele>48</ele>
        <time>1970-01-01T03:43:41.000Z</time>
      </trkpt>
      <trkpt lat="42.309565" lon="-8.803077">
        <ele>47.4</ele>
        <time>1970-01-01T03:43:42.000Z</time>
      </trkpt>
      <trkpt lat="42.309568" lon="-8.803093">
        <ele>47</ele>
        <time>1970-01-01T03:43:43.000Z</time>
      </trkpt>
      <trkpt lat="42.309573" lon="-8.80311">
        <ele>46.8</ele>
        <time>1970-01-01T03:43:44.000Z</time>
      </trkpt>
      <trkpt lat="42.309579" lon="-8.803128">
        <ele>46.4</ele>
        <time>1970-01-01T03:43:45.000Z</time>
      </trkpt>
      <trkpt lat="42.309584" lon="-8.803144">
        <ele>46.2</ele>
        <time>1970-01-01T03:43:46.000Z</time>
      </trkpt>
      <trkpt lat="42.309589" lon="-8.803168">
        <ele>46</ele>
        <time>1970-01-01T03:43:47.000Z</time>
      </trkpt>
      <trkpt lat="42.309592" lon="-8.803185">
        <ele>46</ele>
        <time>1970-01-01T03:43:48.000Z</time>
      </trkpt>
      <trkpt lat="42.309593" lon="-8.803204">
        <ele>45.8</ele>
        <time>1970-01-01T03:43:49.000Z</time>
      </trkpt>
      <trkpt lat="42.309592" lon="-8.803214">
        <ele>45.8</ele>
        <time>1970-01-01T03:43:50.000Z</time>
      </trkpt>
      <trkpt lat="42.30959" lon="-8.803225">
        <ele>45.8</ele>
        <time>1970-01-01T03:43:51.000Z</time>
      </trkpt>
      <trkpt lat="42.309586" lon="-8.803255">
        <ele>45.6</ele>
        <time>1970-01-01T03:43:52.000Z</time>
      </trkpt>
      <trkpt lat="42.309585" lon="-8.80327">
        <ele>45.6</ele>
        <time>1970-01-01T03:43:53.000Z</time>
      </trkpt>
      <trkpt lat="42.309583" lon="-8.803279">
        <ele>45.6</ele>
        <time>1970-01-01T03:43:54.000Z</time>
      </trkpt>
      <trkpt lat="42.30958" lon="-8.803289">
        <ele>45.6</ele>
        <time>1970-01-01T03:43:55.000Z</time>
      </trkpt>
      <trkpt lat="42.309576" lon="-8.803298">
        <ele>45.6</ele>
        <time>1970-01-01T03:43:56.000Z</time>
      </trkpt>
      <trkpt lat="42.309576" lon="-8.803307">
        <ele>45.4</ele>
        <time>1970-01-01T03:43:57.000Z</time>
      </trkpt>
      <trkpt lat="42.309576" lon="-8.80332">
        <ele>45.4</ele>
        <time>1970-01-01T03:43:58.000Z</time>
      </trkpt>
      <trkpt lat="42.309577" lon="-8.803334">
        <ele>45.6</ele>
        <time>1970-01-01T03:43:59.000Z</time>
      </trkpt>
      <trkpt lat="42.309579" lon="-8.803347">
        <ele>45.6</ele>
        <time>1970-01-01T03:44:00.000Z</time>
      </trkpt>
      <trkpt lat="42.309583" lon="-8.803364">
        <ele>45.4</ele>
        <time>1970-01-01T03:44:01.000Z</time>
      </trkpt>
      <trkpt lat="42.309585" lon="-8.803377">
        <ele>45.4</ele>
        <time>1970-01-01T03:44:02.000Z</time>
      </trkpt>
      <trkpt lat="42.30959" lon="-8.80339">
        <ele>45.4</ele>
        <time>1970-01-01T03:44:03.000Z</time>
      </trkpt>
      <trkpt lat="42.309595" lon="-8.803402">
        <ele>45.4</ele>
        <time>1970-01-01T03:44:04.000Z</time>
      </trkpt>
      <trkpt lat="42.309599" lon="-8.803416">
        <ele>45.4</ele>
        <time>1970-01-01T03:44:05.000Z</time>
      </trkpt>
      <trkpt lat="42.309604" lon="-8.80343">
        <ele>45.4</ele>
        <time>1970-01-01T03:44:06.000Z</time>
      </trkpt>
      <trkpt lat="42.309607" lon="-8.803443">
        <ele>45.4</ele>
        <time>1970-01-01T03:44:07.000Z</time>
      </trkpt>
      <trkpt lat="42.309612" lon="-8.80345">
        <ele>45.4</ele>
        <time>1970-01-01T03:44:08.000Z</time>
      </trkpt>
      <trkpt lat="42.309617" lon="-8.803458">
        <ele>45.2</ele>
        <time>1970-01-01T03:44:09.000Z</time>
      </trkpt>
      <trkpt lat="42.309621" lon="-8.803468">
        <ele>45.2</ele>
        <time>1970-01-01T03:44:10.000Z</time>
      </trkpt>
      <trkpt lat="42.309628" lon="-8.803478">
        <ele>45.2</ele>
        <time>1970-01-01T03:44:11.000Z</time>
      </trkpt>
      <trkpt lat="42.309635" lon="-8.803486">
        <ele>45.2</ele>
        <time>1970-01-01T03:44:12.000Z</time>
      </trkpt>
      <trkpt lat="42.309642" lon="-8.803493">
        <ele>45.2</ele>
        <time>1970-01-01T03:44:13.000Z</time>
      </trkpt>
      <trkpt lat="42.309649" lon="-8.803501">
        <ele>45.4</ele>
        <time>1970-01-01T03:44:14.000Z</time>
      </trkpt>
      <trkpt lat="42.309659" lon="-8.803513">
        <ele>45.4</ele>
        <time>1970-01-01T03:44:15.000Z</time>
      </trkpt>
      <trkpt lat="42.309669" lon="-8.803528">
        <ele>45.6</ele>
        <time>1970-01-01T03:44:16.000Z</time>
      </trkpt>
      <trkpt lat="42.309676" lon="-8.803542">
        <ele>45.4</ele>
        <time>1970-01-01T03:44:17.000Z</time>
      </trkpt>
      <trkpt lat="42.309686" lon="-8.803556">
        <ele>45.4</ele>
        <time>1970-01-01T03:44:18.000Z</time>
      </trkpt>
      <trkpt lat="42.309694" lon="-8.803568">
        <ele>45.4</ele>
        <time>1970-01-01T03:44:19.000Z</time>
      </trkpt>
      <trkpt lat="42.309705" lon="-8.803582">
        <ele>45.4</ele>
        <time>1970-01-01T03:44:20.000Z</time>
      </trkpt>
      <trkpt lat="42.309718" lon="-8.803595">
        <ele>45.2</ele>
        <time>1970-01-01T03:44:21.000Z</time>
      </trkpt>
      <trkpt lat="42.309728" lon="-8.803605">
        <ele>45.2</ele>
        <time>1970-01-01T03:44:22.000Z</time>
      </trkpt>
      <trkpt lat="42.309741" lon="-8.803617">
        <ele>45.2</ele>
        <time>1970-01-01T03:44:23.000Z</time>
      </trkpt>
      <trkpt lat="42.309754" lon="-8.803629">
        <ele>45.2</ele>
        <time>1970-01-01T03:44:24.000Z</time>
      </trkpt>
      <trkpt lat="42.309764" lon="-8.803638">
        <ele>45.2</ele>
        <time>1970-01-01T03:44:25.000Z</time>
      </trkpt>
      <trkpt lat="42.309774" lon="-8.803647">
        <ele>45.2</ele>
        <time>1970-01-01T03:44:26.000Z</time>
      </trkpt>
      <trkpt lat="42.30978" lon="-8.803649">
        <ele>45.2</ele>
        <time>1970-01-01T03:44:27.000Z</time>
      </trkpt>
      <trkpt lat="42.309786" lon="-8.803655">
        <ele>45.2</ele>
        <time>1970-01-01T03:44:28.000Z</time>
      </trkpt>
      <trkpt lat="42.309794" lon="-8.803663">
        <ele>44.8</ele>
        <time>1970-01-01T03:44:29.000Z</time>
      </trkpt>
      <trkpt lat="42.3098" lon="-8.803671">
        <ele>44.6</ele>
        <time>1970-01-01T03:44:30.000Z</time>
      </trkpt>
      <trkpt lat="42.309803" lon="-8.803676">
        <ele>44.4</ele>
        <time>1970-01-01T03:44:31.000Z</time>
      </trkpt>
      <trkpt lat="42.309808" lon="-8.803682">
        <ele>44.4</ele>
        <time>1970-01-01T03:44:32.000Z</time>
      </trkpt>
      <trkpt lat="42.309813" lon="-8.803684">
        <ele>44</ele>
        <time>1970-01-01T03:44:33.000Z</time>
      </trkpt>
      <trkpt lat="42.30982" lon="-8.803689">
        <ele>43.6</ele>
        <time>1970-01-01T03:44:34.000Z</time>
      </trkpt>
      <trkpt lat="42.309827" lon="-8.803691">
        <ele>43.4</ele>
        <time>1970-01-01T03:44:35.000Z</time>
      </trkpt>
      <trkpt lat="42.309835" lon="-8.803696">
        <ele>43</ele>
        <time>1970-01-01T03:44:36.000Z</time>
      </trkpt>
      <trkpt lat="42.309846" lon="-8.803704">
        <ele>42.6</ele>
        <time>1970-01-01T03:44:37.000Z</time>
      </trkpt>
      <trkpt lat="42.309857" lon="-8.803714">
        <ele>42.4</ele>
        <time>1970-01-01T03:44:38.000Z</time>
      </trkpt>
      <trkpt lat="42.309867" lon="-8.80372">
        <ele>42.4</ele>
        <time>1970-01-01T03:44:39.000Z</time>
      </trkpt>
      <trkpt lat="42.309879" lon="-8.803723">
        <ele>42.2</ele>
        <time>1970-01-01T03:44:40.000Z</time>
      </trkpt>
      <trkpt lat="42.309891" lon="-8.80373">
        <ele>42</ele>
        <time>1970-01-01T03:44:41.000Z</time>
      </trkpt>
      <trkpt lat="42.309904" lon="-8.803738">
        <ele>41.8</ele>
        <time>1970-01-01T03:44:42.000Z</time>
      </trkpt>
      <trkpt lat="42.309917" lon="-8.803748">
        <ele>41.6</ele>
        <time>1970-01-01T03:44:43.000Z</time>
      </trkpt>
      <trkpt lat="42.309928" lon="-8.803758">
        <ele>41.6</ele>
        <time>1970-01-01T03:44:44.000Z</time>
      </trkpt>
      <trkpt lat="42.309934" lon="-8.803768">
        <ele>41.6</ele>
        <time>1970-01-01T03:44:45.000Z</time>
      </trkpt>
      <trkpt lat="42.309941" lon="-8.803776">
        <ele>41.6</ele>
        <time>1970-01-01T03:44:46.000Z</time>
      </trkpt>
      <trkpt lat="42.309947" lon="-8.803784">
        <ele>41.6</ele>
        <time>1970-01-01T03:44:47.000Z</time>
      </trkpt>
      <trkpt lat="42.309951" lon="-8.803792">
        <ele>41.6</ele>
        <time>1970-01-01T03:44:48.000Z</time>
      </trkpt>
      <trkpt lat="42.309955" lon="-8.8038">
        <ele>41.6</ele>
        <time>1970-01-01T03:44:49.000Z</time>
      </trkpt>
      <trkpt lat="42.309957" lon="-8.803807">
        <ele>41.6</ele>
        <time>1970-01-01T03:44:50.000Z</time>
      </trkpt>
      <trkpt lat="42.309956" lon="-8.803815">
        <ele>41.6</ele>
        <time>1970-01-01T03:44:51.000Z</time>
      </trkpt>
      <trkpt lat="42.309955" lon="-8.803826">
        <ele>41.4</ele>
        <time>1970-01-01T03:44:52.000Z</time>
      </trkpt>
      <trkpt lat="42.309951" lon="-8.803837">
        <ele>41.2</ele>
        <time>1970-01-01T03:44:53.000Z</time>
      </trkpt>
      <trkpt lat="42.309949" lon="-8.803847">
        <ele>41.4</ele>
        <time>1970-01-01T03:44:54.000Z</time>
      </trkpt>
      <trkpt lat="42.309949" lon="-8.803854">
        <ele>41.4</ele>
        <time>1970-01-01T03:44:55.000Z</time>
      </trkpt>
      <trkpt lat="42.309953" lon="-8.803857">
        <ele>41.4</ele>
        <time>1970-01-01T03:44:56.000Z</time>
      </trkpt>
      <trkpt lat="42.309957" lon="-8.803861">
        <ele>41.4</ele>
        <time>1970-01-01T03:44:57.000Z</time>
      </trkpt>
      <trkpt lat="42.309962" lon="-8.803861">
        <ele>41.6</ele>
        <time>1970-01-01T03:44:58.000Z</time>
      </trkpt>
      <trkpt lat="42.309968" lon="-8.80386">
        <ele>41.6</ele>
        <time>1970-01-01T03:44:59.000Z</time>
      </trkpt>
      <trkpt lat="42.309975" lon="-8.803861">
        <ele>41.4</ele>
        <time>1970-01-01T03:45:00.000Z</time>
      </trkpt>
      <trkpt lat="42.309979" lon="-8.803865">
        <ele>41.2</ele>
        <time>1970-01-01T03:45:01.000Z</time>
      </trkpt>
      <trkpt lat="42.309982" lon="-8.803871">
        <ele>41</ele>
        <time>1970-01-01T03:45:02.000Z</time>
      </trkpt>
      <trkpt lat="42.309984" lon="-8.803875">
        <ele>40.8</ele>
        <time>1970-01-01T03:45:03.000Z</time>
      </trkpt>
      <trkpt lat="42.309984" lon="-8.803881">
        <ele>40.6</ele>
        <time>1970-01-01T03:45:04.000Z</time>
      </trkpt>
      <trkpt lat="42.309985" lon="-8.803887">
        <ele>40.6</ele>
        <time>1970-01-01T03:45:05.000Z</time>
      </trkpt>
      <trkpt lat="42.309987" lon="-8.803893">
        <ele>40.6</ele>
        <time>1970-01-01T03:45:06.000Z</time>
      </trkpt>
      <trkpt lat="42.309989" lon="-8.803901">
        <ele>40.6</ele>
        <time>1970-01-01T03:45:07.000Z</time>
      </trkpt>
      <trkpt lat="42.30999" lon="-8.803908">
        <ele>40.6</ele>
        <time>1970-01-01T03:45:08.000Z</time>
      </trkpt>
      <trkpt lat="42.309996" lon="-8.803913">
        <ele>40.6</ele>
        <time>1970-01-01T03:45:09.000Z</time>
      </trkpt>
      <trkpt lat="42.309997" lon="-8.803917">
        <ele>40.6</ele>
        <time>1970-01-01T03:45:10.000Z</time>
      </trkpt>
      <trkpt lat="42.31" lon="-8.803918">
        <ele>40.8</ele>
        <time>1970-01-01T03:45:11.000Z</time>
      </trkpt>
      <trkpt lat="42.310002" lon="-8.803919">
        <ele>40.8</ele>
        <time>1970-01-01T03:45:12.000Z</time>
      </trkpt>
      <trkpt lat="42.310002" lon="-8.803923">
        <ele>40.8</ele>
        <time>1970-01-01T03:45:13.000Z</time>
      </trkpt>
      <trkpt lat="42.310005" lon="-8.803928">
        <ele>41</ele>
        <time>1970-01-01T03:45:14.000Z</time>
      </trkpt>
      <trkpt lat="42.310007" lon="-8.803935">
        <ele>41.2</ele>
        <time>1970-01-01T03:45:15.000Z</time>
      </trkpt>
      <trkpt lat="42.31001" lon="-8.803943">
        <ele>41.2</ele>
        <time>1970-01-01T03:45:16.000Z</time>
      </trkpt>
      <trkpt lat="42.31001" lon="-8.803953">
        <ele>41.6</ele>
        <time>1970-01-01T03:45:17.000Z</time>
      </trkpt>
      <trkpt lat="42.310004" lon="-8.803963">
        <ele>41.8</ele>
        <time>1970-01-01T03:45:18.000Z</time>
      </trkpt>
      <trkpt lat="42.310001" lon="-8.803972">
        <ele>42</ele>
        <time>1970-01-01T03:45:19.000Z</time>
      </trkpt>
      <trkpt lat="42.309997" lon="-8.80398">
        <ele>42.4</ele>
        <time>1970-01-01T03:45:20.000Z</time>
      </trkpt>
      <trkpt lat="42.309995" lon="-8.803984">
        <ele>42.6</ele>
        <time>1970-01-01T03:45:21.000Z</time>
      </trkpt>
      <trkpt lat="42.309993" lon="-8.803989">
        <ele>42.8</ele>
        <time>1970-01-01T03:45:22.000Z</time>
      </trkpt>
      <trkpt lat="42.309994" lon="-8.803997">
        <ele>43</ele>
        <time>1970-01-01T03:45:23.000Z</time>
      </trkpt>
      <trkpt lat="42.309997" lon="-8.804006">
        <ele>43.4</ele>
        <time>1970-01-01T03:45:24.000Z</time>
      </trkpt>
      <trkpt lat="42.310001" lon="-8.804017">
        <ele>43.6</ele>
        <time>1970-01-01T03:45:25.000Z</time>
      </trkpt>
      <trkpt lat="42.310003" lon="-8.804034">
        <ele>43.8</ele>
        <time>1970-01-01T03:45:26.000Z</time>
      </trkpt>
      <trkpt lat="42.310006" lon="-8.804062">
        <ele>43.8</ele>
        <time>1970-01-01T03:45:27.000Z</time>
      </trkpt>
      <trkpt lat="42.310009" lon="-8.804077">
        <ele>44</ele>
        <time>1970-01-01T03:45:28.000Z</time>
      </trkpt>
      <trkpt lat="42.310011" lon="-8.804086">
        <ele>44</ele>
        <time>1970-01-01T03:45:29.000Z</time>
      </trkpt>
      <trkpt lat="42.310012" lon="-8.804098">
        <ele>43.8</ele>
        <time>1970-01-01T03:45:30.000Z</time>
      </trkpt>
      <trkpt lat="42.310012" lon="-8.804112">
        <ele>43.8</ele>
        <time>1970-01-01T03:45:31.000Z</time>
      </trkpt>
      <trkpt lat="42.310015" lon="-8.804123">
        <ele>43</ele>
        <time>1970-01-01T03:45:32.000Z</time>
      </trkpt>
      <trkpt lat="42.310018" lon="-8.804135">
        <ele>42.6</ele>
        <time>1970-01-01T03:45:33.000Z</time>
      </trkpt>
      <trkpt lat="42.310017" lon="-8.804155">
        <ele>42.4</ele>
        <time>1970-01-01T03:45:34.000Z</time>
      </trkpt>
      <trkpt lat="42.310021" lon="-8.804177">
        <ele>42.2</ele>
        <time>1970-01-01T03:45:35.000Z</time>
      </trkpt>
      <trkpt lat="42.31002" lon="-8.804203">
        <ele>42.2</ele>
        <time>1970-01-01T03:45:36.000Z</time>
      </trkpt>
      <trkpt lat="42.310021" lon="-8.804221">
        <ele>42</ele>
        <time>1970-01-01T03:45:37.000Z</time>
      </trkpt>
      <trkpt lat="42.310021" lon="-8.804241">
        <ele>42</ele>
        <time>1970-01-01T03:45:38.000Z</time>
      </trkpt>
      <trkpt lat="42.310023" lon="-8.80426">
        <ele>42</ele>
        <time>1970-01-01T03:45:39.000Z</time>
      </trkpt>
      <trkpt lat="42.310024" lon="-8.804272">
        <ele>41.6</ele>
        <time>1970-01-01T03:45:40.000Z</time>
      </trkpt>
      <trkpt lat="42.310029" lon="-8.804281">
        <ele>41</ele>
        <time>1970-01-01T03:45:41.000Z</time>
      </trkpt>
      <trkpt lat="42.310031" lon="-8.80429">
        <ele>40.4</ele>
        <time>1970-01-01T03:45:42.000Z</time>
      </trkpt>
      <trkpt lat="42.310037" lon="-8.804301">
        <ele>39.8</ele>
        <time>1970-01-01T03:45:43.000Z</time>
      </trkpt>
      <trkpt lat="42.310039" lon="-8.80432">
        <ele>39.4</ele>
        <time>1970-01-01T03:45:44.000Z</time>
      </trkpt>
      <trkpt lat="42.31004" lon="-8.804334">
        <ele>39.4</ele>
        <time>1970-01-01T03:45:45.000Z</time>
      </trkpt>
      <trkpt lat="42.310046" lon="-8.804349">
        <ele>39.2</ele>
        <time>1970-01-01T03:45:46.000Z</time>
      </trkpt>
      <trkpt lat="42.310054" lon="-8.804363">
        <ele>39.2</ele>
        <time>1970-01-01T03:45:47.000Z</time>
      </trkpt>
      <trkpt lat="42.310062" lon="-8.804376">
        <ele>39.2</ele>
        <time>1970-01-01T03:45:48.000Z</time>
      </trkpt>
      <trkpt lat="42.310073" lon="-8.804386">
        <ele>39.4</ele>
        <time>1970-01-01T03:45:49.000Z</time>
      </trkpt>
      <trkpt lat="42.310087" lon="-8.8044">
        <ele>39.4</ele>
        <time>1970-01-01T03:45:50.000Z</time>
      </trkpt>
      <trkpt lat="42.3101" lon="-8.804411">
        <ele>39.4</ele>
        <time>1970-01-01T03:45:51.000Z</time>
      </trkpt>
      <trkpt lat="42.310109" lon="-8.804415">
        <ele>39.4</ele>
        <time>1970-01-01T03:45:52.000Z</time>
      </trkpt>
      <trkpt lat="42.310118" lon="-8.804419">
        <ele>39.2</ele>
        <time>1970-01-01T03:45:53.000Z</time>
      </trkpt>
      <trkpt lat="42.310123" lon="-8.804421">
        <ele>39.2</ele>
        <time>1970-01-01T03:45:54.000Z</time>
      </trkpt>
      <trkpt lat="42.31013" lon="-8.804423">
        <ele>39</ele>
        <time>1970-01-01T03:45:55.000Z</time>
      </trkpt>
      <trkpt lat="42.310137" lon="-8.80442">
        <ele>38.8</ele>
        <time>1970-01-01T03:45:56.000Z</time>
      </trkpt>
      <trkpt lat="42.310145" lon="-8.804417">
        <ele>38.8</ele>
        <time>1970-01-01T03:45:57.000Z</time>
      </trkpt>
      <trkpt lat="42.310154" lon="-8.80442">
        <ele>38.6</ele>
        <time>1970-01-01T03:45:58.000Z</time>
      </trkpt>
      <trkpt lat="42.310159" lon="-8.80442">
        <ele>38.6</ele>
        <time>1970-01-01T03:45:59.000Z</time>
      </trkpt>
      <trkpt lat="42.310165" lon="-8.804421">
        <ele>38.4</ele>
        <time>1970-01-01T03:46:00.000Z</time>
      </trkpt>
      <trkpt lat="42.310172" lon="-8.804421">
        <ele>38.2</ele>
        <time>1970-01-01T03:46:01.000Z</time>
      </trkpt>
      <trkpt lat="42.310176" lon="-8.804423">
        <ele>37.8</ele>
        <time>1970-01-01T03:46:02.000Z</time>
      </trkpt>
      <trkpt lat="42.310181" lon="-8.804424">
        <ele>37.6</ele>
        <time>1970-01-01T03:46:03.000Z</time>
      </trkpt>
      <trkpt lat="42.310184" lon="-8.804423">
        <ele>37.2</ele>
        <time>1970-01-01T03:46:04.000Z</time>
      </trkpt>
      <trkpt lat="42.310186" lon="-8.804426">
        <ele>37.2</ele>
        <time>1970-01-01T03:46:05.000Z</time>
      </trkpt>
      <trkpt lat="42.310188" lon="-8.804432">
        <ele>37</ele>
        <time>1970-01-01T03:46:06.000Z</time>
      </trkpt>
      <trkpt lat="42.310187" lon="-8.804438">
        <ele>37</ele>
        <time>1970-01-01T03:46:07.000Z</time>
      </trkpt>
      <trkpt lat="42.310186" lon="-8.804442">
        <ele>37</ele>
        <time>1970-01-01T03:46:08.000Z</time>
      </trkpt>
      <trkpt lat="42.310184" lon="-8.804445">
        <ele>37</ele>
        <time>1970-01-01T03:46:09.000Z</time>
      </trkpt>
      <trkpt lat="42.31018" lon="-8.804447">
        <ele>36.8</ele>
        <time>1970-01-01T03:46:10.000Z</time>
      </trkpt>
      <trkpt lat="42.310178" lon="-8.804449">
        <ele>36.8</ele>
        <time>1970-01-01T03:46:11.000Z</time>
      </trkpt>
      <trkpt lat="42.310176" lon="-8.804453">
        <ele>36.8</ele>
        <time>1970-01-01T03:46:12.000Z</time>
      </trkpt>
      <trkpt lat="42.310176" lon="-8.804453">
        <ele>36.8</ele>
        <time>1970-01-01T03:46:13.000Z</time>
      </trkpt>
      <trkpt lat="42.310176" lon="-8.804456">
        <ele>36.8</ele>
        <time>1970-01-01T03:46:14.000Z</time>
      </trkpt>
      <trkpt lat="42.310176" lon="-8.804456">
        <ele>37</ele>
        <time>1970-01-01T03:46:15.000Z</time>
      </trkpt>
      <trkpt lat="42.310172" lon="-8.804457">
        <ele>37.2</ele>
        <time>1970-01-01T03:46:16.000Z</time>
      </trkpt>
      <trkpt lat="42.310169" lon="-8.80446">
        <ele>37</ele>
        <time>1970-01-01T03:46:17.000Z</time>
      </trkpt>
      <trkpt lat="42.310166" lon="-8.804464">
        <ele>37</ele>
        <time>1970-01-01T03:46:18.000Z</time>
      </trkpt>
      <trkpt lat="42.310166" lon="-8.804471">
        <ele>36.8</ele>
        <time>1970-01-01T03:46:19.000Z</time>
      </trkpt>
      <trkpt lat="42.310167" lon="-8.804476">
        <ele>36.8</ele>
        <time>1970-01-01T03:46:20.000Z</time>
      </trkpt>
      <trkpt lat="42.31017" lon="-8.804478">
        <ele>36.8</ele>
        <time>1970-01-01T03:46:21.000Z</time>
      </trkpt>
      <trkpt lat="42.31017" lon="-8.804476">
        <ele>36.8</ele>
        <time>1970-01-01T03:46:22.000Z</time>
      </trkpt>
      <trkpt lat="42.310169" lon="-8.804474">
        <ele>36.6</ele>
        <time>1970-01-01T03:46:23.000Z</time>
      </trkpt>
      <trkpt lat="42.310168" lon="-8.804472">
        <ele>36.6</ele>
        <time>1970-01-01T03:46:24.000Z</time>
      </trkpt>
      <trkpt lat="42.310167" lon="-8.804472">
        <ele>37</ele>
        <time>1970-01-01T03:46:25.000Z</time>
      </trkpt>
      <trkpt lat="42.310167" lon="-8.804472">
        <ele>37</ele>
        <time>1970-01-01T03:46:26.000Z</time>
      </trkpt>
      <trkpt lat="42.31017" lon="-8.80448">
        <ele>37.2</ele>
        <time>1970-01-01T03:46:27.000Z</time>
      </trkpt>
      <trkpt lat="42.310177" lon="-8.80448">
        <ele>37.2</ele>
        <time>1970-01-01T03:46:28.000Z</time>
      </trkpt>
      <trkpt lat="42.310183" lon="-8.804478">
        <ele>37.2</ele>
        <time>1970-01-01T03:46:29.000Z</time>
      </trkpt>
      <trkpt lat="42.310187" lon="-8.804475">
        <ele>37.2</ele>
        <time>1970-01-01T03:46:30.000Z</time>
      </trkpt>
      <trkpt lat="42.310198" lon="-8.804468">
        <ele>37.2</ele>
        <time>1970-01-01T03:46:31.000Z</time>
      </trkpt>
      <trkpt lat="42.310202" lon="-8.804458">
        <ele>37</ele>
        <time>1970-01-01T03:46:32.000Z</time>
      </trkpt>
      <trkpt lat="42.310209" lon="-8.804452">
        <ele>37</ele>
        <time>1970-01-01T03:46:33.000Z</time>
      </trkpt>
      <trkpt lat="42.310213" lon="-8.804447">
        <ele>37</ele>
        <time>1970-01-01T03:46:34.000Z</time>
      </trkpt>
      <trkpt lat="42.310218" lon="-8.804445">
        <ele>36.8</ele>
        <time>1970-01-01T03:46:35.000Z</time>
      </trkpt>
      <trkpt lat="42.31022" lon="-8.804444">
        <ele>36.8</ele>
        <time>1970-01-01T03:46:36.000Z</time>
      </trkpt>
      <trkpt lat="42.310224" lon="-8.804445">
        <ele>36.8</ele>
        <time>1970-01-01T03:46:37.000Z</time>
      </trkpt>
      <trkpt lat="42.310227" lon="-8.804449">
        <ele>36.8</ele>
        <time>1970-01-01T03:46:38.000Z</time>
      </trkpt>
      <trkpt lat="42.310224" lon="-8.804465">
        <ele>37</ele>
        <time>1970-01-01T03:46:39.000Z</time>
      </trkpt>
      <trkpt lat="42.310228" lon="-8.80447">
        <ele>37.2</ele>
        <time>1970-01-01T03:46:40.000Z</time>
      </trkpt>
      <trkpt lat="42.310234" lon="-8.804481">
        <ele>37.4</ele>
        <time>1970-01-01T03:46:41.000Z</time>
      </trkpt>
      <trkpt lat="42.310244" lon="-8.804494">
        <ele>37.8</ele>
        <time>1970-01-01T03:46:42.000Z</time>
      </trkpt>
      <trkpt lat="42.31026" lon="-8.804504">
        <ele>37.8</ele>
        <time>1970-01-01T03:46:43.000Z</time>
      </trkpt>
      <trkpt lat="42.310274" lon="-8.804508">
        <ele>38</ele>
        <time>1970-01-01T03:46:44.000Z</time>
      </trkpt>
      <trkpt lat="42.310286" lon="-8.804512">
        <ele>38.2</ele>
        <time>1970-01-01T03:46:45.000Z</time>
      </trkpt>
      <trkpt lat="42.310298" lon="-8.804517">
        <ele>38.2</ele>
        <time>1970-01-01T03:46:46.000Z</time>
      </trkpt>
      <trkpt lat="42.31031" lon="-8.804519">
        <ele>38.2</ele>
        <time>1970-01-01T03:46:47.000Z</time>
      </trkpt>
      <trkpt lat="42.310322" lon="-8.804519">
        <ele>38.4</ele>
        <time>1970-01-01T03:46:48.000Z</time>
      </trkpt>
      <trkpt lat="42.310331" lon="-8.804517">
        <ele>38.6</ele>
        <time>1970-01-01T03:46:49.000Z</time>
      </trkpt>
      <trkpt lat="42.310334" lon="-8.804516">
        <ele>38.6</ele>
        <time>1970-01-01T03:46:50.000Z</time>
      </trkpt>
      <trkpt lat="42.310334" lon="-8.804517">
        <ele>38.6</ele>
        <time>1970-01-01T03:46:51.000Z</time>
      </trkpt>
      <trkpt lat="42.310333" lon="-8.804516">
        <ele>38.6</ele>
        <time>1970-01-01T03:46:52.000Z</time>
      </trkpt>
      <trkpt lat="42.310331" lon="-8.804522">
        <ele>38.6</ele>
        <time>1970-01-01T03:46:53.000Z</time>
      </trkpt>
      <trkpt lat="42.310331" lon="-8.804529">
        <ele>38.6</ele>
        <time>1970-01-01T03:46:54.000Z</time>
      </trkpt>
      <trkpt lat="42.310327" lon="-8.804538">
        <ele>38.6</ele>
        <time>1970-01-01T03:46:55.000Z</time>
      </trkpt>
      <trkpt lat="42.310321" lon="-8.804553">
        <ele>38.4</ele>
        <time>1970-01-01T03:46:56.000Z</time>
      </trkpt>
      <trkpt lat="42.310317" lon="-8.804561">
        <ele>38.2</ele>
        <time>1970-01-01T03:46:57.000Z</time>
      </trkpt>
      <trkpt lat="42.310312" lon="-8.804568">
        <ele>37.8</ele>
        <time>1970-01-01T03:46:58.000Z</time>
      </trkpt>
      <trkpt lat="42.310313" lon="-8.804579">
        <ele>37.6</ele>
        <time>1970-01-01T03:46:59.000Z</time>
      </trkpt>
      <trkpt lat="42.310317" lon="-8.804596">
        <ele>37.4</ele>
        <time>1970-01-01T03:47:00.000Z</time>
      </trkpt>
      <trkpt lat="42.310326" lon="-8.804613">
        <ele>37.4</ele>
        <time>1970-01-01T03:47:01.000Z</time>
      </trkpt>
      <trkpt lat="42.310339" lon="-8.804625">
        <ele>37.4</ele>
        <time>1970-01-01T03:47:02.000Z</time>
      </trkpt>
      <trkpt lat="42.310346" lon="-8.804637">
        <ele>37.2</ele>
        <time>1970-01-01T03:47:03.000Z</time>
      </trkpt>
      <trkpt lat="42.310351" lon="-8.804643">
        <ele>37.2</ele>
        <time>1970-01-01T03:47:04.000Z</time>
      </trkpt>
      <trkpt lat="42.310359" lon="-8.804651">
        <ele>37.4</ele>
        <time>1970-01-01T03:47:05.000Z</time>
      </trkpt>
      <trkpt lat="42.310367" lon="-8.804657">
        <ele>37.4</ele>
        <time>1970-01-01T03:47:06.000Z</time>
      </trkpt>
      <trkpt lat="42.310379" lon="-8.804666">
        <ele>37.4</ele>
        <time>1970-01-01T03:47:07.000Z</time>
      </trkpt>
      <trkpt lat="42.310389" lon="-8.804677">
        <ele>37.6</ele>
        <time>1970-01-01T03:47:08.000Z</time>
      </trkpt>
      <trkpt lat="42.310405" lon="-8.804686">
        <ele>37.6</ele>
        <time>1970-01-01T03:47:09.000Z</time>
      </trkpt>
      <trkpt lat="42.310418" lon="-8.804693">
        <ele>37.8</ele>
        <time>1970-01-01T03:47:10.000Z</time>
      </trkpt>
      <trkpt lat="42.310432" lon="-8.8047">
        <ele>37.8</ele>
        <time>1970-01-01T03:47:11.000Z</time>
      </trkpt>
      <trkpt lat="42.310441" lon="-8.804711">
        <ele>38</ele>
        <time>1970-01-01T03:47:12.000Z</time>
      </trkpt>
      <trkpt lat="42.310448" lon="-8.804719">
        <ele>38.2</ele>
        <time>1970-01-01T03:47:13.000Z</time>
      </trkpt>
      <trkpt lat="42.310455" lon="-8.804727">
        <ele>38.2</ele>
        <time>1970-01-01T03:47:14.000Z</time>
      </trkpt>
      <trkpt lat="42.310466" lon="-8.804731">
        <ele>38.4</ele>
        <time>1970-01-01T03:47:15.000Z</time>
      </trkpt>
      <trkpt lat="42.310478" lon="-8.804734">
        <ele>38.4</ele>
        <time>1970-01-01T03:47:16.000Z</time>
      </trkpt>
      <trkpt lat="42.31049" lon="-8.804736">
        <ele>38.6</ele>
        <time>1970-01-01T03:47:17.000Z</time>
      </trkpt>
      <trkpt lat="42.310505" lon="-8.804744">
        <ele>38.6</ele>
        <time>1970-01-01T03:47:18.000Z</time>
      </trkpt>
      <trkpt lat="42.310518" lon="-8.804748">
        <ele>38.6</ele>
        <time>1970-01-01T03:47:19.000Z</time>
      </trkpt>
      <trkpt lat="42.310525" lon="-8.804748">
        <ele>38.6</ele>
        <time>1970-01-01T03:47:20.000Z</time>
      </trkpt>
      <trkpt lat="42.310531" lon="-8.804753">
        <ele>38.6</ele>
        <time>1970-01-01T03:47:21.000Z</time>
      </trkpt>
      <trkpt lat="42.310538" lon="-8.804755">
        <ele>38.6</ele>
        <time>1970-01-01T03:47:22.000Z</time>
      </trkpt>
      <trkpt lat="42.310552" lon="-8.804756">
        <ele>38.6</ele>
        <time>1970-01-01T03:47:23.000Z</time>
      </trkpt>
      <trkpt lat="42.310568" lon="-8.804761">
        <ele>38.8</ele>
        <time>1970-01-01T03:47:24.000Z</time>
      </trkpt>
      <trkpt lat="42.310582" lon="-8.80476">
        <ele>38.8</ele>
        <time>1970-01-01T03:47:25.000Z</time>
      </trkpt>
      <trkpt lat="42.310593" lon="-8.804763">
        <ele>38.8</ele>
        <time>1970-01-01T03:47:26.000Z</time>
      </trkpt>
      <trkpt lat="42.310604" lon="-8.804766">
        <ele>39</ele>
        <time>1970-01-01T03:47:27.000Z</time>
      </trkpt>
      <trkpt lat="42.310614" lon="-8.804766">
        <ele>39.2</ele>
        <time>1970-01-01T03:47:28.000Z</time>
      </trkpt>
      <trkpt lat="42.310623" lon="-8.804771">
        <ele>39.2</ele>
        <time>1970-01-01T03:47:29.000Z</time>
      </trkpt>
      <trkpt lat="42.310632" lon="-8.804777">
        <ele>39.4</ele>
        <time>1970-01-01T03:47:30.000Z</time>
      </trkpt>
      <trkpt lat="42.31064" lon="-8.804783">
        <ele>39.4</ele>
        <time>1970-01-01T03:47:31.000Z</time>
      </trkpt>
      <trkpt lat="42.310652" lon="-8.804789">
        <ele>39.6</ele>
        <time>1970-01-01T03:47:32.000Z</time>
      </trkpt>
      <trkpt lat="42.310666" lon="-8.804795">
        <ele>39.6</ele>
        <time>1970-01-01T03:47:33.000Z</time>
      </trkpt>
      <trkpt lat="42.310674" lon="-8.804797">
        <ele>39.6</ele>
        <time>1970-01-01T03:47:34.000Z</time>
      </trkpt>
      <trkpt lat="42.310679" lon="-8.804799">
        <ele>39.8</ele>
        <time>1970-01-01T03:47:35.000Z</time>
      </trkpt>
      <trkpt lat="42.310691" lon="-8.804807">
        <ele>40</ele>
        <time>1970-01-01T03:47:36.000Z</time>
      </trkpt>
      <trkpt lat="42.310703" lon="-8.804814">
        <ele>40</ele>
        <time>1970-01-01T03:47:37.000Z</time>
      </trkpt>
      <trkpt lat="42.310716" lon="-8.80482">
        <ele>40.2</ele>
        <time>1970-01-01T03:47:38.000Z</time>
      </trkpt>
      <trkpt lat="42.310728" lon="-8.804828">
        <ele>40.2</ele>
        <time>1970-01-01T03:47:39.000Z</time>
      </trkpt>
      <trkpt lat="42.310738" lon="-8.80484">
        <ele>40.4</ele>
        <time>1970-01-01T03:47:40.000Z</time>
      </trkpt>
      <trkpt lat="42.310745" lon="-8.804855">
        <ele>40.6</ele>
        <time>1970-01-01T03:47:41.000Z</time>
      </trkpt>
      <trkpt lat="42.31075" lon="-8.804868">
        <ele>41</ele>
        <time>1970-01-01T03:47:42.000Z</time>
      </trkpt>
      <trkpt lat="42.310753" lon="-8.804874">
        <ele>41</ele>
        <time>1970-01-01T03:47:43.000Z</time>
      </trkpt>
      <trkpt lat="42.310756" lon="-8.80488">
        <ele>41.2</ele>
        <time>1970-01-01T03:47:44.000Z</time>
      </trkpt>
      <trkpt lat="42.310759" lon="-8.804886">
        <ele>41.2</ele>
        <time>1970-01-01T03:47:45.000Z</time>
      </trkpt>
      <trkpt lat="42.310764" lon="-8.804895">
        <ele>41.4</ele>
        <time>1970-01-01T03:47:46.000Z</time>
      </trkpt>
      <trkpt lat="42.310768" lon="-8.804908">
        <ele>41.4</ele>
        <time>1970-01-01T03:47:47.000Z</time>
      </trkpt>
      <trkpt lat="42.310773" lon="-8.80492">
        <ele>41.6</ele>
        <time>1970-01-01T03:47:48.000Z</time>
      </trkpt>
      <trkpt lat="42.31078" lon="-8.804931">
        <ele>41</ele>
        <time>1970-01-01T03:47:49.000Z</time>
      </trkpt>
      <trkpt lat="42.310788" lon="-8.804939">
        <ele>40.8</ele>
        <time>1970-01-01T03:47:50.000Z</time>
      </trkpt>
      <trkpt lat="42.310797" lon="-8.804944">
        <ele>40.8</ele>
        <time>1970-01-01T03:47:51.000Z</time>
      </trkpt>
      <trkpt lat="42.310805" lon="-8.80495">
        <ele>40.6</ele>
        <time>1970-01-01T03:47:52.000Z</time>
      </trkpt>
      <trkpt lat="42.310813" lon="-8.804962">
        <ele>40.6</ele>
        <time>1970-01-01T03:47:53.000Z</time>
      </trkpt>
      <trkpt lat="42.310821" lon="-8.804971">
        <ele>40.6</ele>
        <time>1970-01-01T03:47:54.000Z</time>
      </trkpt>
      <trkpt lat="42.310829" lon="-8.804981">
        <ele>41</ele>
        <time>1970-01-01T03:47:55.000Z</time>
      </trkpt>
      <trkpt lat="42.310838" lon="-8.804992">
        <ele>41.2</ele>
        <time>1970-01-01T03:47:56.000Z</time>
      </trkpt>
      <trkpt lat="42.310846" lon="-8.805003">
        <ele>41.6</ele>
        <time>1970-01-01T03:47:57.000Z</time>
      </trkpt>
      <trkpt lat="42.310854" lon="-8.805017">
        <ele>41.6</ele>
        <time>1970-01-01T03:47:58.000Z</time>
      </trkpt>
      <trkpt lat="42.31086" lon="-8.805035">
        <ele>41.6</ele>
        <time>1970-01-01T03:47:59.000Z</time>
      </trkpt>
      <trkpt lat="42.310865" lon="-8.805057">
        <ele>42</ele>
        <time>1970-01-01T03:48:00.000Z</time>
      </trkpt>
      <trkpt lat="42.310871" lon="-8.805077">
        <ele>42</ele>
        <time>1970-01-01T03:48:01.000Z</time>
      </trkpt>
      <trkpt lat="42.310876" lon="-8.805097">
        <ele>42.2</ele>
        <time>1970-01-01T03:48:02.000Z</time>
      </trkpt>
      <trkpt lat="42.310884" lon="-8.805112">
        <ele>42.4</ele>
        <time>1970-01-01T03:48:03.000Z</time>
      </trkpt>
      <trkpt lat="42.310891" lon="-8.805128">
        <ele>42.4</ele>
        <time>1970-01-01T03:48:04.000Z</time>
      </trkpt>
      <trkpt lat="42.310896" lon="-8.805144">
        <ele>42.4</ele>
        <time>1970-01-01T03:48:05.000Z</time>
      </trkpt>
      <trkpt lat="42.310901" lon="-8.805154">
        <ele>42.4</ele>
        <time>1970-01-01T03:48:06.000Z</time>
      </trkpt>
      <trkpt lat="42.310904" lon="-8.805166">
        <ele>42.6</ele>
        <time>1970-01-01T03:48:07.000Z</time>
      </trkpt>
      <trkpt lat="42.310907" lon="-8.805182">
        <ele>42.6</ele>
        <time>1970-01-01T03:48:08.000Z</time>
      </trkpt>
      <trkpt lat="42.310907" lon="-8.805204">
        <ele>42.8</ele>
        <time>1970-01-01T03:48:09.000Z</time>
      </trkpt>
      <trkpt lat="42.310908" lon="-8.805222">
        <ele>42.8</ele>
        <time>1970-01-01T03:48:10.000Z</time>
      </trkpt>
      <trkpt lat="42.310912" lon="-8.805236">
        <ele>42.8</ele>
        <time>1970-01-01T03:48:11.000Z</time>
      </trkpt>
      <trkpt lat="42.310915" lon="-8.805242">
        <ele>42.8</ele>
        <time>1970-01-01T03:48:12.000Z</time>
      </trkpt>
      <trkpt lat="42.310917" lon="-8.805249">
        <ele>42.8</ele>
        <time>1970-01-01T03:48:13.000Z</time>
      </trkpt>
      <trkpt lat="42.310918" lon="-8.805252">
        <ele>42.8</ele>
        <time>1970-01-01T03:48:14.000Z</time>
      </trkpt>
      <trkpt lat="42.310918" lon="-8.805257">
        <ele>43</ele>
        <time>1970-01-01T03:48:15.000Z</time>
      </trkpt>
      <trkpt lat="42.310918" lon="-8.80526">
        <ele>43</ele>
        <time>1970-01-01T03:48:16.000Z</time>
      </trkpt>
      <trkpt lat="42.310919" lon="-8.805263">
        <ele>43</ele>
        <time>1970-01-01T03:48:17.000Z</time>
      </trkpt>
      <trkpt lat="42.310923" lon="-8.805268">
        <ele>43.4</ele>
        <time>1970-01-01T03:48:18.000Z</time>
      </trkpt>
      <trkpt lat="42.31093" lon="-8.805276">
        <ele>43.6</ele>
        <time>1970-01-01T03:48:19.000Z</time>
      </trkpt>
      <trkpt lat="42.310941" lon="-8.805281">
        <ele>43.6</ele>
        <time>1970-01-01T03:48:20.000Z</time>
      </trkpt>
      <trkpt lat="42.310956" lon="-8.805286">
        <ele>43.8</ele>
        <time>1970-01-01T03:48:21.000Z</time>
      </trkpt>
      <trkpt lat="42.31097" lon="-8.805287">
        <ele>44</ele>
        <time>1970-01-01T03:48:22.000Z</time>
      </trkpt>
      <trkpt lat="42.31098" lon="-8.80529">
        <ele>44.2</ele>
        <time>1970-01-01T03:48:23.000Z</time>
      </trkpt>
      <trkpt lat="42.310991" lon="-8.805291">
        <ele>44.2</ele>
        <time>1970-01-01T03:48:24.000Z</time>
      </trkpt>
      <trkpt lat="42.310999" lon="-8.805294">
        <ele>44.2</ele>
        <time>1970-01-01T03:48:25.000Z</time>
      </trkpt>
      <trkpt lat="42.311007" lon="-8.805297">
        <ele>44.4</ele>
        <time>1970-01-01T03:48:26.000Z</time>
      </trkpt>
      <trkpt lat="42.311015" lon="-8.805303">
        <ele>44.4</ele>
        <time>1970-01-01T03:48:27.000Z</time>
      </trkpt>
      <trkpt lat="42.311022" lon="-8.805308">
        <ele>44.6</ele>
        <time>1970-01-01T03:48:28.000Z</time>
      </trkpt>
      <trkpt lat="42.311029" lon="-8.805314">
        <ele>44.8</ele>
        <time>1970-01-01T03:48:29.000Z</time>
      </trkpt>
      <trkpt lat="42.311038" lon="-8.80532">
        <ele>44.8</ele>
        <time>1970-01-01T03:48:30.000Z</time>
      </trkpt>
      <trkpt lat="42.311043" lon="-8.805325">
        <ele>44.8</ele>
        <time>1970-01-01T03:48:31.000Z</time>
      </trkpt>
      <trkpt lat="42.311049" lon="-8.805329">
        <ele>45</ele>
        <time>1970-01-01T03:48:32.000Z</time>
      </trkpt>
      <trkpt lat="42.311054" lon="-8.805333">
        <ele>45</ele>
        <time>1970-01-01T03:48:33.000Z</time>
      </trkpt>
      <trkpt lat="42.311062" lon="-8.805338">
        <ele>45.4</ele>
        <time>1970-01-01T03:48:34.000Z</time>
      </trkpt>
      <trkpt lat="42.31107" lon="-8.805348">
        <ele>45.6</ele>
        <time>1970-01-01T03:48:35.000Z</time>
      </trkpt>
      <trkpt lat="42.31108" lon="-8.805357">
        <ele>45.8</ele>
        <time>1970-01-01T03:48:36.000Z</time>
      </trkpt>
      <trkpt lat="42.311086" lon="-8.805365">
        <ele>45.8</ele>
        <time>1970-01-01T03:48:37.000Z</time>
      </trkpt>
      <trkpt lat="42.311093" lon="-8.805374">
        <ele>45.8</ele>
        <time>1970-01-01T03:48:38.000Z</time>
      </trkpt>
      <trkpt lat="42.3111" lon="-8.805384">
        <ele>45.8</ele>
        <time>1970-01-01T03:48:39.000Z</time>
      </trkpt>
      <trkpt lat="42.311106" lon="-8.805392">
        <ele>45.8</ele>
        <time>1970-01-01T03:48:40.000Z</time>
      </trkpt>
      <trkpt lat="42.311113" lon="-8.805399">
        <ele>46</ele>
        <time>1970-01-01T03:48:41.000Z</time>
      </trkpt>
      <trkpt lat="42.311125" lon="-8.805407">
        <ele>46.4</ele>
        <time>1970-01-01T03:48:42.000Z</time>
      </trkpt>
      <trkpt lat="42.311134" lon="-8.805415">
        <ele>46.8</ele>
        <time>1970-01-01T03:48:43.000Z</time>
      </trkpt>
      <trkpt lat="42.311142" lon="-8.805423">
        <ele>47.2</ele>
        <time>1970-01-01T03:48:44.000Z</time>
      </trkpt>
      <trkpt lat="42.311151" lon="-8.805427">
        <ele>47.4</ele>
        <time>1970-01-01T03:48:45.000Z</time>
      </trkpt>
      <trkpt lat="42.311159" lon="-8.805433">
        <ele>47.6</ele>
        <time>1970-01-01T03:48:46.000Z</time>
      </trkpt>
      <trkpt lat="42.311167" lon="-8.805442">
        <ele>47.6</ele>
        <time>1970-01-01T03:48:47.000Z</time>
      </trkpt>
      <trkpt lat="42.311175" lon="-8.805449">
        <ele>47.8</ele>
        <time>1970-01-01T03:48:48.000Z</time>
      </trkpt>
      <trkpt lat="42.311183" lon="-8.805455">
        <ele>48</ele>
        <time>1970-01-01T03:48:49.000Z</time>
      </trkpt>
      <trkpt lat="42.311192" lon="-8.805461">
        <ele>48.2</ele>
        <time>1970-01-01T03:48:50.000Z</time>
      </trkpt>
      <trkpt lat="42.311199" lon="-8.805472">
        <ele>48.2</ele>
        <time>1970-01-01T03:48:51.000Z</time>
      </trkpt>
      <trkpt lat="42.311208" lon="-8.805491">
        <ele>48.4</ele>
        <time>1970-01-01T03:48:52.000Z</time>
      </trkpt>
      <trkpt lat="42.311219" lon="-8.805502">
        <ele>48.4</ele>
        <time>1970-01-01T03:48:53.000Z</time>
      </trkpt>
      <trkpt lat="42.311229" lon="-8.805507">
        <ele>48.4</ele>
        <time>1970-01-01T03:48:54.000Z</time>
      </trkpt>
      <trkpt lat="42.311237" lon="-8.805515">
        <ele>48.8</ele>
        <time>1970-01-01T03:48:55.000Z</time>
      </trkpt>
      <trkpt lat="42.311245" lon="-8.805524">
        <ele>49</ele>
        <time>1970-01-01T03:48:56.000Z</time>
      </trkpt>
      <trkpt lat="42.311257" lon="-8.805533">
        <ele>49.2</ele>
        <time>1970-01-01T03:48:57.000Z</time>
      </trkpt>
      <trkpt lat="42.311266" lon="-8.805543">
        <ele>49.4</ele>
        <time>1970-01-01T03:48:58.000Z</time>
      </trkpt>
      <trkpt lat="42.311274" lon="-8.805555">
        <ele>49.8</ele>
        <time>1970-01-01T03:48:59.000Z</time>
      </trkpt>
      <trkpt lat="42.311279" lon="-8.805571">
        <ele>50</ele>
        <time>1970-01-01T03:49:00.000Z</time>
      </trkpt>
      <trkpt lat="42.311285" lon="-8.805581">
        <ele>50</ele>
        <time>1970-01-01T03:49:01.000Z</time>
      </trkpt>
      <trkpt lat="42.311293" lon="-8.805588">
        <ele>50</ele>
        <time>1970-01-01T03:49:02.000Z</time>
      </trkpt>
      <trkpt lat="42.3113" lon="-8.805596">
        <ele>50</ele>
        <time>1970-01-01T03:49:03.000Z</time>
      </trkpt>
      <trkpt lat="42.311308" lon="-8.805602">
        <ele>50.4</ele>
        <time>1970-01-01T03:49:04.000Z</time>
      </trkpt>
      <trkpt lat="42.311312" lon="-8.805615">
        <ele>50.6</ele>
        <time>1970-01-01T03:49:05.000Z</time>
      </trkpt>
      <trkpt lat="42.31132" lon="-8.805629">
        <ele>50.6</ele>
        <time>1970-01-01T03:49:06.000Z</time>
      </trkpt>
      <trkpt lat="42.31133" lon="-8.805646">
        <ele>50.8</ele>
        <time>1970-01-01T03:49:07.000Z</time>
      </trkpt>
      <trkpt lat="42.311339" lon="-8.80566">
        <ele>50.8</ele>
        <time>1970-01-01T03:49:08.000Z</time>
      </trkpt>
      <trkpt lat="42.311352" lon="-8.805668">
        <ele>51</ele>
        <time>1970-01-01T03:49:09.000Z</time>
      </trkpt>
      <trkpt lat="42.311366" lon="-8.805675">
        <ele>51.4</ele>
        <time>1970-01-01T03:49:10.000Z</time>
      </trkpt>
      <trkpt lat="42.311379" lon="-8.805682">
        <ele>51.4</ele>
        <time>1970-01-01T03:49:11.000Z</time>
      </trkpt>
      <trkpt lat="42.31139" lon="-8.805686">
        <ele>51.4</ele>
        <time>1970-01-01T03:49:12.000Z</time>
      </trkpt>
      <trkpt lat="42.3114" lon="-8.805693">
        <ele>51.6</ele>
        <time>1970-01-01T03:49:13.000Z</time>
      </trkpt>
      <trkpt lat="42.311412" lon="-8.805695">
        <ele>51.8</ele>
        <time>1970-01-01T03:49:14.000Z</time>
      </trkpt>
      <trkpt lat="42.311422" lon="-8.805698">
        <ele>51.8</ele>
        <time>1970-01-01T03:49:15.000Z</time>
      </trkpt>
      <trkpt lat="42.311432" lon="-8.805699">
        <ele>51.8</ele>
        <time>1970-01-01T03:49:16.000Z</time>
      </trkpt>
      <trkpt lat="42.311443" lon="-8.805703">
        <ele>52</ele>
        <time>1970-01-01T03:49:17.000Z</time>
      </trkpt>
      <trkpt lat="42.311454" lon="-8.805708">
        <ele>52</ele>
        <time>1970-01-01T03:49:18.000Z</time>
      </trkpt>
      <trkpt lat="42.311464" lon="-8.805714">
        <ele>52.2</ele>
        <time>1970-01-01T03:49:19.000Z</time>
      </trkpt>
      <trkpt lat="42.311473" lon="-8.805721">
        <ele>52.2</ele>
        <time>1970-01-01T03:49:20.000Z</time>
      </trkpt>
      <trkpt lat="42.311482" lon="-8.805727">
        <ele>52</ele>
        <time>1970-01-01T03:49:21.000Z</time>
      </trkpt>
      <trkpt lat="42.31149" lon="-8.805732">
        <ele>52</ele>
        <time>1970-01-01T03:49:22.000Z</time>
      </trkpt>
      <trkpt lat="42.3115" lon="-8.805734">
        <ele>52</ele>
        <time>1970-01-01T03:49:23.000Z</time>
      </trkpt>
      <trkpt lat="42.311506" lon="-8.805735">
        <ele>51.8</ele>
        <time>1970-01-01T03:49:24.000Z</time>
      </trkpt>
      <trkpt lat="42.311511" lon="-8.805734">
        <ele>51.8</ele>
        <time>1970-01-01T03:49:25.000Z</time>
      </trkpt>
      <trkpt lat="42.311515" lon="-8.805732">
        <ele>51.6</ele>
        <time>1970-01-01T03:49:26.000Z</time>
      </trkpt>
      <trkpt lat="42.311518" lon="-8.805729">
        <ele>51.6</ele>
        <time>1970-01-01T03:49:27.000Z</time>
      </trkpt>
      <trkpt lat="42.311521" lon="-8.805729">
        <ele>51.6</ele>
        <time>1970-01-01T03:49:28.000Z</time>
      </trkpt>
      <trkpt lat="42.311523" lon="-8.80573">
        <ele>51.4</ele>
        <time>1970-01-01T03:49:29.000Z</time>
      </trkpt>
      <trkpt lat="42.311525" lon="-8.805731">
        <ele>51.4</ele>
        <time>1970-01-01T03:49:30.000Z</time>
      </trkpt>
      <trkpt lat="42.311528" lon="-8.80573">
        <ele>51.4</ele>
        <time>1970-01-01T03:49:31.000Z</time>
      </trkpt>
      <trkpt lat="42.311534" lon="-8.805729">
        <ele>51.2</ele>
        <time>1970-01-01T03:49:32.000Z</time>
      </trkpt>
      <trkpt lat="42.311541" lon="-8.805728">
        <ele>51.2</ele>
        <time>1970-01-01T03:49:33.000Z</time>
      </trkpt>
      <trkpt lat="42.311546" lon="-8.805732">
        <ele>51.2</ele>
        <time>1970-01-01T03:49:34.000Z</time>
      </trkpt>
      <trkpt lat="42.311555" lon="-8.805734">
        <ele>51.2</ele>
        <time>1970-01-01T03:49:35.000Z</time>
      </trkpt>
      <trkpt lat="42.31156" lon="-8.80574">
        <ele>51.4</ele>
        <time>1970-01-01T03:49:36.000Z</time>
      </trkpt>
      <trkpt lat="42.311567" lon="-8.805747">
        <ele>51.4</ele>
        <time>1970-01-01T03:49:37.000Z</time>
      </trkpt>
      <trkpt lat="42.311573" lon="-8.805755">
        <ele>51.4</ele>
        <time>1970-01-01T03:49:38.000Z</time>
      </trkpt>
      <trkpt lat="42.311579" lon="-8.805764">
        <ele>51.4</ele>
        <time>1970-01-01T03:49:39.000Z</time>
      </trkpt>
      <trkpt lat="42.311588" lon="-8.805772">
        <ele>51.4</ele>
        <time>1970-01-01T03:49:40.000Z</time>
      </trkpt>
      <trkpt lat="42.311598" lon="-8.805779">
        <ele>51.2</ele>
        <time>1970-01-01T03:49:41.000Z</time>
      </trkpt>
      <trkpt lat="42.311607" lon="-8.805788">
        <ele>51</ele>
        <time>1970-01-01T03:49:42.000Z</time>
      </trkpt>
      <trkpt lat="42.311615" lon="-8.805793">
        <ele>51</ele>
        <time>1970-01-01T03:49:43.000Z</time>
      </trkpt>
      <trkpt lat="42.311622" lon="-8.805798">
        <ele>50.8</ele>
        <time>1970-01-01T03:49:44.000Z</time>
      </trkpt>
      <trkpt lat="42.31163" lon="-8.805803">
        <ele>50.6</ele>
        <time>1970-01-01T03:49:45.000Z</time>
      </trkpt>
      <trkpt lat="42.311637" lon="-8.805809">
        <ele>50.4</ele>
        <time>1970-01-01T03:49:46.000Z</time>
      </trkpt>
      <trkpt lat="42.311645" lon="-8.805818">
        <ele>50.2</ele>
        <time>1970-01-01T03:49:47.000Z</time>
      </trkpt>
      <trkpt lat="42.311655" lon="-8.805824">
        <ele>50</ele>
        <time>1970-01-01T03:49:48.000Z</time>
      </trkpt>
      <trkpt lat="42.311668" lon="-8.805829">
        <ele>49.4</ele>
        <time>1970-01-01T03:49:49.000Z</time>
      </trkpt>
      <trkpt lat="42.31168" lon="-8.805839">
        <ele>49.2</ele>
        <time>1970-01-01T03:49:50.000Z</time>
      </trkpt>
      <trkpt lat="42.311692" lon="-8.805852">
        <ele>49</ele>
        <time>1970-01-01T03:49:51.000Z</time>
      </trkpt>
      <trkpt lat="42.311702" lon="-8.805867">
        <ele>48.8</ele>
        <time>1970-01-01T03:49:52.000Z</time>
      </trkpt>
      <trkpt lat="42.311711" lon="-8.805883">
        <ele>48.8</ele>
        <time>1970-01-01T03:49:53.000Z</time>
      </trkpt>
      <trkpt lat="42.311718" lon="-8.8059">
        <ele>48.6</ele>
        <time>1970-01-01T03:49:54.000Z</time>
      </trkpt>
      <trkpt lat="42.311722" lon="-8.805917">
        <ele>48.6</ele>
        <time>1970-01-01T03:49:55.000Z</time>
      </trkpt>
      <trkpt lat="42.311724" lon="-8.805934">
        <ele>48.6</ele>
        <time>1970-01-01T03:49:56.000Z</time>
      </trkpt>
      <trkpt lat="42.311725" lon="-8.805953">
        <ele>48.6</ele>
        <time>1970-01-01T03:49:57.000Z</time>
      </trkpt>
      <trkpt lat="42.311726" lon="-8.805976">
        <ele>48.4</ele>
        <time>1970-01-01T03:49:58.000Z</time>
      </trkpt>
      <trkpt lat="42.311732" lon="-8.805997">
        <ele>48.2</ele>
        <time>1970-01-01T03:49:59.000Z</time>
      </trkpt>
      <trkpt lat="42.311738" lon="-8.806018">
        <ele>48</ele>
        <time>1970-01-01T03:50:00.000Z</time>
      </trkpt>
      <trkpt lat="42.311745" lon="-8.806035">
        <ele>48</ele>
        <time>1970-01-01T03:50:01.000Z</time>
      </trkpt>
      <trkpt lat="42.311749" lon="-8.806051">
        <ele>47.8</ele>
        <time>1970-01-01T03:50:02.000Z</time>
      </trkpt>
      <trkpt lat="42.311753" lon="-8.806066">
        <ele>47.6</ele>
        <time>1970-01-01T03:50:03.000Z</time>
      </trkpt>
      <trkpt lat="42.311758" lon="-8.806083">
        <ele>47.4</ele>
        <time>1970-01-01T03:50:04.000Z</time>
      </trkpt>
      <trkpt lat="42.311765" lon="-8.806101">
        <ele>47</ele>
        <time>1970-01-01T03:50:05.000Z</time>
      </trkpt>
      <trkpt lat="42.311771" lon="-8.806118">
        <ele>47</ele>
        <time>1970-01-01T03:50:06.000Z</time>
      </trkpt>
      <trkpt lat="42.311778" lon="-8.806136">
        <ele>46.8</ele>
        <time>1970-01-01T03:50:07.000Z</time>
      </trkpt>
      <trkpt lat="42.311784" lon="-8.806158">
        <ele>46.6</ele>
        <time>1970-01-01T03:50:08.000Z</time>
      </trkpt>
      <trkpt lat="42.311788" lon="-8.806177">
        <ele>46.6</ele>
        <time>1970-01-01T03:50:09.000Z</time>
      </trkpt>
      <trkpt lat="42.311791" lon="-8.806193">
        <ele>46.6</ele>
        <time>1970-01-01T03:50:10.000Z</time>
      </trkpt>
      <trkpt lat="42.311794" lon="-8.806213">
        <ele>46.6</ele>
        <time>1970-01-01T03:50:11.000Z</time>
      </trkpt>
      <trkpt lat="42.311797" lon="-8.806234">
        <ele>46.6</ele>
        <time>1970-01-01T03:50:12.000Z</time>
      </trkpt>
      <trkpt lat="42.311803" lon="-8.806257">
        <ele>46.6</ele>
        <time>1970-01-01T03:50:13.000Z</time>
      </trkpt>
      <trkpt lat="42.311807" lon="-8.806283">
        <ele>46.6</ele>
        <time>1970-01-01T03:50:14.000Z</time>
      </trkpt>
      <trkpt lat="42.31181" lon="-8.806304">
        <ele>46.6</ele>
        <time>1970-01-01T03:50:15.000Z</time>
      </trkpt>
      <trkpt lat="42.311813" lon="-8.806325">
        <ele>46.4</ele>
        <time>1970-01-01T03:50:16.000Z</time>
      </trkpt>
      <trkpt lat="42.311816" lon="-8.806343">
        <ele>46.6</ele>
        <time>1970-01-01T03:50:17.000Z</time>
      </trkpt>
      <trkpt lat="42.311818" lon="-8.806364">
        <ele>46.4</ele>
        <time>1970-01-01T03:50:18.000Z</time>
      </trkpt>
      <trkpt lat="42.311823" lon="-8.806378">
        <ele>46.2</ele>
        <time>1970-01-01T03:50:19.000Z</time>
      </trkpt>
      <trkpt lat="42.311829" lon="-8.806394">
        <ele>46.2</ele>
        <time>1970-01-01T03:50:20.000Z</time>
      </trkpt>
      <trkpt lat="42.311833" lon="-8.806408">
        <ele>46.2</ele>
        <time>1970-01-01T03:50:21.000Z</time>
      </trkpt>
      <trkpt lat="42.311838" lon="-8.806413">
        <ele>46.2</ele>
        <time>1970-01-01T03:50:22.000Z</time>
      </trkpt>
      <trkpt lat="42.311843" lon="-8.806427">
        <ele>46.2</ele>
        <time>1970-01-01T03:50:23.000Z</time>
      </trkpt>
      <trkpt lat="42.311847" lon="-8.806442">
        <ele>46.2</ele>
        <time>1970-01-01T03:50:24.000Z</time>
      </trkpt>
      <trkpt lat="42.311849" lon="-8.806458">
        <ele>46.4</ele>
        <time>1970-01-01T03:50:25.000Z</time>
      </trkpt>
      <trkpt lat="42.31185" lon="-8.806474">
        <ele>46.4</ele>
        <time>1970-01-01T03:50:26.000Z</time>
      </trkpt>
      <trkpt lat="42.311848" lon="-8.806483">
        <ele>46.6</ele>
        <time>1970-01-01T03:50:27.000Z</time>
      </trkpt>
      <trkpt lat="42.311848" lon="-8.806499">
        <ele>46.6</ele>
        <time>1970-01-01T03:50:28.000Z</time>
      </trkpt>
      <trkpt lat="42.311851" lon="-8.80652">
        <ele>46.8</ele>
        <time>1970-01-01T03:50:29.000Z</time>
      </trkpt>
      <trkpt lat="42.311852" lon="-8.806545">
        <ele>46.6</ele>
        <time>1970-01-01T03:50:30.000Z</time>
      </trkpt>
      <trkpt lat="42.311853" lon="-8.806568">
        <ele>46.6</ele>
        <time>1970-01-01T03:50:31.000Z</time>
      </trkpt>
      <trkpt lat="42.311856" lon="-8.80659">
        <ele>46.4</ele>
        <time>1970-01-01T03:50:32.000Z</time>
      </trkpt>
      <trkpt lat="42.311858" lon="-8.806607">
        <ele>46.2</ele>
        <time>1970-01-01T03:50:33.000Z</time>
      </trkpt>
      <trkpt lat="42.311863" lon="-8.80662">
        <ele>45.8</ele>
        <time>1970-01-01T03:50:34.000Z</time>
      </trkpt>
      <trkpt lat="42.311867" lon="-8.806631">
        <ele>45.8</ele>
        <time>1970-01-01T03:50:35.000Z</time>
      </trkpt>
      <trkpt lat="42.311872" lon="-8.806647">
        <ele>45.6</ele>
        <time>1970-01-01T03:50:36.000Z</time>
      </trkpt>
      <trkpt lat="42.311878" lon="-8.806671">
        <ele>45.4</ele>
        <time>1970-01-01T03:50:37.000Z</time>
      </trkpt>
      <trkpt lat="42.311882" lon="-8.806692">
        <ele>45.4</ele>
        <time>1970-01-01T03:50:38.000Z</time>
      </trkpt>
      <trkpt lat="42.311886" lon="-8.806712">
        <ele>45.2</ele>
        <time>1970-01-01T03:50:39.000Z</time>
      </trkpt>
      <trkpt lat="42.311888" lon="-8.806727">
        <ele>45</ele>
        <time>1970-01-01T03:50:40.000Z</time>
      </trkpt>
      <trkpt lat="42.311891" lon="-8.806743">
        <ele>44.8</ele>
        <time>1970-01-01T03:50:41.000Z</time>
      </trkpt>
      <trkpt lat="42.311893" lon="-8.806758">
        <ele>44.8</ele>
        <time>1970-01-01T03:50:42.000Z</time>
      </trkpt>
      <trkpt lat="42.311896" lon="-8.806773">
        <ele>44.6</ele>
        <time>1970-01-01T03:50:43.000Z</time>
      </trkpt>
      <trkpt lat="42.311901" lon="-8.80679">
        <ele>44.6</ele>
        <time>1970-01-01T03:50:44.000Z</time>
      </trkpt>
      <trkpt lat="42.311906" lon="-8.806808">
        <ele>44.4</ele>
        <time>1970-01-01T03:50:45.000Z</time>
      </trkpt>
      <trkpt lat="42.31191" lon="-8.806826">
        <ele>44.4</ele>
        <time>1970-01-01T03:50:46.000Z</time>
      </trkpt>
      <trkpt lat="42.311916" lon="-8.806842">
        <ele>44.4</ele>
        <time>1970-01-01T03:50:47.000Z</time>
      </trkpt>
      <trkpt lat="42.311921" lon="-8.806859">
        <ele>44.4</ele>
        <time>1970-01-01T03:50:48.000Z</time>
      </trkpt>
      <trkpt lat="42.311927" lon="-8.806872">
        <ele>44.4</ele>
        <time>1970-01-01T03:50:49.000Z</time>
      </trkpt>
      <trkpt lat="42.311933" lon="-8.806888">
        <ele>44.4</ele>
        <time>1970-01-01T03:50:50.000Z</time>
      </trkpt>
      <trkpt lat="42.311942" lon="-8.806912">
        <ele>44.4</ele>
        <time>1970-01-01T03:50:51.000Z</time>
      </trkpt>
      <trkpt lat="42.311949" lon="-8.806934">
        <ele>44.6</ele>
        <time>1970-01-01T03:50:52.000Z</time>
      </trkpt>
      <trkpt lat="42.311957" lon="-8.806949">
        <ele>44.6</ele>
        <time>1970-01-01T03:50:53.000Z</time>
      </trkpt>
      <trkpt lat="42.311964" lon="-8.806963">
        <ele>44.6</ele>
        <time>1970-01-01T03:50:54.000Z</time>
      </trkpt>
      <trkpt lat="42.311971" lon="-8.806976">
        <ele>44.6</ele>
        <time>1970-01-01T03:50:55.000Z</time>
      </trkpt>
      <trkpt lat="42.311977" lon="-8.806989">
        <ele>44.6</ele>
        <time>1970-01-01T03:50:56.000Z</time>
      </trkpt>
      <trkpt lat="42.311982" lon="-8.807005">
        <ele>44.4</ele>
        <time>1970-01-01T03:50:57.000Z</time>
      </trkpt>
      <trkpt lat="42.311987" lon="-8.807023">
        <ele>44.4</ele>
        <time>1970-01-01T03:50:58.000Z</time>
      </trkpt>
      <trkpt lat="42.311992" lon="-8.807041">
        <ele>44.4</ele>
        <time>1970-01-01T03:50:59.000Z</time>
      </trkpt>
      <trkpt lat="42.311997" lon="-8.807053">
        <ele>44.4</ele>
        <time>1970-01-01T03:51:00.000Z</time>
      </trkpt>
      <trkpt lat="42.312004" lon="-8.807072">
        <ele>44.2</ele>
        <time>1970-01-01T03:51:01.000Z</time>
      </trkpt>
      <trkpt lat="42.312013" lon="-8.807088">
        <ele>44.2</ele>
        <time>1970-01-01T03:51:02.000Z</time>
      </trkpt>
      <trkpt lat="42.312023" lon="-8.807113">
        <ele>44.2</ele>
        <time>1970-01-01T03:51:03.000Z</time>
      </trkpt>
      <trkpt lat="42.312034" lon="-8.807129">
        <ele>44.2</ele>
        <time>1970-01-01T03:51:04.000Z</time>
      </trkpt>
      <trkpt lat="42.312041" lon="-8.807148">
        <ele>44</ele>
        <time>1970-01-01T03:51:05.000Z</time>
      </trkpt>
      <trkpt lat="42.312047" lon="-8.807163">
        <ele>44</ele>
        <time>1970-01-01T03:51:06.000Z</time>
      </trkpt>
      <trkpt lat="42.312052" lon="-8.807178">
        <ele>43.8</ele>
        <time>1970-01-01T03:51:07.000Z</time>
      </trkpt>
      <trkpt lat="42.312059" lon="-8.807191">
        <ele>43.4</ele>
        <time>1970-01-01T03:51:08.000Z</time>
      </trkpt>
      <trkpt lat="42.312067" lon="-8.807206">
        <ele>43.2</ele>
        <time>1970-01-01T03:51:09.000Z</time>
      </trkpt>
      <trkpt lat="42.312075" lon="-8.807223">
        <ele>43.2</ele>
        <time>1970-01-01T03:51:10.000Z</time>
      </trkpt>
      <trkpt lat="42.31208" lon="-8.80724">
        <ele>43.2</ele>
        <time>1970-01-01T03:51:11.000Z</time>
      </trkpt>
      <trkpt lat="42.312081" lon="-8.807251">
        <ele>43.2</ele>
        <time>1970-01-01T03:51:12.000Z</time>
      </trkpt>
      <trkpt lat="42.312081" lon="-8.807268">
        <ele>43.4</ele>
        <time>1970-01-01T03:51:13.000Z</time>
      </trkpt>
      <trkpt lat="42.312081" lon="-8.807283">
        <ele>43.4</ele>
        <time>1970-01-01T03:51:14.000Z</time>
      </trkpt>
      <trkpt lat="42.312084" lon="-8.807302">
        <ele>43.4</ele>
        <time>1970-01-01T03:51:15.000Z</time>
      </trkpt>
      <trkpt lat="42.312088" lon="-8.807315">
        <ele>43.4</ele>
        <time>1970-01-01T03:51:16.000Z</time>
      </trkpt>
      <trkpt lat="42.312094" lon="-8.807338">
        <ele>43.4</ele>
        <time>1970-01-01T03:51:17.000Z</time>
      </trkpt>
      <trkpt lat="42.312101" lon="-8.80736">
        <ele>43.4</ele>
        <time>1970-01-01T03:51:18.000Z</time>
      </trkpt>
      <trkpt lat="42.31211" lon="-8.807385">
        <ele>43.4</ele>
        <time>1970-01-01T03:51:19.000Z</time>
      </trkpt>
      <trkpt lat="42.312118" lon="-8.807404">
        <ele>43.2</ele>
        <time>1970-01-01T03:51:20.000Z</time>
      </trkpt>
      <trkpt lat="42.312122" lon="-8.807424">
        <ele>43.2</ele>
        <time>1970-01-01T03:51:21.000Z</time>
      </trkpt>
      <trkpt lat="42.312124" lon="-8.807438">
        <ele>43.2</ele>
        <time>1970-01-01T03:51:22.000Z</time>
      </trkpt>
      <trkpt lat="42.312128" lon="-8.807456">
        <ele>43</ele>
        <time>1970-01-01T03:51:23.000Z</time>
      </trkpt>
      <trkpt lat="42.312132" lon="-8.80747">
        <ele>43</ele>
        <time>1970-01-01T03:51:24.000Z</time>
      </trkpt>
      <trkpt lat="42.312138" lon="-8.807486">
        <ele>42.6</ele>
        <time>1970-01-01T03:51:25.000Z</time>
      </trkpt>
      <trkpt lat="42.312144" lon="-8.807503">
        <ele>42.6</ele>
        <time>1970-01-01T03:51:26.000Z</time>
      </trkpt>
      <trkpt lat="42.312149" lon="-8.807518">
        <ele>42.4</ele>
        <time>1970-01-01T03:51:27.000Z</time>
      </trkpt>
      <trkpt lat="42.312154" lon="-8.807532">
        <ele>42.4</ele>
        <time>1970-01-01T03:51:28.000Z</time>
      </trkpt>
      <trkpt lat="42.312158" lon="-8.807549">
        <ele>42.4</ele>
        <time>1970-01-01T03:51:29.000Z</time>
      </trkpt>
      <trkpt lat="42.312161" lon="-8.807564">
        <ele>42.2</ele>
        <time>1970-01-01T03:51:30.000Z</time>
      </trkpt>
      <trkpt lat="42.312165" lon="-8.807575">
        <ele>42.2</ele>
        <time>1970-01-01T03:51:31.000Z</time>
      </trkpt>
      <trkpt lat="42.31217" lon="-8.807587">
        <ele>42.2</ele>
        <time>1970-01-01T03:51:32.000Z</time>
      </trkpt>
      <trkpt lat="42.312175" lon="-8.807602">
        <ele>42.2</ele>
        <time>1970-01-01T03:51:33.000Z</time>
      </trkpt>
      <trkpt lat="42.312177" lon="-8.807619">
        <ele>42.2</ele>
        <time>1970-01-01T03:51:34.000Z</time>
      </trkpt>
      <trkpt lat="42.312179" lon="-8.807637">
        <ele>42.2</ele>
        <time>1970-01-01T03:51:35.000Z</time>
      </trkpt>
      <trkpt lat="42.312181" lon="-8.807658">
        <ele>42.2</ele>
        <time>1970-01-01T03:51:36.000Z</time>
      </trkpt>
      <trkpt lat="42.312183" lon="-8.807676">
        <ele>42.2</ele>
        <time>1970-01-01T03:51:37.000Z</time>
      </trkpt>
      <trkpt lat="42.312186" lon="-8.807696">
        <ele>42.2</ele>
        <time>1970-01-01T03:51:38.000Z</time>
      </trkpt>
      <trkpt lat="42.312192" lon="-8.807714">
        <ele>42.2</ele>
        <time>1970-01-01T03:51:39.000Z</time>
      </trkpt>
      <trkpt lat="42.312192" lon="-8.807738">
        <ele>42</ele>
        <time>1970-01-01T03:51:40.000Z</time>
      </trkpt>
      <trkpt lat="42.312196" lon="-8.80776">
        <ele>42</ele>
        <time>1970-01-01T03:51:41.000Z</time>
      </trkpt>
      <trkpt lat="42.312203" lon="-8.807784">
        <ele>42</ele>
        <time>1970-01-01T03:51:42.000Z</time>
      </trkpt>
      <trkpt lat="42.31221" lon="-8.807803">
        <ele>42</ele>
        <time>1970-01-01T03:51:43.000Z</time>
      </trkpt>
      <trkpt lat="42.312213" lon="-8.80782">
        <ele>42</ele>
        <time>1970-01-01T03:51:44.000Z</time>
      </trkpt>
      <trkpt lat="42.312217" lon="-8.807837">
        <ele>42</ele>
        <time>1970-01-01T03:51:45.000Z</time>
      </trkpt>
      <trkpt lat="42.312222" lon="-8.807853">
        <ele>42</ele>
        <time>1970-01-01T03:51:46.000Z</time>
      </trkpt>
      <trkpt lat="42.312228" lon="-8.807871">
        <ele>42</ele>
        <time>1970-01-01T03:51:47.000Z</time>
      </trkpt>
      <trkpt lat="42.312235" lon="-8.80789">
        <ele>42</ele>
        <time>1970-01-01T03:51:48.000Z</time>
      </trkpt>
      <trkpt lat="42.312245" lon="-8.807908">
        <ele>41.8</ele>
        <time>1970-01-01T03:51:49.000Z</time>
      </trkpt>
      <trkpt lat="42.312252" lon="-8.807921">
        <ele>41.6</ele>
        <time>1970-01-01T03:51:50.000Z</time>
      </trkpt>
      <trkpt lat="42.31226" lon="-8.807934">
        <ele>41.4</ele>
        <time>1970-01-01T03:51:51.000Z</time>
      </trkpt>
      <trkpt lat="42.312267" lon="-8.807949">
        <ele>41.4</ele>
        <time>1970-01-01T03:51:52.000Z</time>
      </trkpt>
      <trkpt lat="42.312275" lon="-8.807964">
        <ele>41.2</ele>
        <time>1970-01-01T03:51:53.000Z</time>
      </trkpt>
      <trkpt lat="42.312283" lon="-8.807978">
        <ele>41.2</ele>
        <time>1970-01-01T03:51:54.000Z</time>
      </trkpt>
      <trkpt lat="42.312291" lon="-8.80799">
        <ele>41.2</ele>
        <time>1970-01-01T03:51:55.000Z</time>
      </trkpt>
      <trkpt lat="42.312298" lon="-8.807999">
        <ele>41.2</ele>
        <time>1970-01-01T03:51:56.000Z</time>
      </trkpt>
      <trkpt lat="42.312306" lon="-8.80801">
        <ele>41.2</ele>
        <time>1970-01-01T03:51:57.000Z</time>
      </trkpt>
      <trkpt lat="42.312314" lon="-8.808018">
        <ele>41</ele>
        <time>1970-01-01T03:51:58.000Z</time>
      </trkpt>
      <trkpt lat="42.312319" lon="-8.808025">
        <ele>40.8</ele>
        <time>1970-01-01T03:51:59.000Z</time>
      </trkpt>
      <trkpt lat="42.312322" lon="-8.808035">
        <ele>40.6</ele>
        <time>1970-01-01T03:52:00.000Z</time>
      </trkpt>
      <trkpt lat="42.31233" lon="-8.808045">
        <ele>40.6</ele>
        <time>1970-01-01T03:52:01.000Z</time>
      </trkpt>
      <trkpt lat="42.312339" lon="-8.808054">
        <ele>40.6</ele>
        <time>1970-01-01T03:52:02.000Z</time>
      </trkpt>
      <trkpt lat="42.312346" lon="-8.808062">
        <ele>40.6</ele>
        <time>1970-01-01T03:52:03.000Z</time>
      </trkpt>
      <trkpt lat="42.312355" lon="-8.808069">
        <ele>40.6</ele>
        <time>1970-01-01T03:52:04.000Z</time>
      </trkpt>
      <trkpt lat="42.312367" lon="-8.808082">
        <ele>40.4</ele>
        <time>1970-01-01T03:52:05.000Z</time>
      </trkpt>
      <trkpt lat="42.312381" lon="-8.808094">
        <ele>40.4</ele>
        <time>1970-01-01T03:52:06.000Z</time>
      </trkpt>
      <trkpt lat="42.312392" lon="-8.808114">
        <ele>40.4</ele>
        <time>1970-01-01T03:52:07.000Z</time>
      </trkpt>
      <trkpt lat="42.312403" lon="-8.80813">
        <ele>40</ele>
        <time>1970-01-01T03:52:08.000Z</time>
      </trkpt>
      <trkpt lat="42.312411" lon="-8.808149">
        <ele>39.8</ele>
        <time>1970-01-01T03:52:09.000Z</time>
      </trkpt>
      <trkpt lat="42.312421" lon="-8.808165">
        <ele>39.6</ele>
        <time>1970-01-01T03:52:10.000Z</time>
      </trkpt>
      <trkpt lat="42.312433" lon="-8.808175">
        <ele>39.4</ele>
        <time>1970-01-01T03:52:11.000Z</time>
      </trkpt>
      <trkpt lat="42.31245" lon="-8.808181">
        <ele>39.2</ele>
        <time>1970-01-01T03:52:12.000Z</time>
      </trkpt>
      <trkpt lat="42.312464" lon="-8.808191">
        <ele>39</ele>
        <time>1970-01-01T03:52:13.000Z</time>
      </trkpt>
      <trkpt lat="42.312482" lon="-8.808195">
        <ele>38.8</ele>
        <time>1970-01-01T03:52:14.000Z</time>
      </trkpt>
      <trkpt lat="42.312499" lon="-8.808198">
        <ele>38.6</ele>
        <time>1970-01-01T03:52:15.000Z</time>
      </trkpt>
      <trkpt lat="42.312517" lon="-8.808205">
        <ele>38.4</ele>
        <time>1970-01-01T03:52:16.000Z</time>
      </trkpt>
      <trkpt lat="42.312538" lon="-8.808208">
        <ele>38.4</ele>
        <time>1970-01-01T03:52:17.000Z</time>
      </trkpt>
      <trkpt lat="42.312551" lon="-8.808213">
        <ele>38.4</ele>
        <time>1970-01-01T03:52:18.000Z</time>
      </trkpt>
      <trkpt lat="42.312563" lon="-8.808217">
        <ele>38.4</ele>
        <time>1970-01-01T03:52:19.000Z</time>
      </trkpt>
      <trkpt lat="42.312576" lon="-8.808222">
        <ele>38.4</ele>
        <time>1970-01-01T03:52:20.000Z</time>
      </trkpt>
      <trkpt lat="42.312586" lon="-8.808233">
        <ele>38.4</ele>
        <time>1970-01-01T03:52:21.000Z</time>
      </trkpt>
      <trkpt lat="42.312599" lon="-8.808239">
        <ele>38.4</ele>
        <time>1970-01-01T03:52:22.000Z</time>
      </trkpt>
      <trkpt lat="42.312616" lon="-8.808245">
        <ele>38.4</ele>
        <time>1970-01-01T03:52:23.000Z</time>
      </trkpt>
      <trkpt lat="42.312636" lon="-8.808256">
        <ele>38.4</ele>
        <time>1970-01-01T03:52:24.000Z</time>
      </trkpt>
      <trkpt lat="42.312653" lon="-8.808262">
        <ele>38.6</ele>
        <time>1970-01-01T03:52:25.000Z</time>
      </trkpt>
      <trkpt lat="42.31267" lon="-8.808267">
        <ele>38.6</ele>
        <time>1970-01-01T03:52:26.000Z</time>
      </trkpt>
      <trkpt lat="42.312688" lon="-8.808272">
        <ele>38.6</ele>
        <time>1970-01-01T03:52:27.000Z</time>
      </trkpt>
      <trkpt lat="42.312706" lon="-8.808279">
        <ele>38.8</ele>
        <time>1970-01-01T03:52:28.000Z</time>
      </trkpt>
      <trkpt lat="42.312718" lon="-8.808285">
        <ele>38.8</ele>
        <time>1970-01-01T03:52:29.000Z</time>
      </trkpt>
      <trkpt lat="42.312732" lon="-8.808289">
        <ele>38.8</ele>
        <time>1970-01-01T03:52:30.000Z</time>
      </trkpt>
      <trkpt lat="42.312747" lon="-8.808291">
        <ele>38.8</ele>
        <time>1970-01-01T03:52:31.000Z</time>
      </trkpt>
      <trkpt lat="42.312762" lon="-8.808296">
        <ele>38.8</ele>
        <time>1970-01-01T03:52:32.000Z</time>
      </trkpt>
      <trkpt lat="42.312774" lon="-8.808307">
        <ele>38.8</ele>
        <time>1970-01-01T03:52:33.000Z</time>
      </trkpt>
      <trkpt lat="42.312786" lon="-8.808315">
        <ele>38.8</ele>
        <time>1970-01-01T03:52:34.000Z</time>
      </trkpt>
      <trkpt lat="42.312798" lon="-8.808323">
        <ele>38.8</ele>
        <time>1970-01-01T03:52:35.000Z</time>
      </trkpt>
      <trkpt lat="42.312809" lon="-8.808334">
        <ele>39</ele>
        <time>1970-01-01T03:52:36.000Z</time>
      </trkpt>
      <trkpt lat="42.312822" lon="-8.808334">
        <ele>39.2</ele>
        <time>1970-01-01T03:52:37.000Z</time>
      </trkpt>
      <trkpt lat="42.312831" lon="-8.808351">
        <ele>39.2</ele>
        <time>1970-01-01T03:52:38.000Z</time>
      </trkpt>
      <trkpt lat="42.312841" lon="-8.808367">
        <ele>39.4</ele>
        <time>1970-01-01T03:52:39.000Z</time>
      </trkpt>
      <trkpt lat="42.312851" lon="-8.808378">
        <ele>39.6</ele>
        <time>1970-01-01T03:52:40.000Z</time>
      </trkpt>
      <trkpt lat="42.312863" lon="-8.808383">
        <ele>39.6</ele>
        <time>1970-01-01T03:52:41.000Z</time>
      </trkpt>
      <trkpt lat="42.312875" lon="-8.808388">
        <ele>39.8</ele>
        <time>1970-01-01T03:52:42.000Z</time>
      </trkpt>
      <trkpt lat="42.312889" lon="-8.808393">
        <ele>40</ele>
        <time>1970-01-01T03:52:43.000Z</time>
      </trkpt>
      <trkpt lat="42.312905" lon="-8.808395">
        <ele>40.2</ele>
        <time>1970-01-01T03:52:44.000Z</time>
      </trkpt>
      <trkpt lat="42.312921" lon="-8.808399">
        <ele>40.2</ele>
        <time>1970-01-01T03:52:45.000Z</time>
      </trkpt>
      <trkpt lat="42.312935" lon="-8.8084">
        <ele>40.4</ele>
        <time>1970-01-01T03:52:46.000Z</time>
      </trkpt>
      <trkpt lat="42.312949" lon="-8.808397">
        <ele>40.4</ele>
        <time>1970-01-01T03:52:47.000Z</time>
      </trkpt>
      <trkpt lat="42.312964" lon="-8.808396">
        <ele>40.4</ele>
        <time>1970-01-01T03:52:48.000Z</time>
      </trkpt>
      <trkpt lat="42.312979" lon="-8.808394">
        <ele>40.6</ele>
        <time>1970-01-01T03:52:49.000Z</time>
      </trkpt>
      <trkpt lat="42.312994" lon="-8.808391">
        <ele>40.8</ele>
        <time>1970-01-01T03:52:50.000Z</time>
      </trkpt>
      <trkpt lat="42.313007" lon="-8.80839">
        <ele>41</ele>
        <time>1970-01-01T03:52:51.000Z</time>
      </trkpt>
      <trkpt lat="42.31302" lon="-8.808389">
        <ele>41.2</ele>
        <time>1970-01-01T03:52:52.000Z</time>
      </trkpt>
      <trkpt lat="42.313032" lon="-8.808391">
        <ele>41.4</ele>
        <time>1970-01-01T03:52:53.000Z</time>
      </trkpt>
      <trkpt lat="42.313043" lon="-8.808392">
        <ele>41.4</ele>
        <time>1970-01-01T03:52:54.000Z</time>
      </trkpt>
      <trkpt lat="42.313055" lon="-8.808398">
        <ele>41.4</ele>
        <time>1970-01-01T03:52:55.000Z</time>
      </trkpt>
      <trkpt lat="42.313069" lon="-8.808404">
        <ele>41.4</ele>
        <time>1970-01-01T03:52:56.000Z</time>
      </trkpt>
      <trkpt lat="42.313083" lon="-8.808409">
        <ele>41.4</ele>
        <time>1970-01-01T03:52:57.000Z</time>
      </trkpt>
      <trkpt lat="42.313097" lon="-8.808413">
        <ele>41.4</ele>
        <time>1970-01-01T03:52:58.000Z</time>
      </trkpt>
      <trkpt lat="42.313108" lon="-8.808416">
        <ele>41.4</ele>
        <time>1970-01-01T03:52:59.000Z</time>
      </trkpt>
      <trkpt lat="42.313118" lon="-8.80842">
        <ele>41.4</ele>
        <time>1970-01-01T03:53:00.000Z</time>
      </trkpt>
      <trkpt lat="42.313129" lon="-8.808424">
        <ele>41.4</ele>
        <time>1970-01-01T03:53:01.000Z</time>
      </trkpt>
      <trkpt lat="42.313139" lon="-8.808424">
        <ele>41.4</ele>
        <time>1970-01-01T03:53:02.000Z</time>
      </trkpt>
      <trkpt lat="42.31315" lon="-8.808424">
        <ele>41.4</ele>
        <time>1970-01-01T03:53:03.000Z</time>
      </trkpt>
      <trkpt lat="42.31316" lon="-8.808424">
        <ele>41.4</ele>
        <time>1970-01-01T03:53:04.000Z</time>
      </trkpt>
      <trkpt lat="42.313173" lon="-8.808424">
        <ele>41.4</ele>
        <time>1970-01-01T03:53:05.000Z</time>
      </trkpt>
      <trkpt lat="42.313189" lon="-8.808421">
        <ele>41.4</ele>
        <time>1970-01-01T03:53:06.000Z</time>
      </trkpt>
      <trkpt lat="42.313204" lon="-8.80842">
        <ele>41.4</ele>
        <time>1970-01-01T03:53:07.000Z</time>
      </trkpt>
      <trkpt lat="42.313219" lon="-8.808419">
        <ele>41.6</ele>
        <time>1970-01-01T03:53:08.000Z</time>
      </trkpt>
      <trkpt lat="42.313234" lon="-8.808418">
        <ele>41.6</ele>
        <time>1970-01-01T03:53:09.000Z</time>
      </trkpt>
      <trkpt lat="42.313248" lon="-8.808416">
        <ele>41.8</ele>
        <time>1970-01-01T03:53:10.000Z</time>
      </trkpt>
      <trkpt lat="42.313262" lon="-8.80841">
        <ele>41.6</ele>
        <time>1970-01-01T03:53:11.000Z</time>
      </trkpt>
      <trkpt lat="42.313275" lon="-8.808403">
        <ele>41.8</ele>
        <time>1970-01-01T03:53:12.000Z</time>
      </trkpt>
      <trkpt lat="42.313288" lon="-8.808392">
        <ele>41.8</ele>
        <time>1970-01-01T03:53:13.000Z</time>
      </trkpt>
      <trkpt lat="42.313301" lon="-8.808384">
        <ele>41.8</ele>
        <time>1970-01-01T03:53:14.000Z</time>
      </trkpt>
      <trkpt lat="42.313314" lon="-8.80838">
        <ele>41.8</ele>
        <time>1970-01-01T03:53:15.000Z</time>
      </trkpt>
      <trkpt lat="42.313326" lon="-8.808374">
        <ele>41.8</ele>
        <time>1970-01-01T03:53:16.000Z</time>
      </trkpt>
      <trkpt lat="42.313337" lon="-8.808367">
        <ele>42</ele>
        <time>1970-01-01T03:53:17.000Z</time>
      </trkpt>
      <trkpt lat="42.313349" lon="-8.808354">
        <ele>42</ele>
        <time>1970-01-01T03:53:18.000Z</time>
      </trkpt>
      <trkpt lat="42.313362" lon="-8.808343">
        <ele>42</ele>
        <time>1970-01-01T03:53:19.000Z</time>
      </trkpt>
      <trkpt lat="42.313375" lon="-8.808334">
        <ele>42.2</ele>
        <time>1970-01-01T03:53:20.000Z</time>
      </trkpt>
      <trkpt lat="42.313386" lon="-8.808321">
        <ele>42.2</ele>
        <time>1970-01-01T03:53:21.000Z</time>
      </trkpt>
      <trkpt lat="42.313395" lon="-8.808304">
        <ele>42.2</ele>
        <time>1970-01-01T03:53:22.000Z</time>
      </trkpt>
      <trkpt lat="42.313404" lon="-8.808289">
        <ele>42.2</ele>
        <time>1970-01-01T03:53:23.000Z</time>
      </trkpt>
      <trkpt lat="42.313414" lon="-8.808277">
        <ele>42.4</ele>
        <time>1970-01-01T03:53:24.000Z</time>
      </trkpt>
      <trkpt lat="42.313426" lon="-8.808268">
        <ele>42.6</ele>
        <time>1970-01-01T03:53:25.000Z</time>
      </trkpt>
      <trkpt lat="42.313438" lon="-8.808254">
        <ele>42.8</ele>
        <time>1970-01-01T03:53:26.000Z</time>
      </trkpt>
      <trkpt lat="42.313451" lon="-8.808241">
        <ele>42.8</ele>
        <time>1970-01-01T03:53:27.000Z</time>
      </trkpt>
      <trkpt lat="42.313463" lon="-8.808229">
        <ele>42.8</ele>
        <time>1970-01-01T03:53:28.000Z</time>
      </trkpt>
      <trkpt lat="42.313475" lon="-8.808219">
        <ele>42.8</ele>
        <time>1970-01-01T03:53:29.000Z</time>
      </trkpt>
      <trkpt lat="42.313488" lon="-8.80821">
        <ele>42.8</ele>
        <time>1970-01-01T03:53:30.000Z</time>
      </trkpt>
      <trkpt lat="42.313501" lon="-8.808204">
        <ele>43</ele>
        <time>1970-01-01T03:53:31.000Z</time>
      </trkpt>
      <trkpt lat="42.313515" lon="-8.808199">
        <ele>43</ele>
        <time>1970-01-01T03:53:32.000Z</time>
      </trkpt>
      <trkpt lat="42.313527" lon="-8.808191">
        <ele>43</ele>
        <time>1970-01-01T03:53:33.000Z</time>
      </trkpt>
      <trkpt lat="42.313539" lon="-8.808179">
        <ele>43</ele>
        <time>1970-01-01T03:53:34.000Z</time>
      </trkpt>
      <trkpt lat="42.31355" lon="-8.808168">
        <ele>43</ele>
        <time>1970-01-01T03:53:35.000Z</time>
      </trkpt>
      <trkpt lat="42.31356" lon="-8.80816">
        <ele>43.2</ele>
        <time>1970-01-01T03:53:36.000Z</time>
      </trkpt>
      <trkpt lat="42.313569" lon="-8.808154">
        <ele>43.2</ele>
        <time>1970-01-01T03:53:37.000Z</time>
      </trkpt>
      <trkpt lat="42.31358" lon="-8.808151">
        <ele>43.2</ele>
        <time>1970-01-01T03:53:38.000Z</time>
      </trkpt>
      <trkpt lat="42.313592" lon="-8.808145">
        <ele>43.2</ele>
        <time>1970-01-01T03:53:39.000Z</time>
      </trkpt>
      <trkpt lat="42.313603" lon="-8.808142">
        <ele>43.2</ele>
        <time>1970-01-01T03:53:40.000Z</time>
      </trkpt>
      <trkpt lat="42.313615" lon="-8.80814">
        <ele>43.2</ele>
        <time>1970-01-01T03:53:41.000Z</time>
      </trkpt>
      <trkpt lat="42.313627" lon="-8.808135">
        <ele>43.2</ele>
        <time>1970-01-01T03:53:42.000Z</time>
      </trkpt>
      <trkpt lat="42.313638" lon="-8.808129">
        <ele>43.2</ele>
        <time>1970-01-01T03:53:43.000Z</time>
      </trkpt>
      <trkpt lat="42.31365" lon="-8.808125">
        <ele>43.4</ele>
        <time>1970-01-01T03:53:44.000Z</time>
      </trkpt>
      <trkpt lat="42.31366" lon="-8.808117">
        <ele>43.4</ele>
        <time>1970-01-01T03:53:45.000Z</time>
      </trkpt>
      <trkpt lat="42.313666" lon="-8.808113">
        <ele>43.4</ele>
        <time>1970-01-01T03:53:46.000Z</time>
      </trkpt>
      <trkpt lat="42.313669" lon="-8.808107">
        <ele>43.4</ele>
        <time>1970-01-01T03:53:47.000Z</time>
      </trkpt>
      <trkpt lat="42.31367" lon="-8.808106">
        <ele>43.6</ele>
        <time>1970-01-01T03:53:48.000Z</time>
      </trkpt>
      <trkpt lat="42.313672" lon="-8.808109">
        <ele>43.6</ele>
        <time>1970-01-01T03:53:49.000Z</time>
      </trkpt>
      <trkpt lat="42.313673" lon="-8.808111">
        <ele>43.6</ele>
        <time>1970-01-01T03:53:50.000Z</time>
      </trkpt>
      <trkpt lat="42.313675" lon="-8.808113">
        <ele>43.6</ele>
        <time>1970-01-01T03:53:51.000Z</time>
      </trkpt>
      <trkpt lat="42.313677" lon="-8.808114">
        <ele>43.6</ele>
        <time>1970-01-01T03:53:52.000Z</time>
      </trkpt>
      <trkpt lat="42.313676" lon="-8.808112">
        <ele>43.4</ele>
        <time>1970-01-01T03:53:53.000Z</time>
      </trkpt>
      <trkpt lat="42.313673" lon="-8.808109">
        <ele>43.4</ele>
        <time>1970-01-01T03:53:54.000Z</time>
      </trkpt>
      <trkpt lat="42.313672" lon="-8.808109">
        <ele>43.4</ele>
        <time>1970-01-01T03:53:55.000Z</time>
      </trkpt>
      <trkpt lat="42.313671" lon="-8.80811">
        <ele>43.6</ele>
        <time>1970-01-01T03:53:56.000Z</time>
      </trkpt>
      <trkpt lat="42.313671" lon="-8.808113">
        <ele>43.4</ele>
        <time>1970-01-01T03:53:57.000Z</time>
      </trkpt>
      <trkpt lat="42.31367" lon="-8.808117">
        <ele>43.6</ele>
        <time>1970-01-01T03:53:58.000Z</time>
      </trkpt>
      <trkpt lat="42.313668" lon="-8.808118">
        <ele>43.6</ele>
        <time>1970-01-01T03:53:59.000Z</time>
      </trkpt>
      <trkpt lat="42.313668" lon="-8.808118">
        <ele>43.6</ele>
        <time>1970-01-01T03:54:00.000Z</time>
      </trkpt>
      <trkpt lat="42.313668" lon="-8.808118">
        <ele>43.8</ele>
        <time>1970-01-01T03:54:01.000Z</time>
      </trkpt>
      <trkpt lat="42.313678" lon="-8.808062">
        <ele>43.6</ele>
        <time>1970-01-01T03:55:36.000Z</time>
      </trkpt>
      <trkpt lat="42.313688" lon="-8.808071">
        <ele>43.6</ele>
        <time>1970-01-01T03:55:37.000Z</time>
      </trkpt>
      <trkpt lat="42.3137" lon="-8.808074">
        <ele>43.6</ele>
        <time>1970-01-01T03:55:38.000Z</time>
      </trkpt>
      <trkpt lat="42.313714" lon="-8.808069">
        <ele>43.4</ele>
        <time>1970-01-01T03:55:39.000Z</time>
      </trkpt>
      <trkpt lat="42.313726" lon="-8.808057">
        <ele>43.4</ele>
        <time>1970-01-01T03:55:40.000Z</time>
      </trkpt>
      <trkpt lat="42.313738" lon="-8.808043">
        <ele>43.2</ele>
        <time>1970-01-01T03:55:41.000Z</time>
      </trkpt>
      <trkpt lat="42.31375" lon="-8.808031">
        <ele>43.4</ele>
        <time>1970-01-01T03:55:42.000Z</time>
      </trkpt>
      <trkpt lat="42.313766" lon="-8.808022">
        <ele>43.4</ele>
        <time>1970-01-01T03:55:43.000Z</time>
      </trkpt>
      <trkpt lat="42.313783" lon="-8.808012">
        <ele>43.4</ele>
        <time>1970-01-01T03:55:44.000Z</time>
      </trkpt>
      <trkpt lat="42.313797" lon="-8.808002">
        <ele>43.2</ele>
        <time>1970-01-01T03:55:45.000Z</time>
      </trkpt>
      <trkpt lat="42.313812" lon="-8.807999">
        <ele>43.4</ele>
        <time>1970-01-01T03:55:46.000Z</time>
      </trkpt>
      <trkpt lat="42.313828" lon="-8.807991">
        <ele>43.4</ele>
        <time>1970-01-01T03:55:47.000Z</time>
      </trkpt>
      <trkpt lat="42.31384" lon="-8.807981">
        <ele>43.6</ele>
        <time>1970-01-01T03:55:48.000Z</time>
      </trkpt>
      <trkpt lat="42.313848" lon="-8.807968">
        <ele>43.6</ele>
        <time>1970-01-01T03:55:49.000Z</time>
      </trkpt>
      <trkpt lat="42.313852" lon="-8.807956">
        <ele>43.8</ele>
        <time>1970-01-01T03:55:50.000Z</time>
      </trkpt>
      <trkpt lat="42.313854" lon="-8.807939">
        <ele>44</ele>
        <time>1970-01-01T03:55:51.000Z</time>
      </trkpt>
      <trkpt lat="42.313859" lon="-8.807927">
        <ele>44</ele>
        <time>1970-01-01T03:55:52.000Z</time>
      </trkpt>
      <trkpt lat="42.313865" lon="-8.807917">
        <ele>44</ele>
        <time>1970-01-01T03:55:53.000Z</time>
      </trkpt>
      <trkpt lat="42.313871" lon="-8.807908">
        <ele>44</ele>
        <time>1970-01-01T03:55:54.000Z</time>
      </trkpt>
      <trkpt lat="42.31388" lon="-8.8079">
        <ele>44.2</ele>
        <time>1970-01-01T03:55:55.000Z</time>
      </trkpt>
      <trkpt lat="42.313887" lon="-8.807887">
        <ele>44.4</ele>
        <time>1970-01-01T03:55:56.000Z</time>
      </trkpt>
      <trkpt lat="42.313895" lon="-8.807872">
        <ele>44.6</ele>
        <time>1970-01-01T03:55:57.000Z</time>
      </trkpt>
      <trkpt lat="42.313903" lon="-8.807863">
        <ele>44.6</ele>
        <time>1970-01-01T03:55:58.000Z</time>
      </trkpt>
      <trkpt lat="42.313912" lon="-8.807854">
        <ele>44.8</ele>
        <time>1970-01-01T03:55:59.000Z</time>
      </trkpt>
      <trkpt lat="42.313921" lon="-8.807842">
        <ele>45</ele>
        <time>1970-01-01T03:56:00.000Z</time>
      </trkpt>
      <trkpt lat="42.31393" lon="-8.807828">
        <ele>45.2</ele>
        <time>1970-01-01T03:56:01.000Z</time>
      </trkpt>
      <trkpt lat="42.313937" lon="-8.807814">
        <ele>45.6</ele>
        <time>1970-01-01T03:56:02.000Z</time>
      </trkpt>
      <trkpt lat="42.313946" lon="-8.807802">
        <ele>45.8</ele>
        <time>1970-01-01T03:56:03.000Z</time>
      </trkpt>
      <trkpt lat="42.313955" lon="-8.807787">
        <ele>46</ele>
        <time>1970-01-01T03:56:04.000Z</time>
      </trkpt>
      <trkpt lat="42.313965" lon="-8.807776">
        <ele>46</ele>
        <time>1970-01-01T03:56:05.000Z</time>
      </trkpt>
      <trkpt lat="42.313975" lon="-8.807765">
        <ele>46.2</ele>
        <time>1970-01-01T03:56:06.000Z</time>
      </trkpt>
      <trkpt lat="42.313987" lon="-8.807754">
        <ele>46.2</ele>
        <time>1970-01-01T03:56:07.000Z</time>
      </trkpt>
      <trkpt lat="42.314" lon="-8.807747">
        <ele>46.2</ele>
        <time>1970-01-01T03:56:08.000Z</time>
      </trkpt>
      <trkpt lat="42.314013" lon="-8.807743">
        <ele>46.2</ele>
        <time>1970-01-01T03:56:09.000Z</time>
      </trkpt>
      <trkpt lat="42.314024" lon="-8.807731">
        <ele>46.2</ele>
        <time>1970-01-01T03:56:10.000Z</time>
      </trkpt>
      <trkpt lat="42.314034" lon="-8.807719">
        <ele>46.2</ele>
        <time>1970-01-01T03:56:11.000Z</time>
      </trkpt>
      <trkpt lat="42.314044" lon="-8.807705">
        <ele>46.2</ele>
        <time>1970-01-01T03:56:12.000Z</time>
      </trkpt>
      <trkpt lat="42.314054" lon="-8.807696">
        <ele>46.2</ele>
        <time>1970-01-01T03:56:13.000Z</time>
      </trkpt>
      <trkpt lat="42.314064" lon="-8.807684">
        <ele>46.2</ele>
        <time>1970-01-01T03:56:14.000Z</time>
      </trkpt>
      <trkpt lat="42.314075" lon="-8.807671">
        <ele>46.4</ele>
        <time>1970-01-01T03:56:15.000Z</time>
      </trkpt>
      <trkpt lat="42.314085" lon="-8.807658">
        <ele>46.4</ele>
        <time>1970-01-01T03:56:16.000Z</time>
      </trkpt>
      <trkpt lat="42.314096" lon="-8.807647">
        <ele>46.4</ele>
        <time>1970-01-01T03:56:17.000Z</time>
      </trkpt>
      <trkpt lat="42.314106" lon="-8.807635">
        <ele>46.4</ele>
        <time>1970-01-01T03:56:18.000Z</time>
      </trkpt>
      <trkpt lat="42.314115" lon="-8.807621">
        <ele>46.6</ele>
        <time>1970-01-01T03:56:19.000Z</time>
      </trkpt>
      <trkpt lat="42.314122" lon="-8.807606">
        <ele>46.8</ele>
        <time>1970-01-01T03:56:20.000Z</time>
      </trkpt>
      <trkpt lat="42.31413" lon="-8.807596">
        <ele>47</ele>
        <time>1970-01-01T03:56:21.000Z</time>
      </trkpt>
      <trkpt lat="42.314141" lon="-8.807588">
        <ele>47</ele>
        <time>1970-01-01T03:56:22.000Z</time>
      </trkpt>
      <trkpt lat="42.314153" lon="-8.807576">
        <ele>47.2</ele>
        <time>1970-01-01T03:56:23.000Z</time>
      </trkpt>
      <trkpt lat="42.314162" lon="-8.807565">
        <ele>47.4</ele>
        <time>1970-01-01T03:56:24.000Z</time>
      </trkpt>
      <trkpt lat="42.31417" lon="-8.807553">
        <ele>47.4</ele>
        <time>1970-01-01T03:56:25.000Z</time>
      </trkpt>
      <trkpt lat="42.314179" lon="-8.807539">
        <ele>47.6</ele>
        <time>1970-01-01T03:56:26.000Z</time>
      </trkpt>
      <trkpt lat="42.31419" lon="-8.807529">
        <ele>47.6</ele>
        <time>1970-01-01T03:56:27.000Z</time>
      </trkpt>
      <trkpt lat="42.3142" lon="-8.807522">
        <ele>47.6</ele>
        <time>1970-01-01T03:56:28.000Z</time>
      </trkpt>
      <trkpt lat="42.314209" lon="-8.807511">
        <ele>47.8</ele>
        <time>1970-01-01T03:56:29.000Z</time>
      </trkpt>
      <trkpt lat="42.314219" lon="-8.807502">
        <ele>47.8</ele>
        <time>1970-01-01T03:56:30.000Z</time>
      </trkpt>
      <trkpt lat="42.31423" lon="-8.80749">
        <ele>48</ele>
        <time>1970-01-01T03:56:31.000Z</time>
      </trkpt>
      <trkpt lat="42.31424" lon="-8.807485">
        <ele>48</ele>
        <time>1970-01-01T03:56:32.000Z</time>
      </trkpt>
      <trkpt lat="42.31425" lon="-8.807482">
        <ele>48</ele>
        <time>1970-01-01T03:56:33.000Z</time>
      </trkpt>
      <trkpt lat="42.314259" lon="-8.807478">
        <ele>48.2</ele>
        <time>1970-01-01T03:56:34.000Z</time>
      </trkpt>
      <trkpt lat="42.314268" lon="-8.807477">
        <ele>48.2</ele>
        <time>1970-01-01T03:56:35.000Z</time>
      </trkpt>
      <trkpt lat="42.314279" lon="-8.807477">
        <ele>48.2</ele>
        <time>1970-01-01T03:56:36.000Z</time>
      </trkpt>
      <trkpt lat="42.314294" lon="-8.807473">
        <ele>48.2</ele>
        <time>1970-01-01T03:56:37.000Z</time>
      </trkpt>
      <trkpt lat="42.314308" lon="-8.807465">
        <ele>48.2</ele>
        <time>1970-01-01T03:56:38.000Z</time>
      </trkpt>
      <trkpt lat="42.314319" lon="-8.807453">
        <ele>48.4</ele>
        <time>1970-01-01T03:56:39.000Z</time>
      </trkpt>
      <trkpt lat="42.314333" lon="-8.807443">
        <ele>48.4</ele>
        <time>1970-01-01T03:56:40.000Z</time>
      </trkpt>
      <trkpt lat="42.314346" lon="-8.807436">
        <ele>48.6</ele>
        <time>1970-01-01T03:56:41.000Z</time>
      </trkpt>
      <trkpt lat="42.314359" lon="-8.80743">
        <ele>48.4</ele>
        <time>1970-01-01T03:56:42.000Z</time>
      </trkpt>
      <trkpt lat="42.31437" lon="-8.807424">
        <ele>48.4</ele>
        <time>1970-01-01T03:56:43.000Z</time>
      </trkpt>
      <trkpt lat="42.314383" lon="-8.807416">
        <ele>48.6</ele>
        <time>1970-01-01T03:56:44.000Z</time>
      </trkpt>
      <trkpt lat="42.314395" lon="-8.807406">
        <ele>48.6</ele>
        <time>1970-01-01T03:56:45.000Z</time>
      </trkpt>
      <trkpt lat="42.314407" lon="-8.807395">
        <ele>48.6</ele>
        <time>1970-01-01T03:56:46.000Z</time>
      </trkpt>
      <trkpt lat="42.31442" lon="-8.807387">
        <ele>48.6</ele>
        <time>1970-01-01T03:56:47.000Z</time>
      </trkpt>
      <trkpt lat="42.314434" lon="-8.807378">
        <ele>48.6</ele>
        <time>1970-01-01T03:56:48.000Z</time>
      </trkpt>
      <trkpt lat="42.314446" lon="-8.80737">
        <ele>48.6</ele>
        <time>1970-01-01T03:56:49.000Z</time>
      </trkpt>
      <trkpt lat="42.31446" lon="-8.80736">
        <ele>48.6</ele>
        <time>1970-01-01T03:56:50.000Z</time>
      </trkpt>
      <trkpt lat="42.31447" lon="-8.807345">
        <ele>48.6</ele>
        <time>1970-01-01T03:56:51.000Z</time>
      </trkpt>
      <trkpt lat="42.314479" lon="-8.807331">
        <ele>48.8</ele>
        <time>1970-01-01T03:56:52.000Z</time>
      </trkpt>
      <trkpt lat="42.314491" lon="-8.807317">
        <ele>48.8</ele>
        <time>1970-01-01T03:56:53.000Z</time>
      </trkpt>
      <trkpt lat="42.3145" lon="-8.807301">
        <ele>48.8</ele>
        <time>1970-01-01T03:56:54.000Z</time>
      </trkpt>
      <trkpt lat="42.314508" lon="-8.807283">
        <ele>48.8</ele>
        <time>1970-01-01T03:56:55.000Z</time>
      </trkpt>
      <trkpt lat="42.314516" lon="-8.80727">
        <ele>48.8</ele>
        <time>1970-01-01T03:56:56.000Z</time>
      </trkpt>
      <trkpt lat="42.314526" lon="-8.807253">
        <ele>48.8</ele>
        <time>1970-01-01T03:56:57.000Z</time>
      </trkpt>
      <trkpt lat="42.314541" lon="-8.807241">
        <ele>48.8</ele>
        <time>1970-01-01T03:56:58.000Z</time>
      </trkpt>
      <trkpt lat="42.314556" lon="-8.80723">
        <ele>49.2</ele>
        <time>1970-01-01T03:56:59.000Z</time>
      </trkpt>
      <trkpt lat="42.314569" lon="-8.80722">
        <ele>49.4</ele>
        <time>1970-01-01T03:57:00.000Z</time>
      </trkpt>
      <trkpt lat="42.314586" lon="-8.807215">
        <ele>49.6</ele>
        <time>1970-01-01T03:57:01.000Z</time>
      </trkpt>
      <trkpt lat="42.314601" lon="-8.80721">
        <ele>49.6</ele>
        <time>1970-01-01T03:57:02.000Z</time>
      </trkpt>
      <trkpt lat="42.314615" lon="-8.807209">
        <ele>49.6</ele>
        <time>1970-01-01T03:57:03.000Z</time>
      </trkpt>
      <trkpt lat="42.314629" lon="-8.80721">
        <ele>49.6</ele>
        <time>1970-01-01T03:57:04.000Z</time>
      </trkpt>
      <trkpt lat="42.314643" lon="-8.807215">
        <ele>49.2</ele>
        <time>1970-01-01T03:57:05.000Z</time>
      </trkpt>
      <trkpt lat="42.314658" lon="-8.80722">
        <ele>48.8</ele>
        <time>1970-01-01T03:57:06.000Z</time>
      </trkpt>
      <trkpt lat="42.314676" lon="-8.807227">
        <ele>48.8</ele>
        <time>1970-01-01T03:57:07.000Z</time>
      </trkpt>
      <trkpt lat="42.314693" lon="-8.807231">
        <ele>48.6</ele>
        <time>1970-01-01T03:57:08.000Z</time>
      </trkpt>
      <trkpt lat="42.314709" lon="-8.80723">
        <ele>48.6</ele>
        <time>1970-01-01T03:57:09.000Z</time>
      </trkpt>
      <trkpt lat="42.314726" lon="-8.807231">
        <ele>48.2</ele>
        <time>1970-01-01T03:57:10.000Z</time>
      </trkpt>
      <trkpt lat="42.314741" lon="-8.807228">
        <ele>48</ele>
        <time>1970-01-01T03:57:11.000Z</time>
      </trkpt>
      <trkpt lat="42.314756" lon="-8.807229">
        <ele>48</ele>
        <time>1970-01-01T03:57:12.000Z</time>
      </trkpt>
      <trkpt lat="42.314771" lon="-8.807226">
        <ele>47.8</ele>
        <time>1970-01-01T03:57:13.000Z</time>
      </trkpt>
      <trkpt lat="42.314785" lon="-8.807223">
        <ele>47.8</ele>
        <time>1970-01-01T03:57:14.000Z</time>
      </trkpt>
      <trkpt lat="42.314798" lon="-8.80722">
        <ele>47.6</ele>
        <time>1970-01-01T03:57:15.000Z</time>
      </trkpt>
      <trkpt lat="42.314812" lon="-8.807216">
        <ele>47.4</ele>
        <time>1970-01-01T03:57:16.000Z</time>
      </trkpt>
      <trkpt lat="42.314828" lon="-8.807209">
        <ele>47.2</ele>
        <time>1970-01-01T03:57:17.000Z</time>
      </trkpt>
      <trkpt lat="42.314843" lon="-8.807197">
        <ele>47</ele>
        <time>1970-01-01T03:57:18.000Z</time>
      </trkpt>
      <trkpt lat="42.314855" lon="-8.80718">
        <ele>47</ele>
        <time>1970-01-01T03:57:19.000Z</time>
      </trkpt>
      <trkpt lat="42.314868" lon="-8.807167">
        <ele>47</ele>
        <time>1970-01-01T03:57:20.000Z</time>
      </trkpt>
      <trkpt lat="42.314882" lon="-8.807155">
        <ele>46.8</ele>
        <time>1970-01-01T03:57:21.000Z</time>
      </trkpt>
      <trkpt lat="42.314896" lon="-8.807144">
        <ele>46.8</ele>
        <time>1970-01-01T03:57:22.000Z</time>
      </trkpt>
      <trkpt lat="42.314909" lon="-8.807132">
        <ele>46.6</ele>
        <time>1970-01-01T03:57:23.000Z</time>
      </trkpt>
      <trkpt lat="42.314922" lon="-8.807119">
        <ele>46.6</ele>
        <time>1970-01-01T03:57:24.000Z</time>
      </trkpt>
      <trkpt lat="42.314935" lon="-8.807104">
        <ele>46.6</ele>
        <time>1970-01-01T03:57:25.000Z</time>
      </trkpt>
      <trkpt lat="42.314948" lon="-8.807092">
        <ele>46.4</ele>
        <time>1970-01-01T03:57:26.000Z</time>
      </trkpt>
      <trkpt lat="42.314963" lon="-8.807081">
        <ele>46.2</ele>
        <time>1970-01-01T03:57:27.000Z</time>
      </trkpt>
      <trkpt lat="42.314977" lon="-8.807071">
        <ele>46.2</ele>
        <time>1970-01-01T03:57:28.000Z</time>
      </trkpt>
      <trkpt lat="42.314989" lon="-8.807058">
        <ele>45.8</ele>
        <time>1970-01-01T03:57:29.000Z</time>
      </trkpt>
      <trkpt lat="42.314999" lon="-8.807046">
        <ele>46</ele>
        <time>1970-01-01T03:57:30.000Z</time>
      </trkpt>
      <trkpt lat="42.315009" lon="-8.807034">
        <ele>46</ele>
        <time>1970-01-01T03:57:31.000Z</time>
      </trkpt>
      <trkpt lat="42.315019" lon="-8.807022">
        <ele>46</ele>
        <time>1970-01-01T03:57:32.000Z</time>
      </trkpt>
      <trkpt lat="42.315025" lon="-8.807006">
        <ele>46</ele>
        <time>1970-01-01T03:57:33.000Z</time>
      </trkpt>
      <trkpt lat="42.315036" lon="-8.806992">
        <ele>45.8</ele>
        <time>1970-01-01T03:57:34.000Z</time>
      </trkpt>
      <trkpt lat="42.315046" lon="-8.806973">
        <ele>45.2</ele>
        <time>1970-01-01T03:57:35.000Z</time>
      </trkpt>
      <trkpt lat="42.315055" lon="-8.806959">
        <ele>45.2</ele>
        <time>1970-01-01T03:57:36.000Z</time>
      </trkpt>
      <trkpt lat="42.315064" lon="-8.806944">
        <ele>44.4</ele>
        <time>1970-01-01T03:57:37.000Z</time>
      </trkpt>
      <trkpt lat="42.31507" lon="-8.806926">
        <ele>44.2</ele>
        <time>1970-01-01T03:57:38.000Z</time>
      </trkpt>
      <trkpt lat="42.315075" lon="-8.80691">
        <ele>44.2</ele>
        <time>1970-01-01T03:57:39.000Z</time>
      </trkpt>
      <trkpt lat="42.315078" lon="-8.806897">
        <ele>44.2</ele>
        <time>1970-01-01T03:57:40.000Z</time>
      </trkpt>
      <trkpt lat="42.315082" lon="-8.806884">
        <ele>44.2</ele>
        <time>1970-01-01T03:57:41.000Z</time>
      </trkpt>
      <trkpt lat="42.315085" lon="-8.806872">
        <ele>44.2</ele>
        <time>1970-01-01T03:57:42.000Z</time>
      </trkpt>
      <trkpt lat="42.315089" lon="-8.806858">
        <ele>44.2</ele>
        <time>1970-01-01T03:57:43.000Z</time>
      </trkpt>
      <trkpt lat="42.315091" lon="-8.80684">
        <ele>44.6</ele>
        <time>1970-01-01T03:57:44.000Z</time>
      </trkpt>
      <trkpt lat="42.315088" lon="-8.806808">
        <ele>45</ele>
        <time>1970-01-01T03:57:45.000Z</time>
      </trkpt>
      <trkpt lat="42.315089" lon="-8.806785">
        <ele>45</ele>
        <time>1970-01-01T03:57:46.000Z</time>
      </trkpt>
      <trkpt lat="42.315085" lon="-8.80676">
        <ele>45.2</ele>
        <time>1970-01-01T03:57:47.000Z</time>
      </trkpt>
      <trkpt lat="42.315093" lon="-8.806741">
        <ele>45.4</ele>
        <time>1970-01-01T03:57:48.000Z</time>
      </trkpt>
      <trkpt lat="42.315099" lon="-8.806718">
        <ele>45.8</ele>
        <time>1970-01-01T03:57:49.000Z</time>
      </trkpt>
      <trkpt lat="42.315103" lon="-8.806697">
        <ele>46.2</ele>
        <time>1970-01-01T03:57:50.000Z</time>
      </trkpt>
      <trkpt lat="42.315109" lon="-8.80668">
        <ele>46.2</ele>
        <time>1970-01-01T03:57:51.000Z</time>
      </trkpt>
      <trkpt lat="42.315113" lon="-8.806658">
        <ele>46.4</ele>
        <time>1970-01-01T03:57:52.000Z</time>
      </trkpt>
      <trkpt lat="42.315118" lon="-8.806637">
        <ele>46.6</ele>
        <time>1970-01-01T03:57:53.000Z</time>
      </trkpt>
      <trkpt lat="42.315125" lon="-8.806616">
        <ele>46.8</ele>
        <time>1970-01-01T03:57:54.000Z</time>
      </trkpt>
      <trkpt lat="42.315132" lon="-8.806596">
        <ele>46.8</ele>
        <time>1970-01-01T03:57:55.000Z</time>
      </trkpt>
      <trkpt lat="42.315143" lon="-8.806577">
        <ele>47</ele>
        <time>1970-01-01T03:57:56.000Z</time>
      </trkpt>
      <trkpt lat="42.315154" lon="-8.806562">
        <ele>47</ele>
        <time>1970-01-01T03:57:57.000Z</time>
      </trkpt>
      <trkpt lat="42.315164" lon="-8.806546">
        <ele>47.2</ele>
        <time>1970-01-01T03:57:58.000Z</time>
      </trkpt>
      <trkpt lat="42.315171" lon="-8.806523">
        <ele>47.2</ele>
        <time>1970-01-01T03:57:59.000Z</time>
      </trkpt>
      <trkpt lat="42.315173" lon="-8.806493">
        <ele>47</ele>
        <time>1970-01-01T03:58:00.000Z</time>
      </trkpt>
      <trkpt lat="42.315175" lon="-8.806466">
        <ele>47</ele>
        <time>1970-01-01T03:58:01.000Z</time>
      </trkpt>
      <trkpt lat="42.315179" lon="-8.806443">
        <ele>47</ele>
        <time>1970-01-01T03:58:02.000Z</time>
      </trkpt>
      <trkpt lat="42.315182" lon="-8.806419">
        <ele>46.6</ele>
        <time>1970-01-01T03:58:03.000Z</time>
      </trkpt>
      <trkpt lat="42.315185" lon="-8.806391">
        <ele>46.2</ele>
        <time>1970-01-01T03:58:04.000Z</time>
      </trkpt>
      <trkpt lat="42.315189" lon="-8.806366">
        <ele>46</ele>
        <time>1970-01-01T03:58:05.000Z</time>
      </trkpt>
      <trkpt lat="42.315193" lon="-8.806341">
        <ele>45.6</ele>
        <time>1970-01-01T03:58:06.000Z</time>
      </trkpt>
      <trkpt lat="42.315198" lon="-8.80632">
        <ele>45.4</ele>
        <time>1970-01-01T03:58:07.000Z</time>
      </trkpt>
      <trkpt lat="42.315202" lon="-8.8063">
        <ele>44.8</ele>
        <time>1970-01-01T03:58:08.000Z</time>
      </trkpt>
      <trkpt lat="42.315206" lon="-8.806278">
        <ele>44.8</ele>
        <time>1970-01-01T03:58:09.000Z</time>
      </trkpt>
      <trkpt lat="42.31521" lon="-8.806262">
        <ele>44.6</ele>
        <time>1970-01-01T03:58:10.000Z</time>
      </trkpt>
      <trkpt lat="42.315215" lon="-8.806248">
        <ele>44.4</ele>
        <time>1970-01-01T03:58:11.000Z</time>
      </trkpt>
      <trkpt lat="42.315219" lon="-8.806236">
        <ele>44.4</ele>
        <time>1970-01-01T03:58:12.000Z</time>
      </trkpt>
      <trkpt lat="42.315224" lon="-8.80622">
        <ele>44</ele>
        <time>1970-01-01T03:58:13.000Z</time>
      </trkpt>
      <trkpt lat="42.315229" lon="-8.806204">
        <ele>44</ele>
        <time>1970-01-01T03:58:14.000Z</time>
      </trkpt>
      <trkpt lat="42.315234" lon="-8.806186">
        <ele>44</ele>
        <time>1970-01-01T03:58:15.000Z</time>
      </trkpt>
      <trkpt lat="42.315237" lon="-8.806168">
        <ele>44.2</ele>
        <time>1970-01-01T03:58:16.000Z</time>
      </trkpt>
      <trkpt lat="42.315242" lon="-8.806153">
        <ele>44.2</ele>
        <time>1970-01-01T03:58:17.000Z</time>
      </trkpt>
      <trkpt lat="42.31525" lon="-8.806139">
        <ele>44.2</ele>
        <time>1970-01-01T03:58:18.000Z</time>
      </trkpt>
      <trkpt lat="42.315259" lon="-8.806122">
        <ele>44.2</ele>
        <time>1970-01-01T03:58:19.000Z</time>
      </trkpt>
      <trkpt lat="42.315268" lon="-8.806103">
        <ele>44.4</ele>
        <time>1970-01-01T03:58:20.000Z</time>
      </trkpt>
      <trkpt lat="42.315278" lon="-8.806088">
        <ele>44.4</ele>
        <time>1970-01-01T03:58:21.000Z</time>
      </trkpt>
      <trkpt lat="42.315291" lon="-8.806075">
        <ele>44.6</ele>
        <time>1970-01-01T03:58:22.000Z</time>
      </trkpt>
      <trkpt lat="42.315304" lon="-8.806059">
        <ele>44.8</ele>
        <time>1970-01-01T03:58:23.000Z</time>
      </trkpt>
      <trkpt lat="42.315318" lon="-8.806045">
        <ele>45</ele>
        <time>1970-01-01T03:58:24.000Z</time>
      </trkpt>
      <trkpt lat="42.315332" lon="-8.806031">
        <ele>45</ele>
        <time>1970-01-01T03:58:25.000Z</time>
      </trkpt>
      <trkpt lat="42.315349" lon="-8.806023">
        <ele>45.2</ele>
        <time>1970-01-01T03:58:26.000Z</time>
      </trkpt>
      <trkpt lat="42.315366" lon="-8.806009">
        <ele>45.2</ele>
        <time>1970-01-01T03:58:27.000Z</time>
      </trkpt>
      <trkpt lat="42.315383" lon="-8.805996">
        <ele>45.4</ele>
        <time>1970-01-01T03:58:28.000Z</time>
      </trkpt>
      <trkpt lat="42.3154" lon="-8.805984">
        <ele>45.4</ele>
        <time>1970-01-01T03:58:29.000Z</time>
      </trkpt>
      <trkpt lat="42.315416" lon="-8.80597">
        <ele>45.6</ele>
        <time>1970-01-01T03:58:30.000Z</time>
      </trkpt>
      <trkpt lat="42.315429" lon="-8.805962">
        <ele>45.6</ele>
        <time>1970-01-01T03:58:31.000Z</time>
      </trkpt>
      <trkpt lat="42.315443" lon="-8.805957">
        <ele>45.8</ele>
        <time>1970-01-01T03:58:32.000Z</time>
      </trkpt>
      <trkpt lat="42.315456" lon="-8.805954">
        <ele>45.8</ele>
        <time>1970-01-01T03:58:33.000Z</time>
      </trkpt>
      <trkpt lat="42.315465" lon="-8.805954">
        <ele>45.8</ele>
        <time>1970-01-01T03:58:34.000Z</time>
      </trkpt>
      <trkpt lat="42.315473" lon="-8.805957">
        <ele>45.8</ele>
        <time>1970-01-01T03:58:35.000Z</time>
      </trkpt>
      <trkpt lat="42.315484" lon="-8.805966">
        <ele>46</ele>
        <time>1970-01-01T03:58:36.000Z</time>
      </trkpt>
      <trkpt lat="42.315493" lon="-8.80598">
        <ele>46</ele>
        <time>1970-01-01T03:58:37.000Z</time>
      </trkpt>
      <trkpt lat="42.3155" lon="-8.805994">
        <ele>46.4</ele>
        <time>1970-01-01T03:58:38.000Z</time>
      </trkpt>
      <trkpt lat="42.315508" lon="-8.806009">
        <ele>46.4</ele>
        <time>1970-01-01T03:58:39.000Z</time>
      </trkpt>
      <trkpt lat="42.315519" lon="-8.806021">
        <ele>46.4</ele>
        <time>1970-01-01T03:58:40.000Z</time>
      </trkpt>
      <trkpt lat="42.315532" lon="-8.806033">
        <ele>46.6</ele>
        <time>1970-01-01T03:58:41.000Z</time>
      </trkpt>
      <trkpt lat="42.315544" lon="-8.806049">
        <ele>46.6</ele>
        <time>1970-01-01T03:58:42.000Z</time>
      </trkpt>
      <trkpt lat="42.315557" lon="-8.806066">
        <ele>46.6</ele>
        <time>1970-01-01T03:58:43.000Z</time>
      </trkpt>
      <trkpt lat="42.315569" lon="-8.806083">
        <ele>46.8</ele>
        <time>1970-01-01T03:58:44.000Z</time>
      </trkpt>
      <trkpt lat="42.315578" lon="-8.806098">
        <ele>46.8</ele>
        <time>1970-01-01T03:58:45.000Z</time>
      </trkpt>
      <trkpt lat="42.315589" lon="-8.806109">
        <ele>46.6</ele>
        <time>1970-01-01T03:58:46.000Z</time>
      </trkpt>
      <trkpt lat="42.315601" lon="-8.806114">
        <ele>46.6</ele>
        <time>1970-01-01T03:58:47.000Z</time>
      </trkpt>
      <trkpt lat="42.315613" lon="-8.806121">
        <ele>46.4</ele>
        <time>1970-01-01T03:58:48.000Z</time>
      </trkpt>
      <trkpt lat="42.315626" lon="-8.806128">
        <ele>46</ele>
        <time>1970-01-01T03:58:49.000Z</time>
      </trkpt>
      <trkpt lat="42.315642" lon="-8.806133">
        <ele>46</ele>
        <time>1970-01-01T03:58:50.000Z</time>
      </trkpt>
      <trkpt lat="42.31566" lon="-8.806137">
        <ele>46</ele>
        <time>1970-01-01T03:58:51.000Z</time>
      </trkpt>
      <trkpt lat="42.315676" lon="-8.806139">
        <ele>45.8</ele>
        <time>1970-01-01T03:58:52.000Z</time>
      </trkpt>
      <trkpt lat="42.315691" lon="-8.806139">
        <ele>45.6</ele>
        <time>1970-01-01T03:58:53.000Z</time>
      </trkpt>
      <trkpt lat="42.315705" lon="-8.806137">
        <ele>45.4</ele>
        <time>1970-01-01T03:58:54.000Z</time>
      </trkpt>
      <trkpt lat="42.315721" lon="-8.806135">
        <ele>45.4</ele>
        <time>1970-01-01T03:58:55.000Z</time>
      </trkpt>
      <trkpt lat="42.315734" lon="-8.806133">
        <ele>45.6</ele>
        <time>1970-01-01T03:58:56.000Z</time>
      </trkpt>
      <trkpt lat="42.315747" lon="-8.806129">
        <ele>45.8</ele>
        <time>1970-01-01T03:58:57.000Z</time>
      </trkpt>
      <trkpt lat="42.315758" lon="-8.806121">
        <ele>46.2</ele>
        <time>1970-01-01T03:58:58.000Z</time>
      </trkpt>
      <trkpt lat="42.31577" lon="-8.806111">
        <ele>46.2</ele>
        <time>1970-01-01T03:58:59.000Z</time>
      </trkpt>
      <trkpt lat="42.315781" lon="-8.806101">
        <ele>46.4</ele>
        <time>1970-01-01T03:59:00.000Z</time>
      </trkpt>
      <trkpt lat="42.315793" lon="-8.806092">
        <ele>46.4</ele>
        <time>1970-01-01T03:59:01.000Z</time>
      </trkpt>
      <trkpt lat="42.315806" lon="-8.80608">
        <ele>46.4</ele>
        <time>1970-01-01T03:59:02.000Z</time>
      </trkpt>
      <trkpt lat="42.315822" lon="-8.806069">
        <ele>46.6</ele>
        <time>1970-01-01T03:59:03.000Z</time>
      </trkpt>
      <trkpt lat="42.315837" lon="-8.806059">
        <ele>46.6</ele>
        <time>1970-01-01T03:59:04.000Z</time>
      </trkpt>
      <trkpt lat="42.315849" lon="-8.806044">
        <ele>46.6</ele>
        <time>1970-01-01T03:59:05.000Z</time>
      </trkpt>
      <trkpt lat="42.315859" lon="-8.806028">
        <ele>46.6</ele>
        <time>1970-01-01T03:59:06.000Z</time>
      </trkpt>
      <trkpt lat="42.315869" lon="-8.806009">
        <ele>47</ele>
        <time>1970-01-01T03:59:07.000Z</time>
      </trkpt>
      <trkpt lat="42.315878" lon="-8.80599">
        <ele>47</ele>
        <time>1970-01-01T03:59:08.000Z</time>
      </trkpt>
      <trkpt lat="42.315888" lon="-8.805978">
        <ele>47</ele>
        <time>1970-01-01T03:59:09.000Z</time>
      </trkpt>
      <trkpt lat="42.315895" lon="-8.805967">
        <ele>47.2</ele>
        <time>1970-01-01T03:59:10.000Z</time>
      </trkpt>
      <trkpt lat="42.315905" lon="-8.805955">
        <ele>47.2</ele>
        <time>1970-01-01T03:59:11.000Z</time>
      </trkpt>
      <trkpt lat="42.315914" lon="-8.805943">
        <ele>47.2</ele>
        <time>1970-01-01T03:59:12.000Z</time>
      </trkpt>
      <trkpt lat="42.315924" lon="-8.805932">
        <ele>47.2</ele>
        <time>1970-01-01T03:59:13.000Z</time>
      </trkpt>
      <trkpt lat="42.315934" lon="-8.805918">
        <ele>47.8</ele>
        <time>1970-01-01T03:59:14.000Z</time>
      </trkpt>
      <trkpt lat="42.315944" lon="-8.805905">
        <ele>47.8</ele>
        <time>1970-01-01T03:59:15.000Z</time>
      </trkpt>
      <trkpt lat="42.315958" lon="-8.805892">
        <ele>47.8</ele>
        <time>1970-01-01T03:59:16.000Z</time>
      </trkpt>
      <trkpt lat="42.315966" lon="-8.80588">
        <ele>47.8</ele>
        <time>1970-01-01T03:59:17.000Z</time>
      </trkpt>
      <trkpt lat="42.315974" lon="-8.805872">
        <ele>48</ele>
        <time>1970-01-01T03:59:18.000Z</time>
      </trkpt>
      <trkpt lat="42.315983" lon="-8.805866">
        <ele>48</ele>
        <time>1970-01-01T03:59:19.000Z</time>
      </trkpt>
      <trkpt lat="42.315996" lon="-8.805858">
        <ele>48</ele>
        <time>1970-01-01T03:59:20.000Z</time>
      </trkpt>
      <trkpt lat="42.316007" lon="-8.80585">
        <ele>48.2</ele>
        <time>1970-01-01T03:59:21.000Z</time>
      </trkpt>
      <trkpt lat="42.31602" lon="-8.805839">
        <ele>48.2</ele>
        <time>1970-01-01T03:59:22.000Z</time>
      </trkpt>
      <trkpt lat="42.316033" lon="-8.805829">
        <ele>48.2</ele>
        <time>1970-01-01T03:59:23.000Z</time>
      </trkpt>
      <trkpt lat="42.316045" lon="-8.805817">
        <ele>48.2</ele>
        <time>1970-01-01T03:59:24.000Z</time>
      </trkpt>
      <trkpt lat="42.316059" lon="-8.805807">
        <ele>48.6</ele>
        <time>1970-01-01T03:59:25.000Z</time>
      </trkpt>
      <trkpt lat="42.31607" lon="-8.805796">
        <ele>48.6</ele>
        <time>1970-01-01T03:59:26.000Z</time>
      </trkpt>
      <trkpt lat="42.31608" lon="-8.80578">
        <ele>48.8</ele>
        <time>1970-01-01T03:59:27.000Z</time>
      </trkpt>
      <trkpt lat="42.316092" lon="-8.805764">
        <ele>49</ele>
        <time>1970-01-01T03:59:28.000Z</time>
      </trkpt>
      <trkpt lat="42.316103" lon="-8.805748">
        <ele>49.4</ele>
        <time>1970-01-01T03:59:29.000Z</time>
      </trkpt>
      <trkpt lat="42.316112" lon="-8.805735">
        <ele>49.4</ele>
        <time>1970-01-01T03:59:30.000Z</time>
      </trkpt>
      <trkpt lat="42.31612" lon="-8.805726">
        <ele>49.6</ele>
        <time>1970-01-01T03:59:31.000Z</time>
      </trkpt>
      <trkpt lat="42.316126" lon="-8.805715">
        <ele>49.6</ele>
        <time>1970-01-01T03:59:32.000Z</time>
      </trkpt>
      <trkpt lat="42.316131" lon="-8.8057">
        <ele>49.6</ele>
        <time>1970-01-01T03:59:33.000Z</time>
      </trkpt>
      <trkpt lat="42.31614" lon="-8.805685">
        <ele>49.6</ele>
        <time>1970-01-01T03:59:34.000Z</time>
      </trkpt>
      <trkpt lat="42.316149" lon="-8.805671">
        <ele>49.6</ele>
        <time>1970-01-01T03:59:35.000Z</time>
      </trkpt>
      <trkpt lat="42.316156" lon="-8.805655">
        <ele>49.6</ele>
        <time>1970-01-01T03:59:36.000Z</time>
      </trkpt>
      <trkpt lat="42.316165" lon="-8.805642">
        <ele>49.6</ele>
        <time>1970-01-01T03:59:37.000Z</time>
      </trkpt>
      <trkpt lat="42.316171" lon="-8.805626">
        <ele>49.6</ele>
        <time>1970-01-01T03:59:38.000Z</time>
      </trkpt>
      <trkpt lat="42.316179" lon="-8.805609">
        <ele>49.8</ele>
        <time>1970-01-01T03:59:39.000Z</time>
      </trkpt>
      <trkpt lat="42.316185" lon="-8.805589">
        <ele>49.8</ele>
        <time>1970-01-01T03:59:40.000Z</time>
      </trkpt>
      <trkpt lat="42.316192" lon="-8.805568">
        <ele>49.8</ele>
        <time>1970-01-01T03:59:41.000Z</time>
      </trkpt>
      <trkpt lat="42.3162" lon="-8.805554">
        <ele>49.8</ele>
        <time>1970-01-01T03:59:42.000Z</time>
      </trkpt>
      <trkpt lat="42.316209" lon="-8.805543">
        <ele>49.8</ele>
        <time>1970-01-01T03:59:43.000Z</time>
      </trkpt>
      <trkpt lat="42.316219" lon="-8.805538">
        <ele>50</ele>
        <time>1970-01-01T03:59:44.000Z</time>
      </trkpt>
      <trkpt lat="42.316235" lon="-8.805533">
        <ele>50</ele>
        <time>1970-01-01T03:59:45.000Z</time>
      </trkpt>
      <trkpt lat="42.316247" lon="-8.805531">
        <ele>50</ele>
        <time>1970-01-01T03:59:46.000Z</time>
      </trkpt>
      <trkpt lat="42.316258" lon="-8.805534">
        <ele>50</ele>
        <time>1970-01-01T03:59:47.000Z</time>
      </trkpt>
      <trkpt lat="42.316269" lon="-8.805534">
        <ele>50.2</ele>
        <time>1970-01-01T03:59:48.000Z</time>
      </trkpt>
      <trkpt lat="42.316281" lon="-8.805534">
        <ele>50.4</ele>
        <time>1970-01-01T03:59:49.000Z</time>
      </trkpt>
      <trkpt lat="42.316293" lon="-8.805533">
        <ele>50.8</ele>
        <time>1970-01-01T03:59:50.000Z</time>
      </trkpt>
      <trkpt lat="42.316304" lon="-8.805531">
        <ele>50.8</ele>
        <time>1970-01-01T03:59:51.000Z</time>
      </trkpt>
      <trkpt lat="42.316318" lon="-8.805531">
        <ele>50.8</ele>
        <time>1970-01-01T03:59:52.000Z</time>
      </trkpt>
      <trkpt lat="42.31633" lon="-8.805532">
        <ele>51.2</ele>
        <time>1970-01-01T03:59:53.000Z</time>
      </trkpt>
      <trkpt lat="42.316339" lon="-8.805535">
        <ele>51.4</ele>
        <time>1970-01-01T03:59:54.000Z</time>
      </trkpt>
      <trkpt lat="42.316348" lon="-8.805539">
        <ele>51.6</ele>
        <time>1970-01-01T03:59:55.000Z</time>
      </trkpt>
      <trkpt lat="42.316359" lon="-8.805542">
        <ele>51.6</ele>
        <time>1970-01-01T03:59:56.000Z</time>
      </trkpt>
      <trkpt lat="42.31637" lon="-8.805548">
        <ele>52</ele>
        <time>1970-01-01T03:59:57.000Z</time>
      </trkpt>
      <trkpt lat="42.316382" lon="-8.805552">
        <ele>52</ele>
        <time>1970-01-01T03:59:58.000Z</time>
      </trkpt>
      <trkpt lat="42.31639" lon="-8.805554">
        <ele>52.2</ele>
        <time>1970-01-01T03:59:59.000Z</time>
      </trkpt>
      <trkpt lat="42.316399" lon="-8.805554">
        <ele>52.2</ele>
        <time>1970-01-01T04:00:00.000Z</time>
      </trkpt>
      <trkpt lat="42.316405" lon="-8.805553">
        <ele>52.2</ele>
        <time>1970-01-01T04:00:01.000Z</time>
      </trkpt>
      <trkpt lat="42.316418" lon="-8.805559">
        <ele>52.4</ele>
        <time>1970-01-01T04:00:02.000Z</time>
      </trkpt>
      <trkpt lat="42.316432" lon="-8.805565">
        <ele>52.4</ele>
        <time>1970-01-01T04:00:03.000Z</time>
      </trkpt>
      <trkpt lat="42.316445" lon="-8.805575">
        <ele>52.4</ele>
        <time>1970-01-01T04:00:04.000Z</time>
      </trkpt>
      <trkpt lat="42.316461" lon="-8.805587">
        <ele>52.2</ele>
        <time>1970-01-01T04:00:05.000Z</time>
      </trkpt>
      <trkpt lat="42.316472" lon="-8.805601">
        <ele>52</ele>
        <time>1970-01-01T04:00:06.000Z</time>
      </trkpt>
      <trkpt lat="42.316488" lon="-8.805609">
        <ele>51.8</ele>
        <time>1970-01-01T04:00:07.000Z</time>
      </trkpt>
      <trkpt lat="42.316506" lon="-8.805618">
        <ele>51.8</ele>
        <time>1970-01-01T04:00:08.000Z</time>
      </trkpt>
      <trkpt lat="42.316524" lon="-8.805627">
        <ele>51.4</ele>
        <time>1970-01-01T04:00:09.000Z</time>
      </trkpt>
      <trkpt lat="42.316543" lon="-8.80564">
        <ele>51.2</ele>
        <time>1970-01-01T04:00:10.000Z</time>
      </trkpt>
      <trkpt lat="42.316562" lon="-8.805654">
        <ele>51</ele>
        <time>1970-01-01T04:00:11.000Z</time>
      </trkpt>
      <trkpt lat="42.316583" lon="-8.80567">
        <ele>50.8</ele>
        <time>1970-01-01T04:00:12.000Z</time>
      </trkpt>
      <trkpt lat="42.316599" lon="-8.805687">
        <ele>50.4</ele>
        <time>1970-01-01T04:00:13.000Z</time>
      </trkpt>
      <trkpt lat="42.316614" lon="-8.805694">
        <ele>50.2</ele>
        <time>1970-01-01T04:00:14.000Z</time>
      </trkpt>
      <trkpt lat="42.316627" lon="-8.805701">
        <ele>50.2</ele>
        <time>1970-01-01T04:00:15.000Z</time>
      </trkpt>
      <trkpt lat="42.316643" lon="-8.805713">
        <ele>50.2</ele>
        <time>1970-01-01T04:00:16.000Z</time>
      </trkpt>
      <trkpt lat="42.316659" lon="-8.805728">
        <ele>49.8</ele>
        <time>1970-01-01T04:00:17.000Z</time>
      </trkpt>
      <trkpt lat="42.316675" lon="-8.805744">
        <ele>49.6</ele>
        <time>1970-01-01T04:00:18.000Z</time>
      </trkpt>
      <trkpt lat="42.316691" lon="-8.805756">
        <ele>49.4</ele>
        <time>1970-01-01T04:00:19.000Z</time>
      </trkpt>
      <trkpt lat="42.316708" lon="-8.805767">
        <ele>49</ele>
        <time>1970-01-01T04:00:20.000Z</time>
      </trkpt>
      <trkpt lat="42.316725" lon="-8.805774">
        <ele>48.8</ele>
        <time>1970-01-01T04:00:21.000Z</time>
      </trkpt>
      <trkpt lat="42.316739" lon="-8.805779">
        <ele>48.6</ele>
        <time>1970-01-01T04:00:22.000Z</time>
      </trkpt>
      <trkpt lat="42.316752" lon="-8.805783">
        <ele>48.4</ele>
        <time>1970-01-01T04:00:23.000Z</time>
      </trkpt>
      <trkpt lat="42.316763" lon="-8.805785">
        <ele>48</ele>
        <time>1970-01-01T04:00:24.000Z</time>
      </trkpt>
      <trkpt lat="42.316773" lon="-8.805787">
        <ele>47.8</ele>
        <time>1970-01-01T04:00:25.000Z</time>
      </trkpt>
      <trkpt lat="42.316784" lon="-8.805785">
        <ele>47.6</ele>
        <time>1970-01-01T04:00:26.000Z</time>
      </trkpt>
      <trkpt lat="42.316796" lon="-8.805783">
        <ele>47.4</ele>
        <time>1970-01-01T04:00:27.000Z</time>
      </trkpt>
      <trkpt lat="42.316808" lon="-8.805782">
        <ele>47.4</ele>
        <time>1970-01-01T04:00:28.000Z</time>
      </trkpt>
      <trkpt lat="42.31682" lon="-8.805782">
        <ele>47.4</ele>
        <time>1970-01-01T04:00:29.000Z</time>
      </trkpt>
      <trkpt lat="42.316831" lon="-8.80578">
        <ele>47.2</ele>
        <time>1970-01-01T04:00:30.000Z</time>
      </trkpt>
      <trkpt lat="42.316839" lon="-8.805781">
        <ele>47</ele>
        <time>1970-01-01T04:00:31.000Z</time>
      </trkpt>
      <trkpt lat="42.316848" lon="-8.805788">
        <ele>46.8</ele>
        <time>1970-01-01T04:00:32.000Z</time>
      </trkpt>
      <trkpt lat="42.316854" lon="-8.805801">
        <ele>46.6</ele>
        <time>1970-01-01T04:00:33.000Z</time>
      </trkpt>
      <trkpt lat="42.316865" lon="-8.805816">
        <ele>46.6</ele>
        <time>1970-01-01T04:00:34.000Z</time>
      </trkpt>
      <trkpt lat="42.316878" lon="-8.805825">
        <ele>46.4</ele>
        <time>1970-01-01T04:00:35.000Z</time>
      </trkpt>
      <trkpt lat="42.316889" lon="-8.805835">
        <ele>46.4</ele>
        <time>1970-01-01T04:00:36.000Z</time>
      </trkpt>
      <trkpt lat="42.316901" lon="-8.805843">
        <ele>46.2</ele>
        <time>1970-01-01T04:00:37.000Z</time>
      </trkpt>
      <trkpt lat="42.316915" lon="-8.805849">
        <ele>46.2</ele>
        <time>1970-01-01T04:00:38.000Z</time>
      </trkpt>
      <trkpt lat="42.316925" lon="-8.805855">
        <ele>46</ele>
        <time>1970-01-01T04:00:39.000Z</time>
      </trkpt>
      <trkpt lat="42.316937" lon="-8.805859">
        <ele>45.8</ele>
        <time>1970-01-01T04:00:40.000Z</time>
      </trkpt>
      <trkpt lat="42.31695" lon="-8.805865">
        <ele>45.6</ele>
        <time>1970-01-01T04:00:41.000Z</time>
      </trkpt>
      <trkpt lat="42.316962" lon="-8.805871">
        <ele>45.4</ele>
        <time>1970-01-01T04:00:42.000Z</time>
      </trkpt>
      <trkpt lat="42.316975" lon="-8.805877">
        <ele>45.4</ele>
        <time>1970-01-01T04:00:43.000Z</time>
      </trkpt>
      <trkpt lat="42.316994" lon="-8.805884">
        <ele>45.4</ele>
        <time>1970-01-01T04:00:44.000Z</time>
      </trkpt>
      <trkpt lat="42.317007" lon="-8.805889">
        <ele>45.4</ele>
        <time>1970-01-01T04:00:45.000Z</time>
      </trkpt>
      <trkpt lat="42.317021" lon="-8.805897">
        <ele>45.2</ele>
        <time>1970-01-01T04:00:46.000Z</time>
      </trkpt>
      <trkpt lat="42.317031" lon="-8.805903">
        <ele>45.2</ele>
        <time>1970-01-01T04:00:47.000Z</time>
      </trkpt>
      <trkpt lat="42.317042" lon="-8.805911">
        <ele>45</ele>
        <time>1970-01-01T04:00:48.000Z</time>
      </trkpt>
      <trkpt lat="42.31705" lon="-8.805922">
        <ele>45</ele>
        <time>1970-01-01T04:00:49.000Z</time>
      </trkpt>
      <trkpt lat="42.317051" lon="-8.80593">
        <ele>45</ele>
        <time>1970-01-01T04:00:50.000Z</time>
      </trkpt>
      <trkpt lat="42.317067" lon="-8.805941">
        <ele>45</ele>
        <time>1970-01-01T04:00:51.000Z</time>
      </trkpt>
      <trkpt lat="42.317072" lon="-8.805949">
        <ele>45</ele>
        <time>1970-01-01T04:00:52.000Z</time>
      </trkpt>
      <trkpt lat="42.317077" lon="-8.80596">
        <ele>45</ele>
        <time>1970-01-01T04:00:53.000Z</time>
      </trkpt>
      <trkpt lat="42.317089" lon="-8.805966">
        <ele>45</ele>
        <time>1970-01-01T04:00:54.000Z</time>
      </trkpt>
      <trkpt lat="42.31709" lon="-8.805979">
        <ele>44.8</ele>
        <time>1970-01-01T04:00:55.000Z</time>
      </trkpt>
      <trkpt lat="42.317093" lon="-8.805988">
        <ele>44.8</ele>
        <time>1970-01-01T04:00:56.000Z</time>
      </trkpt>
      <trkpt lat="42.3171" lon="-8.806001">
        <ele>44.8</ele>
        <time>1970-01-01T04:00:57.000Z</time>
      </trkpt>
      <trkpt lat="42.317109" lon="-8.806012">
        <ele>44.6</ele>
        <time>1970-01-01T04:00:58.000Z</time>
      </trkpt>
      <trkpt lat="42.317114" lon="-8.80602">
        <ele>44.6</ele>
        <time>1970-01-01T04:00:59.000Z</time>
      </trkpt>
      <trkpt lat="42.317118" lon="-8.806028">
        <ele>44.6</ele>
        <time>1970-01-01T04:01:00.000Z</time>
      </trkpt>
      <trkpt lat="42.317117" lon="-8.80603">
        <ele>44.6</ele>
        <time>1970-01-01T04:01:01.000Z</time>
      </trkpt>
      <trkpt lat="42.317123" lon="-8.806035">
        <ele>44.8</ele>
        <time>1970-01-01T04:01:02.000Z</time>
      </trkpt>
      <trkpt lat="42.317131" lon="-8.806032">
        <ele>44.8</ele>
        <time>1970-01-01T04:01:03.000Z</time>
      </trkpt>
      <trkpt lat="42.317138" lon="-8.806021">
        <ele>45</ele>
        <time>1970-01-01T04:01:04.000Z</time>
      </trkpt>
      <trkpt lat="42.317142" lon="-8.806013">
        <ele>45</ele>
        <time>1970-01-01T04:01:05.000Z</time>
      </trkpt>
      <trkpt lat="42.317143" lon="-8.806007">
        <ele>45</ele>
        <time>1970-01-01T04:01:06.000Z</time>
      </trkpt>
      <trkpt lat="42.317145" lon="-8.806002">
        <ele>45</ele>
        <time>1970-01-01T04:01:07.000Z</time>
      </trkpt>
      <trkpt lat="42.31715" lon="-8.80599">
        <ele>45</ele>
        <time>1970-01-01T04:01:08.000Z</time>
      </trkpt>
      <trkpt lat="42.317148" lon="-8.805986">
        <ele>44.8</ele>
        <time>1970-01-01T04:01:09.000Z</time>
      </trkpt>
      <trkpt lat="42.317154" lon="-8.805982">
        <ele>44.8</ele>
        <time>1970-01-01T04:01:10.000Z</time>
      </trkpt>
      <trkpt lat="42.317159" lon="-8.805976">
        <ele>44.8</ele>
        <time>1970-01-01T04:01:11.000Z</time>
      </trkpt>
      <trkpt lat="42.317163" lon="-8.805969">
        <ele>44.8</ele>
        <time>1970-01-01T04:01:12.000Z</time>
      </trkpt>
      <trkpt lat="42.317164" lon="-8.805961">
        <ele>44.8</ele>
        <time>1970-01-01T04:01:13.000Z</time>
      </trkpt>
      <trkpt lat="42.317166" lon="-8.805953">
        <ele>44.8</ele>
        <time>1970-01-01T04:01:14.000Z</time>
      </trkpt>
      <trkpt lat="42.317168" lon="-8.805946">
        <ele>44.8</ele>
        <time>1970-01-01T04:01:15.000Z</time>
      </trkpt>
      <trkpt lat="42.317172" lon="-8.805944">
        <ele>44.8</ele>
        <time>1970-01-01T04:01:16.000Z</time>
      </trkpt>
      <trkpt lat="42.317176" lon="-8.805941">
        <ele>44.8</ele>
        <time>1970-01-01T04:01:17.000Z</time>
      </trkpt>
      <trkpt lat="42.31718" lon="-8.805938">
        <ele>44.8</ele>
        <time>1970-01-01T04:01:18.000Z</time>
      </trkpt>
      <trkpt lat="42.317178" lon="-8.805934">
        <ele>44.8</ele>
        <time>1970-01-01T04:01:19.000Z</time>
      </trkpt>
      <trkpt lat="42.317175" lon="-8.805929">
        <ele>44.8</ele>
        <time>1970-01-01T04:01:20.000Z</time>
      </trkpt>
      <trkpt lat="42.317171" lon="-8.805924">
        <ele>44.6</ele>
        <time>1970-01-01T04:01:21.000Z</time>
      </trkpt>
      <trkpt lat="42.317169" lon="-8.805911">
        <ele>44.6</ele>
        <time>1970-01-01T04:01:22.000Z</time>
      </trkpt>
      <trkpt lat="42.317168" lon="-8.805903">
        <ele>44.6</ele>
        <time>1970-01-01T04:01:23.000Z</time>
      </trkpt>
      <trkpt lat="42.317169" lon="-8.805891">
        <ele>44.6</ele>
        <time>1970-01-01T04:01:24.000Z</time>
      </trkpt>
      <trkpt lat="42.317169" lon="-8.805885">
        <ele>44.6</ele>
        <time>1970-01-01T04:01:25.000Z</time>
      </trkpt>
      <trkpt lat="42.317168" lon="-8.805878">
        <ele>44.4</ele>
        <time>1970-01-01T04:01:26.000Z</time>
      </trkpt>
      <trkpt lat="42.317168" lon="-8.80587">
        <ele>44.4</ele>
        <time>1970-01-01T04:01:27.000Z</time>
      </trkpt>
      <trkpt lat="42.31717" lon="-8.805868">
        <ele>44.8</ele>
        <time>1970-01-01T04:01:28.000Z</time>
      </trkpt>
      <trkpt lat="42.317173" lon="-8.80587">
        <ele>44.8</ele>
        <time>1970-01-01T04:01:29.000Z</time>
      </trkpt>
      <trkpt lat="42.317177" lon="-8.80587">
        <ele>44.8</ele>
        <time>1970-01-01T04:01:30.000Z</time>
      </trkpt>
      <trkpt lat="42.31718" lon="-8.805872">
        <ele>44.8</ele>
        <time>1970-01-01T04:01:31.000Z</time>
      </trkpt>
      <trkpt lat="42.317184" lon="-8.805878">
        <ele>44.8</ele>
        <time>1970-01-01T04:01:32.000Z</time>
      </trkpt>
      <trkpt lat="42.317193" lon="-8.805885">
        <ele>44.8</ele>
        <time>1970-01-01T04:01:33.000Z</time>
      </trkpt>
      <trkpt lat="42.317202" lon="-8.80589">
        <ele>44.8</ele>
        <time>1970-01-01T04:01:34.000Z</time>
      </trkpt>
      <trkpt lat="42.317206" lon="-8.805893">
        <ele>44.8</ele>
        <time>1970-01-01T04:01:35.000Z</time>
      </trkpt>
      <trkpt lat="42.317214" lon="-8.805895">
        <ele>44.2</ele>
        <time>1970-01-01T04:01:36.000Z</time>
      </trkpt>
      <trkpt lat="42.317229" lon="-8.805891">
        <ele>44.2</ele>
        <time>1970-01-01T04:01:37.000Z</time>
      </trkpt>
      <trkpt lat="42.317241" lon="-8.80588">
        <ele>44.2</ele>
        <time>1970-01-01T04:01:38.000Z</time>
      </trkpt>
      <trkpt lat="42.317246" lon="-8.805876">
        <ele>44.2</ele>
        <time>1970-01-01T04:01:39.000Z</time>
      </trkpt>
      <trkpt lat="42.317245" lon="-8.805877">
        <ele>44.2</ele>
        <time>1970-01-01T04:01:40.000Z</time>
      </trkpt>
      <trkpt lat="42.317243" lon="-8.805881">
        <ele>44.2</ele>
        <time>1970-01-01T04:01:41.000Z</time>
      </trkpt>
      <trkpt lat="42.31724" lon="-8.805883">
        <ele>44.2</ele>
        <time>1970-01-01T04:01:42.000Z</time>
      </trkpt>
      <trkpt lat="42.317236" lon="-8.805886">
        <ele>44.2</ele>
        <time>1970-01-01T04:01:43.000Z</time>
      </trkpt>
      <trkpt lat="42.317233" lon="-8.805894">
        <ele>44.2</ele>
        <time>1970-01-01T04:01:44.000Z</time>
      </trkpt>
      <trkpt lat="42.317232" lon="-8.805905">
        <ele>44.2</ele>
        <time>1970-01-01T04:01:45.000Z</time>
      </trkpt>
      <trkpt lat="42.317231" lon="-8.805921">
        <ele>44.2</ele>
        <time>1970-01-01T04:01:46.000Z</time>
      </trkpt>
      <trkpt lat="42.317231" lon="-8.805938">
        <ele>44.2</ele>
        <time>1970-01-01T04:01:47.000Z</time>
      </trkpt>
      <trkpt lat="42.31723" lon="-8.805951">
        <ele>44.2</ele>
        <time>1970-01-01T04:01:48.000Z</time>
      </trkpt>
      <trkpt lat="42.317227" lon="-8.805964">
        <ele>44.2</ele>
        <time>1970-01-01T04:01:49.000Z</time>
      </trkpt>
      <trkpt lat="42.317223" lon="-8.805982">
        <ele>44.2</ele>
        <time>1970-01-01T04:01:50.000Z</time>
      </trkpt>
      <trkpt lat="42.317221" lon="-8.805998">
        <ele>44.2</ele>
        <time>1970-01-01T04:01:51.000Z</time>
      </trkpt>
      <trkpt lat="42.317222" lon="-8.806016">
        <ele>44.2</ele>
        <time>1970-01-01T04:01:52.000Z</time>
      </trkpt>
      <trkpt lat="42.317225" lon="-8.806032">
        <ele>44.2</ele>
        <time>1970-01-01T04:01:53.000Z</time>
      </trkpt>
      <trkpt lat="42.317222" lon="-8.806052">
        <ele>44.2</ele>
        <time>1970-01-01T04:01:54.000Z</time>
      </trkpt>
      <trkpt lat="42.317217" lon="-8.806066">
        <ele>44.2</ele>
        <time>1970-01-01T04:01:55.000Z</time>
      </trkpt>
      <trkpt lat="42.317217" lon="-8.806075">
        <ele>44.2</ele>
        <time>1970-01-01T04:01:56.000Z</time>
      </trkpt>
      <trkpt lat="42.317217" lon="-8.806092">
        <ele>44.2</ele>
        <time>1970-01-01T04:01:57.000Z</time>
      </trkpt>
      <trkpt lat="42.317219" lon="-8.806111">
        <ele>44.2</ele>
        <time>1970-01-01T04:01:58.000Z</time>
      </trkpt>
      <trkpt lat="42.317224" lon="-8.806124">
        <ele>44.2</ele>
        <time>1970-01-01T04:01:59.000Z</time>
      </trkpt>
      <trkpt lat="42.317226" lon="-8.80614">
        <ele>44.2</ele>
        <time>1970-01-01T04:02:00.000Z</time>
      </trkpt>
      <trkpt lat="42.317233" lon="-8.806149">
        <ele>44.2</ele>
        <time>1970-01-01T04:02:01.000Z</time>
      </trkpt>
      <trkpt lat="42.317238" lon="-8.806158">
        <ele>44.2</ele>
        <time>1970-01-01T04:02:02.000Z</time>
      </trkpt>
      <trkpt lat="42.317243" lon="-8.806166">
        <ele>44</ele>
        <time>1970-01-01T04:02:03.000Z</time>
      </trkpt>
      <trkpt lat="42.317251" lon="-8.806172">
        <ele>44</ele>
        <time>1970-01-01T04:02:04.000Z</time>
      </trkpt>
      <trkpt lat="42.317257" lon="-8.806176">
        <ele>43.8</ele>
        <time>1970-01-01T04:02:05.000Z</time>
      </trkpt>
      <trkpt lat="42.31726" lon="-8.806176">
        <ele>43.8</ele>
        <time>1970-01-01T04:02:06.000Z</time>
      </trkpt>
      <trkpt lat="42.317263" lon="-8.806178">
        <ele>43.8</ele>
        <time>1970-01-01T04:02:07.000Z</time>
      </trkpt>
      <trkpt lat="42.317268" lon="-8.80618">
        <ele>43.8</ele>
        <time>1970-01-01T04:02:08.000Z</time>
      </trkpt>
      <trkpt lat="42.317275" lon="-8.806188">
        <ele>43.8</ele>
        <time>1970-01-01T04:02:09.000Z</time>
      </trkpt>
      <trkpt lat="42.317281" lon="-8.806201">
        <ele>43.8</ele>
        <time>1970-01-01T04:02:10.000Z</time>
      </trkpt>
      <trkpt lat="42.31729" lon="-8.806219">
        <ele>43.8</ele>
        <time>1970-01-01T04:02:11.000Z</time>
      </trkpt>
      <trkpt lat="42.3173" lon="-8.806237">
        <ele>44</ele>
        <time>1970-01-01T04:02:12.000Z</time>
      </trkpt>
      <trkpt lat="42.317307" lon="-8.806254">
        <ele>44</ele>
        <time>1970-01-01T04:02:13.000Z</time>
      </trkpt>
      <trkpt lat="42.317314" lon="-8.806274">
        <ele>44.2</ele>
        <time>1970-01-01T04:02:14.000Z</time>
      </trkpt>
      <trkpt lat="42.317321" lon="-8.806293">
        <ele>44.2</ele>
        <time>1970-01-01T04:02:15.000Z</time>
      </trkpt>
      <trkpt lat="42.317326" lon="-8.806311">
        <ele>44.4</ele>
        <time>1970-01-01T04:02:16.000Z</time>
      </trkpt>
      <trkpt lat="42.317332" lon="-8.806333">
        <ele>44.4</ele>
        <time>1970-01-01T04:02:17.000Z</time>
      </trkpt>
      <trkpt lat="42.317337" lon="-8.806356">
        <ele>44.4</ele>
        <time>1970-01-01T04:02:18.000Z</time>
      </trkpt>
      <trkpt lat="42.317344" lon="-8.806382">
        <ele>44.4</ele>
        <time>1970-01-01T04:02:19.000Z</time>
      </trkpt>
      <trkpt lat="42.317351" lon="-8.806403">
        <ele>44.4</ele>
        <time>1970-01-01T04:02:20.000Z</time>
      </trkpt>
      <trkpt lat="42.317357" lon="-8.806421">
        <ele>44.6</ele>
        <time>1970-01-01T04:02:21.000Z</time>
      </trkpt>
      <trkpt lat="42.317362" lon="-8.806437">
        <ele>44.4</ele>
        <time>1970-01-01T04:02:22.000Z</time>
      </trkpt>
      <trkpt lat="42.31737" lon="-8.806453">
        <ele>44.4</ele>
        <time>1970-01-01T04:02:23.000Z</time>
      </trkpt>
      <trkpt lat="42.317379" lon="-8.806473">
        <ele>44.4</ele>
        <time>1970-01-01T04:02:24.000Z</time>
      </trkpt>
      <trkpt lat="42.317386" lon="-8.806489">
        <ele>44.4</ele>
        <time>1970-01-01T04:02:25.000Z</time>
      </trkpt>
      <trkpt lat="42.317393" lon="-8.806504">
        <ele>44.4</ele>
        <time>1970-01-01T04:02:26.000Z</time>
      </trkpt>
      <trkpt lat="42.317401" lon="-8.806518">
        <ele>44.4</ele>
        <time>1970-01-01T04:02:27.000Z</time>
      </trkpt>
      <trkpt lat="42.317411" lon="-8.806529">
        <ele>44.6</ele>
        <time>1970-01-01T04:02:28.000Z</time>
      </trkpt>
      <trkpt lat="42.317423" lon="-8.806541">
        <ele>44.6</ele>
        <time>1970-01-01T04:02:29.000Z</time>
      </trkpt>
      <trkpt lat="42.317436" lon="-8.806555">
        <ele>44.8</ele>
        <time>1970-01-01T04:02:30.000Z</time>
      </trkpt>
      <trkpt lat="42.317447" lon="-8.806567">
        <ele>44.8</ele>
        <time>1970-01-01T04:02:31.000Z</time>
      </trkpt>
      <trkpt lat="42.317457" lon="-8.806575">
        <ele>45</ele>
        <time>1970-01-01T04:02:32.000Z</time>
      </trkpt>
      <trkpt lat="42.317466" lon="-8.806584">
        <ele>45</ele>
        <time>1970-01-01T04:02:33.000Z</time>
      </trkpt>
      <trkpt lat="42.317471" lon="-8.806599">
        <ele>45.2</ele>
        <time>1970-01-01T04:02:34.000Z</time>
      </trkpt>
      <trkpt lat="42.31748" lon="-8.806611">
        <ele>45.2</ele>
        <time>1970-01-01T04:02:35.000Z</time>
      </trkpt>
      <trkpt lat="42.317486" lon="-8.806623">
        <ele>45.4</ele>
        <time>1970-01-01T04:02:36.000Z</time>
      </trkpt>
      <trkpt lat="42.317492" lon="-8.806634">
        <ele>45.6</ele>
        <time>1970-01-01T04:02:37.000Z</time>
      </trkpt>
      <trkpt lat="42.3175" lon="-8.806645">
        <ele>45.6</ele>
        <time>1970-01-01T04:02:38.000Z</time>
      </trkpt>
      <trkpt lat="42.317509" lon="-8.806654">
        <ele>45.6</ele>
        <time>1970-01-01T04:02:39.000Z</time>
      </trkpt>
      <trkpt lat="42.317518" lon="-8.806664">
        <ele>45.8</ele>
        <time>1970-01-01T04:02:40.000Z</time>
      </trkpt>
      <trkpt lat="42.317526" lon="-8.806676">
        <ele>45.8</ele>
        <time>1970-01-01T04:02:41.000Z</time>
      </trkpt>
      <trkpt lat="42.317537" lon="-8.806684">
        <ele>45.8</ele>
        <time>1970-01-01T04:02:42.000Z</time>
      </trkpt>
      <trkpt lat="42.317547" lon="-8.806692">
        <ele>46</ele>
        <time>1970-01-01T04:02:43.000Z</time>
      </trkpt>
      <trkpt lat="42.317558" lon="-8.806704">
        <ele>46.2</ele>
        <time>1970-01-01T04:02:44.000Z</time>
      </trkpt>
      <trkpt lat="42.31757" lon="-8.806713">
        <ele>46.2</ele>
        <time>1970-01-01T04:02:45.000Z</time>
      </trkpt>
      <trkpt lat="42.317583" lon="-8.806724">
        <ele>46.2</ele>
        <time>1970-01-01T04:02:46.000Z</time>
      </trkpt>
      <trkpt lat="42.317596" lon="-8.806738">
        <ele>46.4</ele>
        <time>1970-01-01T04:02:47.000Z</time>
      </trkpt>
      <trkpt lat="42.317613" lon="-8.806757">
        <ele>46.6</ele>
        <time>1970-01-01T04:02:48.000Z</time>
      </trkpt>
      <trkpt lat="42.317627" lon="-8.806767">
        <ele>46.8</ele>
        <time>1970-01-01T04:02:49.000Z</time>
      </trkpt>
      <trkpt lat="42.317639" lon="-8.806775">
        <ele>47.2</ele>
        <time>1970-01-01T04:02:50.000Z</time>
      </trkpt>
      <trkpt lat="42.317651" lon="-8.806785">
        <ele>47.4</ele>
        <time>1970-01-01T04:02:51.000Z</time>
      </trkpt>
      <trkpt lat="42.317665" lon="-8.806792">
        <ele>47.6</ele>
        <time>1970-01-01T04:02:52.000Z</time>
      </trkpt>
      <trkpt lat="42.317679" lon="-8.806801">
        <ele>47.6</ele>
        <time>1970-01-01T04:02:53.000Z</time>
      </trkpt>
      <trkpt lat="42.317692" lon="-8.806812">
        <ele>47.6</ele>
        <time>1970-01-01T04:02:54.000Z</time>
      </trkpt>
      <trkpt lat="42.317707" lon="-8.806829">
        <ele>47.6</ele>
        <time>1970-01-01T04:02:55.000Z</time>
      </trkpt>
      <trkpt lat="42.317719" lon="-8.806844">
        <ele>47.6</ele>
        <time>1970-01-01T04:02:56.000Z</time>
      </trkpt>
      <trkpt lat="42.317732" lon="-8.806858">
        <ele>47.6</ele>
        <time>1970-01-01T04:02:57.000Z</time>
      </trkpt>
      <trkpt lat="42.317746" lon="-8.806873">
        <ele>47.6</ele>
        <time>1970-01-01T04:02:58.000Z</time>
      </trkpt>
      <trkpt lat="42.317753" lon="-8.806884">
        <ele>47.6</ele>
        <time>1970-01-01T04:02:59.000Z</time>
      </trkpt>
      <trkpt lat="42.31776" lon="-8.806889">
        <ele>47.8</ele>
        <time>1970-01-01T04:03:00.000Z</time>
      </trkpt>
      <trkpt lat="42.317766" lon="-8.806898">
        <ele>47.8</ele>
        <time>1970-01-01T04:03:01.000Z</time>
      </trkpt>
      <trkpt lat="42.317774" lon="-8.806907">
        <ele>48</ele>
        <time>1970-01-01T04:03:02.000Z</time>
      </trkpt>
      <trkpt lat="42.317781" lon="-8.806921">
        <ele>48</ele>
        <time>1970-01-01T04:03:03.000Z</time>
      </trkpt>
      <trkpt lat="42.317791" lon="-8.806939">
        <ele>48.2</ele>
        <time>1970-01-01T04:03:04.000Z</time>
      </trkpt>
      <trkpt lat="42.317805" lon="-8.806953">
        <ele>48.4</ele>
        <time>1970-01-01T04:03:05.000Z</time>
      </trkpt>
      <trkpt lat="42.317817" lon="-8.80697">
        <ele>48.4</ele>
        <time>1970-01-01T04:03:06.000Z</time>
      </trkpt>
      <trkpt lat="42.317827" lon="-8.806986">
        <ele>48.8</ele>
        <time>1970-01-01T04:03:07.000Z</time>
      </trkpt>
      <trkpt lat="42.317838" lon="-8.806998">
        <ele>49</ele>
        <time>1970-01-01T04:03:08.000Z</time>
      </trkpt>
      <trkpt lat="42.31785" lon="-8.807014">
        <ele>49</ele>
        <time>1970-01-01T04:03:09.000Z</time>
      </trkpt>
      <trkpt lat="42.317861" lon="-8.80703">
        <ele>49</ele>
        <time>1970-01-01T04:03:10.000Z</time>
      </trkpt>
      <trkpt lat="42.317874" lon="-8.807043">
        <ele>49.2</ele>
        <time>1970-01-01T04:03:11.000Z</time>
      </trkpt>
      <trkpt lat="42.317884" lon="-8.807057">
        <ele>49.2</ele>
        <time>1970-01-01T04:03:12.000Z</time>
      </trkpt>
      <trkpt lat="42.31789" lon="-8.807072">
        <ele>49.4</ele>
        <time>1970-01-01T04:03:13.000Z</time>
      </trkpt>
      <trkpt lat="42.317899" lon="-8.807084">
        <ele>49.8</ele>
        <time>1970-01-01T04:03:14.000Z</time>
      </trkpt>
      <trkpt lat="42.317908" lon="-8.8071">
        <ele>50</ele>
        <time>1970-01-01T04:03:15.000Z</time>
      </trkpt>
      <trkpt lat="42.317918" lon="-8.807108">
        <ele>50.2</ele>
        <time>1970-01-01T04:03:16.000Z</time>
      </trkpt>
      <trkpt lat="42.317927" lon="-8.807122">
        <ele>50.4</ele>
        <time>1970-01-01T04:03:17.000Z</time>
      </trkpt>
      <trkpt lat="42.317936" lon="-8.80713">
        <ele>50.6</ele>
        <time>1970-01-01T04:03:18.000Z</time>
      </trkpt>
      <trkpt lat="42.317944" lon="-8.807142">
        <ele>50.8</ele>
        <time>1970-01-01T04:03:19.000Z</time>
      </trkpt>
      <trkpt lat="42.317954" lon="-8.807153">
        <ele>51</ele>
        <time>1970-01-01T04:03:20.000Z</time>
      </trkpt>
      <trkpt lat="42.317963" lon="-8.807162">
        <ele>51</ele>
        <time>1970-01-01T04:03:21.000Z</time>
      </trkpt>
      <trkpt lat="42.317972" lon="-8.807174">
        <ele>51.2</ele>
        <time>1970-01-01T04:03:22.000Z</time>
      </trkpt>
      <trkpt lat="42.317975" lon="-8.807194">
        <ele>51.4</ele>
        <time>1970-01-01T04:03:23.000Z</time>
      </trkpt>
      <trkpt lat="42.317983" lon="-8.807205">
        <ele>51.6</ele>
        <time>1970-01-01T04:03:24.000Z</time>
      </trkpt>
      <trkpt lat="42.317991" lon="-8.807214">
        <ele>51.6</ele>
        <time>1970-01-01T04:03:25.000Z</time>
      </trkpt>
      <trkpt lat="42.317999" lon="-8.807229">
        <ele>51.8</ele>
        <time>1970-01-01T04:03:26.000Z</time>
      </trkpt>
      <trkpt lat="42.318007" lon="-8.807242">
        <ele>51.8</ele>
        <time>1970-01-01T04:03:27.000Z</time>
      </trkpt>
      <trkpt lat="42.318014" lon="-8.807256">
        <ele>52</ele>
        <time>1970-01-01T04:03:28.000Z</time>
      </trkpt>
      <trkpt lat="42.318021" lon="-8.807268">
        <ele>52.2</ele>
        <time>1970-01-01T04:03:29.000Z</time>
      </trkpt>
      <trkpt lat="42.318025" lon="-8.807274">
        <ele>52.4</ele>
        <time>1970-01-01T04:03:30.000Z</time>
      </trkpt>
      <trkpt lat="42.318031" lon="-8.807292">
        <ele>52.6</ele>
        <time>1970-01-01T04:03:31.000Z</time>
      </trkpt>
      <trkpt lat="42.318039" lon="-8.807306">
        <ele>52.8</ele>
        <time>1970-01-01T04:03:32.000Z</time>
      </trkpt>
      <trkpt lat="42.318049" lon="-8.807324">
        <ele>53</ele>
        <time>1970-01-01T04:03:33.000Z</time>
      </trkpt>
      <trkpt lat="42.318063" lon="-8.807341">
        <ele>53.2</ele>
        <time>1970-01-01T04:03:34.000Z</time>
      </trkpt>
      <trkpt lat="42.318073" lon="-8.807362">
        <ele>53.2</ele>
        <time>1970-01-01T04:03:35.000Z</time>
      </trkpt>
      <trkpt lat="42.318087" lon="-8.807378">
        <ele>53.4</ele>
        <time>1970-01-01T04:03:36.000Z</time>
      </trkpt>
      <trkpt lat="42.3181" lon="-8.807393">
        <ele>53.6</ele>
        <time>1970-01-01T04:03:37.000Z</time>
      </trkpt>
      <trkpt lat="42.318115" lon="-8.807407">
        <ele>53.8</ele>
        <time>1970-01-01T04:03:38.000Z</time>
      </trkpt>
      <trkpt lat="42.318121" lon="-8.807421">
        <ele>54</ele>
        <time>1970-01-01T04:03:39.000Z</time>
      </trkpt>
      <trkpt lat="42.318131" lon="-8.807432">
        <ele>54</ele>
        <time>1970-01-01T04:03:40.000Z</time>
      </trkpt>
      <trkpt lat="42.318146" lon="-8.807446">
        <ele>54.2</ele>
        <time>1970-01-01T04:03:41.000Z</time>
      </trkpt>
      <trkpt lat="42.318161" lon="-8.807456">
        <ele>54.4</ele>
        <time>1970-01-01T04:03:42.000Z</time>
      </trkpt>
      <trkpt lat="42.318176" lon="-8.80746">
        <ele>54.4</ele>
        <time>1970-01-01T04:03:43.000Z</time>
      </trkpt>
      <trkpt lat="42.318192" lon="-8.807464">
        <ele>54.6</ele>
        <time>1970-01-01T04:03:44.000Z</time>
      </trkpt>
      <trkpt lat="42.318206" lon="-8.807467">
        <ele>54.6</ele>
        <time>1970-01-01T04:03:45.000Z</time>
      </trkpt>
      <trkpt lat="42.318219" lon="-8.807471">
        <ele>54.6</ele>
        <time>1970-01-01T04:03:46.000Z</time>
      </trkpt>
      <trkpt lat="42.318231" lon="-8.807478">
        <ele>54.6</ele>
        <time>1970-01-01T04:03:47.000Z</time>
      </trkpt>
      <trkpt lat="42.318242" lon="-8.80748">
        <ele>54.6</ele>
        <time>1970-01-01T04:03:48.000Z</time>
      </trkpt>
      <trkpt lat="42.318256" lon="-8.807479">
        <ele>54.8</ele>
        <time>1970-01-01T04:03:49.000Z</time>
      </trkpt>
      <trkpt lat="42.318268" lon="-8.807479">
        <ele>54.8</ele>
        <time>1970-01-01T04:03:50.000Z</time>
      </trkpt>
      <trkpt lat="42.318283" lon="-8.807486">
        <ele>54.8</ele>
        <time>1970-01-01T04:03:51.000Z</time>
      </trkpt>
      <trkpt lat="42.318298" lon="-8.807495">
        <ele>54.8</ele>
        <time>1970-01-01T04:03:52.000Z</time>
      </trkpt>
      <trkpt lat="42.318309" lon="-8.807506">
        <ele>54.8</ele>
        <time>1970-01-01T04:03:53.000Z</time>
      </trkpt>
      <trkpt lat="42.318322" lon="-8.807512">
        <ele>54.8</ele>
        <time>1970-01-01T04:03:54.000Z</time>
      </trkpt>
      <trkpt lat="42.318336" lon="-8.807516">
        <ele>54.8</ele>
        <time>1970-01-01T04:03:55.000Z</time>
      </trkpt>
      <trkpt lat="42.318348" lon="-8.807519">
        <ele>54.6</ele>
        <time>1970-01-01T04:03:56.000Z</time>
      </trkpt>
      <trkpt lat="42.31836" lon="-8.807526">
        <ele>54.6</ele>
        <time>1970-01-01T04:03:57.000Z</time>
      </trkpt>
      <trkpt lat="42.318372" lon="-8.807532">
        <ele>54.6</ele>
        <time>1970-01-01T04:03:58.000Z</time>
      </trkpt>
      <trkpt lat="42.318383" lon="-8.80754">
        <ele>54.6</ele>
        <time>1970-01-01T04:03:59.000Z</time>
      </trkpt>
      <trkpt lat="42.318395" lon="-8.807546">
        <ele>54.4</ele>
        <time>1970-01-01T04:04:00.000Z</time>
      </trkpt>
      <trkpt lat="42.31841" lon="-8.807554">
        <ele>54.6</ele>
        <time>1970-01-01T04:04:01.000Z</time>
      </trkpt>
      <trkpt lat="42.318423" lon="-8.80756">
        <ele>54.6</ele>
        <time>1970-01-01T04:04:02.000Z</time>
      </trkpt>
      <trkpt lat="42.31844" lon="-8.807562">
        <ele>54.6</ele>
        <time>1970-01-01T04:04:03.000Z</time>
      </trkpt>
      <trkpt lat="42.318455" lon="-8.807567">
        <ele>54.6</ele>
        <time>1970-01-01T04:04:04.000Z</time>
      </trkpt>
      <trkpt lat="42.318468" lon="-8.807574">
        <ele>54.6</ele>
        <time>1970-01-01T04:04:05.000Z</time>
      </trkpt>
      <trkpt lat="42.31848" lon="-8.807578">
        <ele>54.6</ele>
        <time>1970-01-01T04:04:06.000Z</time>
      </trkpt>
      <trkpt lat="42.318492" lon="-8.807581">
        <ele>54.6</ele>
        <time>1970-01-01T04:04:07.000Z</time>
      </trkpt>
      <trkpt lat="42.318502" lon="-8.807582">
        <ele>54.6</ele>
        <time>1970-01-01T04:04:08.000Z</time>
      </trkpt>
      <trkpt lat="42.318513" lon="-8.807583">
        <ele>54.6</ele>
        <time>1970-01-01T04:04:09.000Z</time>
      </trkpt>
      <trkpt lat="42.318523" lon="-8.807585">
        <ele>54.4</ele>
        <time>1970-01-01T04:04:10.000Z</time>
      </trkpt>
      <trkpt lat="42.318535" lon="-8.807587">
        <ele>54.4</ele>
        <time>1970-01-01T04:04:11.000Z</time>
      </trkpt>
      <trkpt lat="42.318548" lon="-8.807589">
        <ele>54.4</ele>
        <time>1970-01-01T04:04:12.000Z</time>
      </trkpt>
      <trkpt lat="42.318567" lon="-8.80759">
        <ele>54.4</ele>
        <time>1970-01-01T04:04:13.000Z</time>
      </trkpt>
      <trkpt lat="42.318584" lon="-8.807591">
        <ele>54.4</ele>
        <time>1970-01-01T04:04:14.000Z</time>
      </trkpt>
      <trkpt lat="42.318601" lon="-8.807591">
        <ele>54.6</ele>
        <time>1970-01-01T04:04:15.000Z</time>
      </trkpt>
      <trkpt lat="42.318616" lon="-8.807589">
        <ele>54.8</ele>
        <time>1970-01-01T04:04:16.000Z</time>
      </trkpt>
      <trkpt lat="42.318628" lon="-8.807586">
        <ele>55.2</ele>
        <time>1970-01-01T04:04:17.000Z</time>
      </trkpt>
      <trkpt lat="42.318643" lon="-8.807584">
        <ele>55.4</ele>
        <time>1970-01-01T04:04:18.000Z</time>
      </trkpt>
      <trkpt lat="42.318656" lon="-8.807586">
        <ele>55.4</ele>
        <time>1970-01-01T04:04:19.000Z</time>
      </trkpt>
      <trkpt lat="42.318671" lon="-8.807586">
        <ele>55.4</ele>
        <time>1970-01-01T04:04:20.000Z</time>
      </trkpt>
      <trkpt lat="42.318686" lon="-8.807584">
        <ele>55.4</ele>
        <time>1970-01-01T04:04:21.000Z</time>
      </trkpt>
      <trkpt lat="42.318699" lon="-8.807581">
        <ele>55.4</ele>
        <time>1970-01-01T04:04:22.000Z</time>
      </trkpt>
      <trkpt lat="42.318714" lon="-8.807577">
        <ele>55.2</ele>
        <time>1970-01-01T04:04:23.000Z</time>
      </trkpt>
      <trkpt lat="42.318731" lon="-8.807572">
        <ele>55.2</ele>
        <time>1970-01-01T04:04:24.000Z</time>
      </trkpt>
      <trkpt lat="42.318746" lon="-8.807568">
        <ele>55.2</ele>
        <time>1970-01-01T04:04:25.000Z</time>
      </trkpt>
      <trkpt lat="42.318758" lon="-8.807567">
        <ele>55.2</ele>
        <time>1970-01-01T04:04:26.000Z</time>
      </trkpt>
      <trkpt lat="42.318773" lon="-8.807567">
        <ele>55.2</ele>
        <time>1970-01-01T04:04:27.000Z</time>
      </trkpt>
      <trkpt lat="42.318786" lon="-8.807567">
        <ele>55.2</ele>
        <time>1970-01-01T04:04:28.000Z</time>
      </trkpt>
      <trkpt lat="42.3188" lon="-8.807568">
        <ele>55.2</ele>
        <time>1970-01-01T04:04:29.000Z</time>
      </trkpt>
      <trkpt lat="42.318813" lon="-8.80757">
        <ele>55.2</ele>
        <time>1970-01-01T04:04:30.000Z</time>
      </trkpt>
      <trkpt lat="42.318825" lon="-8.807574">
        <ele>55.4</ele>
        <time>1970-01-01T04:04:31.000Z</time>
      </trkpt>
      <trkpt lat="42.318837" lon="-8.807578">
        <ele>55.4</ele>
        <time>1970-01-01T04:04:32.000Z</time>
      </trkpt>
      <trkpt lat="42.318854" lon="-8.807581">
        <ele>55.4</ele>
        <time>1970-01-01T04:04:33.000Z</time>
      </trkpt>
      <trkpt lat="42.31887" lon="-8.807582">
        <ele>55.4</ele>
        <time>1970-01-01T04:04:34.000Z</time>
      </trkpt>
      <trkpt lat="42.318886" lon="-8.807578">
        <ele>55.4</ele>
        <time>1970-01-01T04:04:35.000Z</time>
      </trkpt>
      <trkpt lat="42.318902" lon="-8.807575">
        <ele>55.4</ele>
        <time>1970-01-01T04:04:36.000Z</time>
      </trkpt>
      <trkpt lat="42.318921" lon="-8.807576">
        <ele>55.4</ele>
        <time>1970-01-01T04:04:37.000Z</time>
      </trkpt>
      <trkpt lat="42.31894" lon="-8.807578">
        <ele>55.4</ele>
        <time>1970-01-01T04:04:38.000Z</time>
      </trkpt>
      <trkpt lat="42.318958" lon="-8.807582">
        <ele>55.2</ele>
        <time>1970-01-01T04:04:39.000Z</time>
      </trkpt>
      <trkpt lat="42.318976" lon="-8.807587">
        <ele>55</ele>
        <time>1970-01-01T04:04:40.000Z</time>
      </trkpt>
      <trkpt lat="42.318995" lon="-8.807598">
        <ele>55</ele>
        <time>1970-01-01T04:04:41.000Z</time>
      </trkpt>
      <trkpt lat="42.319008" lon="-8.807605">
        <ele>55</ele>
        <time>1970-01-01T04:04:42.000Z</time>
      </trkpt>
      <trkpt lat="42.319019" lon="-8.807609">
        <ele>54.8</ele>
        <time>1970-01-01T04:04:43.000Z</time>
      </trkpt>
      <trkpt lat="42.319032" lon="-8.807612">
        <ele>54.8</ele>
        <time>1970-01-01T04:04:44.000Z</time>
      </trkpt>
      <trkpt lat="42.319044" lon="-8.807617">
        <ele>54.8</ele>
        <time>1970-01-01T04:04:45.000Z</time>
      </trkpt>
      <trkpt lat="42.319056" lon="-8.807622">
        <ele>54.8</ele>
        <time>1970-01-01T04:04:46.000Z</time>
      </trkpt>
      <trkpt lat="42.319067" lon="-8.807627">
        <ele>54.8</ele>
        <time>1970-01-01T04:04:47.000Z</time>
      </trkpt>
      <trkpt lat="42.319081" lon="-8.807636">
        <ele>54.8</ele>
        <time>1970-01-01T04:04:48.000Z</time>
      </trkpt>
      <trkpt lat="42.319095" lon="-8.807646">
        <ele>54.6</ele>
        <time>1970-01-01T04:04:49.000Z</time>
      </trkpt>
      <trkpt lat="42.319109" lon="-8.807654">
        <ele>54.8</ele>
        <time>1970-01-01T04:04:50.000Z</time>
      </trkpt>
      <trkpt lat="42.319126" lon="-8.807659">
        <ele>54.8</ele>
        <time>1970-01-01T04:04:51.000Z</time>
      </trkpt>
      <trkpt lat="42.319139" lon="-8.80767">
        <ele>54.6</ele>
        <time>1970-01-01T04:04:52.000Z</time>
      </trkpt>
      <trkpt lat="42.319151" lon="-8.807679">
        <ele>54.2</ele>
        <time>1970-01-01T04:04:53.000Z</time>
      </trkpt>
      <trkpt lat="42.319164" lon="-8.807683">
        <ele>54.2</ele>
        <time>1970-01-01T04:04:54.000Z</time>
      </trkpt>
      <trkpt lat="42.319177" lon="-8.807688">
        <ele>54</ele>
        <time>1970-01-01T04:04:55.000Z</time>
      </trkpt>
      <trkpt lat="42.31919" lon="-8.80769">
        <ele>53.8</ele>
        <time>1970-01-01T04:04:56.000Z</time>
      </trkpt>
      <trkpt lat="42.319201" lon="-8.807689">
        <ele>53.6</ele>
        <time>1970-01-01T04:04:57.000Z</time>
      </trkpt>
      <trkpt lat="42.319213" lon="-8.80769">
        <ele>53.4</ele>
        <time>1970-01-01T04:04:58.000Z</time>
      </trkpt>
      <trkpt lat="42.319227" lon="-8.807686">
        <ele>53.2</ele>
        <time>1970-01-01T04:04:59.000Z</time>
      </trkpt>
      <trkpt lat="42.31924" lon="-8.807681">
        <ele>53.2</ele>
        <time>1970-01-01T04:05:00.000Z</time>
      </trkpt>
      <trkpt lat="42.319255" lon="-8.807678">
        <ele>53</ele>
        <time>1970-01-01T04:05:01.000Z</time>
      </trkpt>
      <trkpt lat="42.31927" lon="-8.807678">
        <ele>53.2</ele>
        <time>1970-01-01T04:05:02.000Z</time>
      </trkpt>
      <trkpt lat="42.319288" lon="-8.80768">
        <ele>53.2</ele>
        <time>1970-01-01T04:05:03.000Z</time>
      </trkpt>
      <trkpt lat="42.319304" lon="-8.807685">
        <ele>53.4</ele>
        <time>1970-01-01T04:05:04.000Z</time>
      </trkpt>
      <trkpt lat="42.319321" lon="-8.80769">
        <ele>53.4</ele>
        <time>1970-01-01T04:05:05.000Z</time>
      </trkpt>
      <trkpt lat="42.319339" lon="-8.807698">
        <ele>53.4</ele>
        <time>1970-01-01T04:05:06.000Z</time>
      </trkpt>
      <trkpt lat="42.319353" lon="-8.807705">
        <ele>53.4</ele>
        <time>1970-01-01T04:05:07.000Z</time>
      </trkpt>
      <trkpt lat="42.319366" lon="-8.807709">
        <ele>52.6</ele>
        <time>1970-01-01T04:05:08.000Z</time>
      </trkpt>
      <trkpt lat="42.319378" lon="-8.807711">
        <ele>52.2</ele>
        <time>1970-01-01T04:05:09.000Z</time>
      </trkpt>
      <trkpt lat="42.31939" lon="-8.807714">
        <ele>51.8</ele>
        <time>1970-01-01T04:05:10.000Z</time>
      </trkpt>
      <trkpt lat="42.319405" lon="-8.807715">
        <ele>51.6</ele>
        <time>1970-01-01T04:05:11.000Z</time>
      </trkpt>
      <trkpt lat="42.319419" lon="-8.807718">
        <ele>51.4</ele>
        <time>1970-01-01T04:05:12.000Z</time>
      </trkpt>
      <trkpt lat="42.319433" lon="-8.807721">
        <ele>51.4</ele>
        <time>1970-01-01T04:05:13.000Z</time>
      </trkpt>
      <trkpt lat="42.319446" lon="-8.807727">
        <ele>51.4</ele>
        <time>1970-01-01T04:05:14.000Z</time>
      </trkpt>
      <trkpt lat="42.31946" lon="-8.807732">
        <ele>51.2</ele>
        <time>1970-01-01T04:05:15.000Z</time>
      </trkpt>
      <trkpt lat="42.319477" lon="-8.807737">
        <ele>51.2</ele>
        <time>1970-01-01T04:05:16.000Z</time>
      </trkpt>
      <trkpt lat="42.319494" lon="-8.807743">
        <ele>51.6</ele>
        <time>1970-01-01T04:05:17.000Z</time>
      </trkpt>
      <trkpt lat="42.31951" lon="-8.807748">
        <ele>52</ele>
        <time>1970-01-01T04:05:18.000Z</time>
      </trkpt>
      <trkpt lat="42.319527" lon="-8.807751">
        <ele>52.2</ele>
        <time>1970-01-01T04:05:19.000Z</time>
      </trkpt>
      <trkpt lat="42.319543" lon="-8.807751">
        <ele>52.4</ele>
        <time>1970-01-01T04:05:20.000Z</time>
      </trkpt>
      <trkpt lat="42.31956" lon="-8.807749">
        <ele>52.4</ele>
        <time>1970-01-01T04:05:21.000Z</time>
      </trkpt>
      <trkpt lat="42.319577" lon="-8.807746">
        <ele>52.6</ele>
        <time>1970-01-01T04:05:22.000Z</time>
      </trkpt>
      <trkpt lat="42.319594" lon="-8.80774">
        <ele>52.4</ele>
        <time>1970-01-01T04:05:23.000Z</time>
      </trkpt>
      <trkpt lat="42.31961" lon="-8.807735">
        <ele>52.4</ele>
        <time>1970-01-01T04:05:24.000Z</time>
      </trkpt>
      <trkpt lat="42.319626" lon="-8.807726">
        <ele>52.4</ele>
        <time>1970-01-01T04:05:25.000Z</time>
      </trkpt>
      <trkpt lat="42.319643" lon="-8.807717">
        <ele>52.4</ele>
        <time>1970-01-01T04:05:26.000Z</time>
      </trkpt>
      <trkpt lat="42.319656" lon="-8.80771">
        <ele>52.4</ele>
        <time>1970-01-01T04:05:27.000Z</time>
      </trkpt>
      <trkpt lat="42.319669" lon="-8.807703">
        <ele>52.4</ele>
        <time>1970-01-01T04:05:28.000Z</time>
      </trkpt>
      <trkpt lat="42.319682" lon="-8.8077">
        <ele>52.4</ele>
        <time>1970-01-01T04:05:29.000Z</time>
      </trkpt>
      <trkpt lat="42.319695" lon="-8.807697">
        <ele>52.4</ele>
        <time>1970-01-01T04:05:30.000Z</time>
      </trkpt>
      <trkpt lat="42.319706" lon="-8.807689">
        <ele>52.4</ele>
        <time>1970-01-01T04:05:31.000Z</time>
      </trkpt>
      <trkpt lat="42.319719" lon="-8.807683">
        <ele>52.4</ele>
        <time>1970-01-01T04:05:32.000Z</time>
      </trkpt>
      <trkpt lat="42.319734" lon="-8.807673">
        <ele>52.4</ele>
        <time>1970-01-01T04:05:33.000Z</time>
      </trkpt>
      <trkpt lat="42.319749" lon="-8.807664">
        <ele>52.4</ele>
        <time>1970-01-01T04:05:34.000Z</time>
      </trkpt>
      <trkpt lat="42.319768" lon="-8.807644">
        <ele>52.6</ele>
        <time>1970-01-01T04:05:35.000Z</time>
      </trkpt>
      <trkpt lat="42.319782" lon="-8.807631">
        <ele>52.6</ele>
        <time>1970-01-01T04:05:36.000Z</time>
      </trkpt>
      <trkpt lat="42.319794" lon="-8.80762">
        <ele>52.6</ele>
        <time>1970-01-01T04:05:37.000Z</time>
      </trkpt>
      <trkpt lat="42.319806" lon="-8.807608">
        <ele>52.6</ele>
        <time>1970-01-01T04:05:38.000Z</time>
      </trkpt>
      <trkpt lat="42.319818" lon="-8.807593">
        <ele>52.6</ele>
        <time>1970-01-01T04:05:39.000Z</time>
      </trkpt>
      <trkpt lat="42.319831" lon="-8.80758">
        <ele>52.6</ele>
        <time>1970-01-01T04:05:40.000Z</time>
      </trkpt>
      <trkpt lat="42.319845" lon="-8.807568">
        <ele>52.8</ele>
        <time>1970-01-01T04:05:41.000Z</time>
      </trkpt>
      <trkpt lat="42.319859" lon="-8.807559">
        <ele>52.8</ele>
        <time>1970-01-01T04:05:42.000Z</time>
      </trkpt>
      <trkpt lat="42.319874" lon="-8.807551">
        <ele>53</ele>
        <time>1970-01-01T04:05:43.000Z</time>
      </trkpt>
      <trkpt lat="42.31989" lon="-8.807543">
        <ele>53.2</ele>
        <time>1970-01-01T04:05:44.000Z</time>
      </trkpt>
      <trkpt lat="42.319908" lon="-8.807536">
        <ele>53.4</ele>
        <time>1970-01-01T04:05:45.000Z</time>
      </trkpt>
      <trkpt lat="42.319921" lon="-8.807531">
        <ele>53.6</ele>
        <time>1970-01-01T04:05:46.000Z</time>
      </trkpt>
      <trkpt lat="42.319935" lon="-8.807527">
        <ele>53.8</ele>
        <time>1970-01-01T04:05:47.000Z</time>
      </trkpt>
      <trkpt lat="42.319948" lon="-8.807523">
        <ele>53.8</ele>
        <time>1970-01-01T04:05:48.000Z</time>
      </trkpt>
      <trkpt lat="42.31996" lon="-8.807517">
        <ele>54</ele>
        <time>1970-01-01T04:05:49.000Z</time>
      </trkpt>
      <trkpt lat="42.31997" lon="-8.80751">
        <ele>54</ele>
        <time>1970-01-01T04:05:50.000Z</time>
      </trkpt>
      <trkpt lat="42.319979" lon="-8.807501">
        <ele>54</ele>
        <time>1970-01-01T04:05:51.000Z</time>
      </trkpt>
      <trkpt lat="42.319989" lon="-8.807493">
        <ele>54</ele>
        <time>1970-01-01T04:05:52.000Z</time>
      </trkpt>
      <trkpt lat="42.319999" lon="-8.807485">
        <ele>54.2</ele>
        <time>1970-01-01T04:05:53.000Z</time>
      </trkpt>
      <trkpt lat="42.320011" lon="-8.807478">
        <ele>54.4</ele>
        <time>1970-01-01T04:05:54.000Z</time>
      </trkpt>
      <trkpt lat="42.320022" lon="-8.807471">
        <ele>54.4</ele>
        <time>1970-01-01T04:05:55.000Z</time>
      </trkpt>
      <trkpt lat="42.320035" lon="-8.807461">
        <ele>54.4</ele>
        <time>1970-01-01T04:05:56.000Z</time>
      </trkpt>
      <trkpt lat="42.320044" lon="-8.807454">
        <ele>54.4</ele>
        <time>1970-01-01T04:05:57.000Z</time>
      </trkpt>
      <trkpt lat="42.320051" lon="-8.807448">
        <ele>54.6</ele>
        <time>1970-01-01T04:05:58.000Z</time>
      </trkpt>
      <trkpt lat="42.320055" lon="-8.807446">
        <ele>54.6</ele>
        <time>1970-01-01T04:05:59.000Z</time>
      </trkpt>
      <trkpt lat="42.320057" lon="-8.807444">
        <ele>54.6</ele>
        <time>1970-01-01T04:06:00.000Z</time>
      </trkpt>
      <trkpt lat="42.32006" lon="-8.80744">
        <ele>54.6</ele>
        <time>1970-01-01T04:06:01.000Z</time>
      </trkpt>
      <trkpt lat="42.320064" lon="-8.807434">
        <ele>54.6</ele>
        <time>1970-01-01T04:06:02.000Z</time>
      </trkpt>
      <trkpt lat="42.320068" lon="-8.807426">
        <ele>54.6</ele>
        <time>1970-01-01T04:06:03.000Z</time>
      </trkpt>
      <trkpt lat="42.320071" lon="-8.807414">
        <ele>54.6</ele>
        <time>1970-01-01T04:06:04.000Z</time>
      </trkpt>
      <trkpt lat="42.320075" lon="-8.807399">
        <ele>54.6</ele>
        <time>1970-01-01T04:06:05.000Z</time>
      </trkpt>
      <trkpt lat="42.32008" lon="-8.807381">
        <ele>54.8</ele>
        <time>1970-01-01T04:06:06.000Z</time>
      </trkpt>
      <trkpt lat="42.320088" lon="-8.807366">
        <ele>54.8</ele>
        <time>1970-01-01T04:06:07.000Z</time>
      </trkpt>
      <trkpt lat="42.320096" lon="-8.807348">
        <ele>55</ele>
        <time>1970-01-01T04:06:08.000Z</time>
      </trkpt>
      <trkpt lat="42.320104" lon="-8.807332">
        <ele>55</ele>
        <time>1970-01-01T04:06:09.000Z</time>
      </trkpt>
      <trkpt lat="42.320114" lon="-8.80732">
        <ele>55.2</ele>
        <time>1970-01-01T04:06:10.000Z</time>
      </trkpt>
      <trkpt lat="42.320124" lon="-8.807307">
        <ele>55.2</ele>
        <time>1970-01-01T04:06:11.000Z</time>
      </trkpt>
      <trkpt lat="42.320134" lon="-8.807294">
        <ele>55.6</ele>
        <time>1970-01-01T04:06:12.000Z</time>
      </trkpt>
      <trkpt lat="42.320147" lon="-8.80728">
        <ele>55.8</ele>
        <time>1970-01-01T04:06:13.000Z</time>
      </trkpt>
      <trkpt lat="42.320159" lon="-8.807267">
        <ele>56</ele>
        <time>1970-01-01T04:06:14.000Z</time>
      </trkpt>
      <trkpt lat="42.320169" lon="-8.807253">
        <ele>56.2</ele>
        <time>1970-01-01T04:06:15.000Z</time>
      </trkpt>
      <trkpt lat="42.320179" lon="-8.807237">
        <ele>56.2</ele>
        <time>1970-01-01T04:06:16.000Z</time>
      </trkpt>
      <trkpt lat="42.32019" lon="-8.807226">
        <ele>56.2</ele>
        <time>1970-01-01T04:06:17.000Z</time>
      </trkpt>
      <trkpt lat="42.320199" lon="-8.807216">
        <ele>56.2</ele>
        <time>1970-01-01T04:06:18.000Z</time>
      </trkpt>
      <trkpt lat="42.320203" lon="-8.807199">
        <ele>56.4</ele>
        <time>1970-01-01T04:06:19.000Z</time>
      </trkpt>
      <trkpt lat="42.320207" lon="-8.807179">
        <ele>56.4</ele>
        <time>1970-01-01T04:06:20.000Z</time>
      </trkpt>
      <trkpt lat="42.320212" lon="-8.807163">
        <ele>56.4</ele>
        <time>1970-01-01T04:06:21.000Z</time>
      </trkpt>
      <trkpt lat="42.320217" lon="-8.807147">
        <ele>56.6</ele>
        <time>1970-01-01T04:06:22.000Z</time>
      </trkpt>
      <trkpt lat="42.320225" lon="-8.807128">
        <ele>56.8</ele>
        <time>1970-01-01T04:06:23.000Z</time>
      </trkpt>
      <trkpt lat="42.320235" lon="-8.807113">
        <ele>57</ele>
        <time>1970-01-01T04:06:24.000Z</time>
      </trkpt>
      <trkpt lat="42.320245" lon="-8.807098">
        <ele>57.2</ele>
        <time>1970-01-01T04:06:25.000Z</time>
      </trkpt>
      <trkpt lat="42.320254" lon="-8.807083">
        <ele>57.6</ele>
        <time>1970-01-01T04:06:26.000Z</time>
      </trkpt>
      <trkpt lat="42.320269" lon="-8.80707">
        <ele>57.8</ele>
        <time>1970-01-01T04:06:27.000Z</time>
      </trkpt>
      <trkpt lat="42.320283" lon="-8.807057">
        <ele>57.8</ele>
        <time>1970-01-01T04:06:28.000Z</time>
      </trkpt>
      <trkpt lat="42.320295" lon="-8.807048">
        <ele>58</ele>
        <time>1970-01-01T04:06:29.000Z</time>
      </trkpt>
      <trkpt lat="42.320307" lon="-8.807041">
        <ele>58.2</ele>
        <time>1970-01-01T04:06:30.000Z</time>
      </trkpt>
      <trkpt lat="42.320318" lon="-8.807037">
        <ele>58.4</ele>
        <time>1970-01-01T04:06:31.000Z</time>
      </trkpt>
      <trkpt lat="42.320327" lon="-8.807034">
        <ele>58.4</ele>
        <time>1970-01-01T04:06:32.000Z</time>
      </trkpt>
      <trkpt lat="42.320339" lon="-8.807039">
        <ele>58.4</ele>
        <time>1970-01-01T04:06:33.000Z</time>
      </trkpt>
      <trkpt lat="42.320355" lon="-8.807045">
        <ele>58.2</ele>
        <time>1970-01-01T04:06:34.000Z</time>
      </trkpt>
      <trkpt lat="42.320371" lon="-8.807053">
        <ele>58.2</ele>
        <time>1970-01-01T04:06:35.000Z</time>
      </trkpt>
      <trkpt lat="42.320387" lon="-8.80706">
        <ele>58</ele>
        <time>1970-01-01T04:06:36.000Z</time>
      </trkpt>
      <trkpt lat="42.320403" lon="-8.807066">
        <ele>58</ele>
        <time>1970-01-01T04:06:37.000Z</time>
      </trkpt>
      <trkpt lat="42.320419" lon="-8.807074">
        <ele>57.8</ele>
        <time>1970-01-01T04:06:38.000Z</time>
      </trkpt>
      <trkpt lat="42.320438" lon="-8.80708">
        <ele>57.8</ele>
        <time>1970-01-01T04:06:39.000Z</time>
      </trkpt>
      <trkpt lat="42.320459" lon="-8.807086">
        <ele>57.6</ele>
        <time>1970-01-01T04:06:40.000Z</time>
      </trkpt>
      <trkpt lat="42.320477" lon="-8.807092">
        <ele>57.6</ele>
        <time>1970-01-01T04:06:41.000Z</time>
      </trkpt>
      <trkpt lat="42.320494" lon="-8.807096">
        <ele>57.4</ele>
        <time>1970-01-01T04:06:42.000Z</time>
      </trkpt>
      <trkpt lat="42.32051" lon="-8.807098">
        <ele>57.4</ele>
        <time>1970-01-01T04:06:43.000Z</time>
      </trkpt>
      <trkpt lat="42.320526" lon="-8.807097">
        <ele>57.2</ele>
        <time>1970-01-01T04:06:44.000Z</time>
      </trkpt>
      <trkpt lat="42.32054" lon="-8.807095">
        <ele>57.2</ele>
        <time>1970-01-01T04:06:45.000Z</time>
      </trkpt>
      <trkpt lat="42.320553" lon="-8.807093">
        <ele>57.2</ele>
        <time>1970-01-01T04:06:46.000Z</time>
      </trkpt>
      <trkpt lat="42.320564" lon="-8.807091">
        <ele>57.4</ele>
        <time>1970-01-01T04:06:47.000Z</time>
      </trkpt>
      <trkpt lat="42.320575" lon="-8.807088">
        <ele>57.2</ele>
        <time>1970-01-01T04:06:48.000Z</time>
      </trkpt>
      <trkpt lat="42.320586" lon="-8.807081">
        <ele>57.2</ele>
        <time>1970-01-01T04:06:49.000Z</time>
      </trkpt>
      <trkpt lat="42.320598" lon="-8.807079">
        <ele>57.2</ele>
        <time>1970-01-01T04:06:50.000Z</time>
      </trkpt>
      <trkpt lat="42.320611" lon="-8.807074">
        <ele>56.4</ele>
        <time>1970-01-01T04:06:51.000Z</time>
      </trkpt>
      <trkpt lat="42.320624" lon="-8.807072">
        <ele>56.2</ele>
        <time>1970-01-01T04:06:52.000Z</time>
      </trkpt>
      <trkpt lat="42.320637" lon="-8.807071">
        <ele>56</ele>
        <time>1970-01-01T04:06:53.000Z</time>
      </trkpt>
      <trkpt lat="42.320649" lon="-8.807069">
        <ele>55.8</ele>
        <time>1970-01-01T04:06:54.000Z</time>
      </trkpt>
      <trkpt lat="42.320663" lon="-8.807071">
        <ele>55.8</ele>
        <time>1970-01-01T04:06:55.000Z</time>
      </trkpt>
      <trkpt lat="42.32068" lon="-8.807074">
        <ele>55.8</ele>
        <time>1970-01-01T04:06:56.000Z</time>
      </trkpt>
      <trkpt lat="42.320696" lon="-8.807074">
        <ele>55.8</ele>
        <time>1970-01-01T04:06:57.000Z</time>
      </trkpt>
      <trkpt lat="42.32071" lon="-8.807074">
        <ele>55.6</ele>
        <time>1970-01-01T04:06:58.000Z</time>
      </trkpt>
      <trkpt lat="42.320723" lon="-8.807073">
        <ele>55.4</ele>
        <time>1970-01-01T04:06:59.000Z</time>
      </trkpt>
      <trkpt lat="42.320735" lon="-8.807071">
        <ele>55.4</ele>
        <time>1970-01-01T04:07:00.000Z</time>
      </trkpt>
      <trkpt lat="42.320748" lon="-8.807071">
        <ele>55.4</ele>
        <time>1970-01-01T04:07:01.000Z</time>
      </trkpt>
      <trkpt lat="42.320763" lon="-8.807072">
        <ele>55</ele>
        <time>1970-01-01T04:07:02.000Z</time>
      </trkpt>
      <trkpt lat="42.320779" lon="-8.807075">
        <ele>54.8</ele>
        <time>1970-01-01T04:07:03.000Z</time>
      </trkpt>
      <trkpt lat="42.320794" lon="-8.807072">
        <ele>54.6</ele>
        <time>1970-01-01T04:07:04.000Z</time>
      </trkpt>
      <trkpt lat="42.320809" lon="-8.807068">
        <ele>54.6</ele>
        <time>1970-01-01T04:07:05.000Z</time>
      </trkpt>
      <trkpt lat="42.320827" lon="-8.807068">
        <ele>54.4</ele>
        <time>1970-01-01T04:07:06.000Z</time>
      </trkpt>
      <trkpt lat="42.320845" lon="-8.807068">
        <ele>54.4</ele>
        <time>1970-01-01T04:07:07.000Z</time>
      </trkpt>
      <trkpt lat="42.320862" lon="-8.807064">
        <ele>54.4</ele>
        <time>1970-01-01T04:07:08.000Z</time>
      </trkpt>
      <trkpt lat="42.320878" lon="-8.807058">
        <ele>54.2</ele>
        <time>1970-01-01T04:07:09.000Z</time>
      </trkpt>
      <trkpt lat="42.320894" lon="-8.807055">
        <ele>54.2</ele>
        <time>1970-01-01T04:07:10.000Z</time>
      </trkpt>
      <trkpt lat="42.320909" lon="-8.807048">
        <ele>54</ele>
        <time>1970-01-01T04:07:11.000Z</time>
      </trkpt>
      <trkpt lat="42.320925" lon="-8.80704">
        <ele>54</ele>
        <time>1970-01-01T04:07:12.000Z</time>
      </trkpt>
      <trkpt lat="42.32094" lon="-8.807032">
        <ele>54</ele>
        <time>1970-01-01T04:07:13.000Z</time>
      </trkpt>
      <trkpt lat="42.320954" lon="-8.807027">
        <ele>53.8</ele>
        <time>1970-01-01T04:07:14.000Z</time>
      </trkpt>
      <trkpt lat="42.320968" lon="-8.807024">
        <ele>53.8</ele>
        <time>1970-01-01T04:07:15.000Z</time>
      </trkpt>
      <trkpt lat="42.320984" lon="-8.807023">
        <ele>53.8</ele>
        <time>1970-01-01T04:07:16.000Z</time>
      </trkpt>
      <trkpt lat="42.320998" lon="-8.807021">
        <ele>53.8</ele>
        <time>1970-01-01T04:07:17.000Z</time>
      </trkpt>
      <trkpt lat="42.321012" lon="-8.80702">
        <ele>53.8</ele>
        <time>1970-01-01T04:07:18.000Z</time>
      </trkpt>
      <trkpt lat="42.321024" lon="-8.80702">
        <ele>53.8</ele>
        <time>1970-01-01T04:07:19.000Z</time>
      </trkpt>
      <trkpt lat="42.321035" lon="-8.807021">
        <ele>53.8</ele>
        <time>1970-01-01T04:07:20.000Z</time>
      </trkpt>
      <trkpt lat="42.321045" lon="-8.807023">
        <ele>54</ele>
        <time>1970-01-01T04:07:21.000Z</time>
      </trkpt>
      <trkpt lat="42.321055" lon="-8.807022">
        <ele>54</ele>
        <time>1970-01-01T04:07:22.000Z</time>
      </trkpt>
      <trkpt lat="42.321066" lon="-8.807022">
        <ele>54</ele>
        <time>1970-01-01T04:07:23.000Z</time>
      </trkpt>
      <trkpt lat="42.321081" lon="-8.80702">
        <ele>54.2</ele>
        <time>1970-01-01T04:07:24.000Z</time>
      </trkpt>
      <trkpt lat="42.321096" lon="-8.807018">
        <ele>54.2</ele>
        <time>1970-01-01T04:07:25.000Z</time>
      </trkpt>
      <trkpt lat="42.32111" lon="-8.80701">
        <ele>54.2</ele>
        <time>1970-01-01T04:07:26.000Z</time>
      </trkpt>
      <trkpt lat="42.321124" lon="-8.807">
        <ele>54</ele>
        <time>1970-01-01T04:07:27.000Z</time>
      </trkpt>
      <trkpt lat="42.321138" lon="-8.806993">
        <ele>53.8</ele>
        <time>1970-01-01T04:07:28.000Z</time>
      </trkpt>
      <trkpt lat="42.321151" lon="-8.80699">
        <ele>53.6</ele>
        <time>1970-01-01T04:07:29.000Z</time>
      </trkpt>
      <trkpt lat="42.321168" lon="-8.806992">
        <ele>53.2</ele>
        <time>1970-01-01T04:07:30.000Z</time>
      </trkpt>
      <trkpt lat="42.321185" lon="-8.806996">
        <ele>53</ele>
        <time>1970-01-01T04:07:31.000Z</time>
      </trkpt>
      <trkpt lat="42.3212" lon="-8.806997">
        <ele>53.2</ele>
        <time>1970-01-01T04:07:32.000Z</time>
      </trkpt>
      <trkpt lat="42.321212" lon="-8.806995">
        <ele>53.2</ele>
        <time>1970-01-01T04:07:33.000Z</time>
      </trkpt>
      <trkpt lat="42.321226" lon="-8.806994">
        <ele>53.2</ele>
        <time>1970-01-01T04:07:34.000Z</time>
      </trkpt>
      <trkpt lat="42.321239" lon="-8.806995">
        <ele>53.2</ele>
        <time>1970-01-01T04:07:35.000Z</time>
      </trkpt>
      <trkpt lat="42.32125" lon="-8.806996">
        <ele>53.4</ele>
        <time>1970-01-01T04:07:36.000Z</time>
      </trkpt>
      <trkpt lat="42.321262" lon="-8.807001">
        <ele>53.4</ele>
        <time>1970-01-01T04:07:37.000Z</time>
      </trkpt>
      <trkpt lat="42.321275" lon="-8.807005">
        <ele>53.2</ele>
        <time>1970-01-01T04:07:38.000Z</time>
      </trkpt>
      <trkpt lat="42.321289" lon="-8.807009">
        <ele>53.2</ele>
        <time>1970-01-01T04:07:39.000Z</time>
      </trkpt>
      <trkpt lat="42.321305" lon="-8.807018">
        <ele>53.2</ele>
        <time>1970-01-01T04:07:40.000Z</time>
      </trkpt>
      <trkpt lat="42.321321" lon="-8.807026">
        <ele>53.2</ele>
        <time>1970-01-01T04:07:41.000Z</time>
      </trkpt>
      <trkpt lat="42.321337" lon="-8.807041">
        <ele>53.2</ele>
        <time>1970-01-01T04:07:42.000Z</time>
      </trkpt>
      <trkpt lat="42.321355" lon="-8.807049">
        <ele>53.2</ele>
        <time>1970-01-01T04:07:43.000Z</time>
      </trkpt>
      <trkpt lat="42.321368" lon="-8.807055">
        <ele>53.2</ele>
        <time>1970-01-01T04:07:44.000Z</time>
      </trkpt>
      <trkpt lat="42.321378" lon="-8.807059">
        <ele>53</ele>
        <time>1970-01-01T04:07:45.000Z</time>
      </trkpt>
      <trkpt lat="42.321386" lon="-8.807062">
        <ele>52.8</ele>
        <time>1970-01-01T04:07:46.000Z</time>
      </trkpt>
      <trkpt lat="42.321392" lon="-8.807067">
        <ele>52.8</ele>
        <time>1970-01-01T04:07:47.000Z</time>
      </trkpt>
      <trkpt lat="42.321401" lon="-8.807076">
        <ele>52.8</ele>
        <time>1970-01-01T04:07:48.000Z</time>
      </trkpt>
      <trkpt lat="42.321411" lon="-8.807089">
        <ele>52.6</ele>
        <time>1970-01-01T04:07:49.000Z</time>
      </trkpt>
      <trkpt lat="42.32142" lon="-8.807105">
        <ele>52.8</ele>
        <time>1970-01-01T04:07:50.000Z</time>
      </trkpt>
      <trkpt lat="42.321431" lon="-8.807121">
        <ele>52.8</ele>
        <time>1970-01-01T04:07:51.000Z</time>
      </trkpt>
      <trkpt lat="42.321442" lon="-8.807135">
        <ele>52.4</ele>
        <time>1970-01-01T04:07:52.000Z</time>
      </trkpt>
      <trkpt lat="42.321453" lon="-8.80715">
        <ele>52.2</ele>
        <time>1970-01-01T04:07:53.000Z</time>
      </trkpt>
      <trkpt lat="42.321462" lon="-8.807162">
        <ele>52.2</ele>
        <time>1970-01-01T04:07:54.000Z</time>
      </trkpt>
      <trkpt lat="42.321469" lon="-8.807174">
        <ele>52</ele>
        <time>1970-01-01T04:07:55.000Z</time>
      </trkpt>
      <trkpt lat="42.321477" lon="-8.807193">
        <ele>52</ele>
        <time>1970-01-01T04:07:56.000Z</time>
      </trkpt>
      <trkpt lat="42.321485" lon="-8.807209">
        <ele>51.8</ele>
        <time>1970-01-01T04:07:57.000Z</time>
      </trkpt>
      <trkpt lat="42.321494" lon="-8.807223">
        <ele>51.8</ele>
        <time>1970-01-01T04:07:58.000Z</time>
      </trkpt>
      <trkpt lat="42.321505" lon="-8.807238">
        <ele>51.6</ele>
        <time>1970-01-01T04:07:59.000Z</time>
      </trkpt>
      <trkpt lat="42.321517" lon="-8.807248">
        <ele>51.6</ele>
        <time>1970-01-01T04:08:00.000Z</time>
      </trkpt>
      <trkpt lat="42.321527" lon="-8.80726">
        <ele>51.2</ele>
        <time>1970-01-01T04:08:01.000Z</time>
      </trkpt>
      <trkpt lat="42.321536" lon="-8.807272">
        <ele>51</ele>
        <time>1970-01-01T04:08:02.000Z</time>
      </trkpt>
      <trkpt lat="42.321542" lon="-8.807281">
        <ele>50.8</ele>
        <time>1970-01-01T04:08:03.000Z</time>
      </trkpt>
      <trkpt lat="42.321546" lon="-8.807289">
        <ele>50.4</ele>
        <time>1970-01-01T04:08:04.000Z</time>
      </trkpt>
      <trkpt lat="42.321547" lon="-8.807298">
        <ele>50.2</ele>
        <time>1970-01-01T04:08:05.000Z</time>
      </trkpt>
      <trkpt lat="42.321548" lon="-8.807306">
        <ele>50</ele>
        <time>1970-01-01T04:08:06.000Z</time>
      </trkpt>
      <trkpt lat="42.321552" lon="-8.807316">
        <ele>49.8</ele>
        <time>1970-01-01T04:08:07.000Z</time>
      </trkpt>
      <trkpt lat="42.321556" lon="-8.807331">
        <ele>49.6</ele>
        <time>1970-01-01T04:08:08.000Z</time>
      </trkpt>
      <trkpt lat="42.321558" lon="-8.807349">
        <ele>49.4</ele>
        <time>1970-01-01T04:08:09.000Z</time>
      </trkpt>
      <trkpt lat="42.321566" lon="-8.807371">
        <ele>49</ele>
        <time>1970-01-01T04:08:10.000Z</time>
      </trkpt>
      <trkpt lat="42.321576" lon="-8.807394">
        <ele>48.8</ele>
        <time>1970-01-01T04:08:11.000Z</time>
      </trkpt>
      <trkpt lat="42.321587" lon="-8.807411">
        <ele>48.6</ele>
        <time>1970-01-01T04:08:12.000Z</time>
      </trkpt>
      <trkpt lat="42.321599" lon="-8.807427">
        <ele>48.4</ele>
        <time>1970-01-01T04:08:13.000Z</time>
      </trkpt>
      <trkpt lat="42.321612" lon="-8.807442">
        <ele>48.2</ele>
        <time>1970-01-01T04:08:14.000Z</time>
      </trkpt>
      <trkpt lat="42.321625" lon="-8.807458">
        <ele>48</ele>
        <time>1970-01-01T04:08:15.000Z</time>
      </trkpt>
      <trkpt lat="42.321635" lon="-8.807473">
        <ele>47.8</ele>
        <time>1970-01-01T04:08:16.000Z</time>
      </trkpt>
      <trkpt lat="42.321646" lon="-8.807489">
        <ele>47.6</ele>
        <time>1970-01-01T04:08:17.000Z</time>
      </trkpt>
      <trkpt lat="42.321657" lon="-8.807502">
        <ele>47.4</ele>
        <time>1970-01-01T04:08:18.000Z</time>
      </trkpt>
      <trkpt lat="42.321671" lon="-8.807513">
        <ele>47.2</ele>
        <time>1970-01-01T04:08:19.000Z</time>
      </trkpt>
      <trkpt lat="42.321681" lon="-8.807515">
        <ele>47.2</ele>
        <time>1970-01-01T04:08:20.000Z</time>
      </trkpt>
      <trkpt lat="42.32169" lon="-8.807516">
        <ele>47.2</ele>
        <time>1970-01-01T04:08:21.000Z</time>
      </trkpt>
      <trkpt lat="42.321701" lon="-8.807519">
        <ele>47.2</ele>
        <time>1970-01-01T04:08:22.000Z</time>
      </trkpt>
      <trkpt lat="42.321715" lon="-8.807525">
        <ele>47.2</ele>
        <time>1970-01-01T04:08:23.000Z</time>
      </trkpt>
      <trkpt lat="42.32173" lon="-8.80753">
        <ele>47.4</ele>
        <time>1970-01-01T04:08:24.000Z</time>
      </trkpt>
      <trkpt lat="42.321747" lon="-8.807529">
        <ele>47.4</ele>
        <time>1970-01-01T04:08:25.000Z</time>
      </trkpt>
      <trkpt lat="42.321762" lon="-8.807531">
        <ele>47.4</ele>
        <time>1970-01-01T04:08:26.000Z</time>
      </trkpt>
      <trkpt lat="42.321774" lon="-8.807538">
        <ele>47.6</ele>
        <time>1970-01-01T04:08:27.000Z</time>
      </trkpt>
      <trkpt lat="42.321785" lon="-8.807544">
        <ele>47.6</ele>
        <time>1970-01-01T04:08:28.000Z</time>
      </trkpt>
      <trkpt lat="42.321799" lon="-8.807553">
        <ele>47.6</ele>
        <time>1970-01-01T04:08:29.000Z</time>
      </trkpt>
      <trkpt lat="42.321816" lon="-8.807562">
        <ele>47.8</ele>
        <time>1970-01-01T04:08:30.000Z</time>
      </trkpt>
      <trkpt lat="42.321834" lon="-8.80757">
        <ele>47.8</ele>
        <time>1970-01-01T04:08:31.000Z</time>
      </trkpt>
      <trkpt lat="42.321852" lon="-8.807582">
        <ele>47.4</ele>
        <time>1970-01-01T04:08:32.000Z</time>
      </trkpt>
      <trkpt lat="42.321867" lon="-8.80759">
        <ele>47.2</ele>
        <time>1970-01-01T04:08:33.000Z</time>
      </trkpt>
      <trkpt lat="42.321881" lon="-8.807595">
        <ele>46.8</ele>
        <time>1970-01-01T04:08:34.000Z</time>
      </trkpt>
      <trkpt lat="42.321894" lon="-8.8076">
        <ele>46.4</ele>
        <time>1970-01-01T04:08:35.000Z</time>
      </trkpt>
      <trkpt lat="42.321907" lon="-8.807605">
        <ele>46.2</ele>
        <time>1970-01-01T04:08:36.000Z</time>
      </trkpt>
      <trkpt lat="42.321918" lon="-8.807607">
        <ele>46</ele>
        <time>1970-01-01T04:08:37.000Z</time>
      </trkpt>
      <trkpt lat="42.321931" lon="-8.80761">
        <ele>45.8</ele>
        <time>1970-01-01T04:08:38.000Z</time>
      </trkpt>
      <trkpt lat="42.321943" lon="-8.807611">
        <ele>45.6</ele>
        <time>1970-01-01T04:08:39.000Z</time>
      </trkpt>
      <trkpt lat="42.321953" lon="-8.807608">
        <ele>45.6</ele>
        <time>1970-01-01T04:08:40.000Z</time>
      </trkpt>
      <trkpt lat="42.321965" lon="-8.807602">
        <ele>45.4</ele>
        <time>1970-01-01T04:08:41.000Z</time>
      </trkpt>
      <trkpt lat="42.321976" lon="-8.807594">
        <ele>45.4</ele>
        <time>1970-01-01T04:08:42.000Z</time>
      </trkpt>
      <trkpt lat="42.321987" lon="-8.807587">
        <ele>45.4</ele>
        <time>1970-01-01T04:08:43.000Z</time>
      </trkpt>
      <trkpt lat="42.321998" lon="-8.807575">
        <ele>45.2</ele>
        <time>1970-01-01T04:08:44.000Z</time>
      </trkpt>
      <trkpt lat="42.322011" lon="-8.807564">
        <ele>45.2</ele>
        <time>1970-01-01T04:08:45.000Z</time>
      </trkpt>
      <trkpt lat="42.322025" lon="-8.807557">
        <ele>45.2</ele>
        <time>1970-01-01T04:08:46.000Z</time>
      </trkpt>
      <trkpt lat="42.32204" lon="-8.807549">
        <ele>44.8</ele>
        <time>1970-01-01T04:08:47.000Z</time>
      </trkpt>
      <trkpt lat="42.322055" lon="-8.807542">
        <ele>44.4</ele>
        <time>1970-01-01T04:08:48.000Z</time>
      </trkpt>
      <trkpt lat="42.322069" lon="-8.807533">
        <ele>44.4</ele>
        <time>1970-01-01T04:08:49.000Z</time>
      </trkpt>
      <trkpt lat="42.322083" lon="-8.807526">
        <ele>44.2</ele>
        <time>1970-01-01T04:08:50.000Z</time>
      </trkpt>
      <trkpt lat="42.322099" lon="-8.807519">
        <ele>44.2</ele>
        <time>1970-01-01T04:08:51.000Z</time>
      </trkpt>
      <trkpt lat="42.322113" lon="-8.807509">
        <ele>44</ele>
        <time>1970-01-01T04:08:52.000Z</time>
      </trkpt>
      <trkpt lat="42.322127" lon="-8.807501">
        <ele>44</ele>
        <time>1970-01-01T04:08:53.000Z</time>
      </trkpt>
      <trkpt lat="42.322139" lon="-8.807494">
        <ele>43.8</ele>
        <time>1970-01-01T04:08:54.000Z</time>
      </trkpt>
      <trkpt lat="42.322149" lon="-8.807489">
        <ele>43.6</ele>
        <time>1970-01-01T04:08:55.000Z</time>
      </trkpt>
      <trkpt lat="42.322159" lon="-8.807485">
        <ele>43.4</ele>
        <time>1970-01-01T04:08:56.000Z</time>
      </trkpt>
      <trkpt lat="42.322169" lon="-8.807482">
        <ele>43.4</ele>
        <time>1970-01-01T04:08:57.000Z</time>
      </trkpt>
      <trkpt lat="42.32218" lon="-8.807481">
        <ele>43.2</ele>
        <time>1970-01-01T04:08:58.000Z</time>
      </trkpt>
      <trkpt lat="42.322194" lon="-8.807483">
        <ele>43</ele>
        <time>1970-01-01T04:08:59.000Z</time>
      </trkpt>
      <trkpt lat="42.32221" lon="-8.807486">
        <ele>42.8</ele>
        <time>1970-01-01T04:09:00.000Z</time>
      </trkpt>
      <trkpt lat="42.322227" lon="-8.807491">
        <ele>42.8</ele>
        <time>1970-01-01T04:09:01.000Z</time>
      </trkpt>
      <trkpt lat="42.322243" lon="-8.807498">
        <ele>42.8</ele>
        <time>1970-01-01T04:09:02.000Z</time>
      </trkpt>
      <trkpt lat="42.322258" lon="-8.807505">
        <ele>42.6</ele>
        <time>1970-01-01T04:09:03.000Z</time>
      </trkpt>
      <trkpt lat="42.322275" lon="-8.807514">
        <ele>42.6</ele>
        <time>1970-01-01T04:09:04.000Z</time>
      </trkpt>
      <trkpt lat="42.32229" lon="-8.807524">
        <ele>42.6</ele>
        <time>1970-01-01T04:09:05.000Z</time>
      </trkpt>
      <trkpt lat="42.322305" lon="-8.807533">
        <ele>42.6</ele>
        <time>1970-01-01T04:09:06.000Z</time>
      </trkpt>
      <trkpt lat="42.322318" lon="-8.807544">
        <ele>42.4</ele>
        <time>1970-01-01T04:09:07.000Z</time>
      </trkpt>
      <trkpt lat="42.322329" lon="-8.807556">
        <ele>42.4</ele>
        <time>1970-01-01T04:09:08.000Z</time>
      </trkpt>
      <trkpt lat="42.322341" lon="-8.807562">
        <ele>42.2</ele>
        <time>1970-01-01T04:09:09.000Z</time>
      </trkpt>
      <trkpt lat="42.322352" lon="-8.80757">
        <ele>42</ele>
        <time>1970-01-01T04:09:10.000Z</time>
      </trkpt>
      <trkpt lat="42.322363" lon="-8.807577">
        <ele>41.8</ele>
        <time>1970-01-01T04:09:11.000Z</time>
      </trkpt>
      <trkpt lat="42.322372" lon="-8.807588">
        <ele>41.8</ele>
        <time>1970-01-01T04:09:12.000Z</time>
      </trkpt>
      <trkpt lat="42.322382" lon="-8.807598">
        <ele>41.6</ele>
        <time>1970-01-01T04:09:13.000Z</time>
      </trkpt>
      <trkpt lat="42.322388" lon="-8.807603">
        <ele>41.4</ele>
        <time>1970-01-01T04:09:14.000Z</time>
      </trkpt>
      <trkpt lat="42.322393" lon="-8.807605">
        <ele>41.4</ele>
        <time>1970-01-01T04:09:15.000Z</time>
      </trkpt>
      <trkpt lat="42.322397" lon="-8.807612">
        <ele>41.2</ele>
        <time>1970-01-01T04:09:16.000Z</time>
      </trkpt>
      <trkpt lat="42.322401" lon="-8.807616">
        <ele>41.2</ele>
        <time>1970-01-01T04:09:17.000Z</time>
      </trkpt>
      <trkpt lat="42.322407" lon="-8.807621">
        <ele>41.2</ele>
        <time>1970-01-01T04:09:18.000Z</time>
      </trkpt>
      <trkpt lat="42.322416" lon="-8.80763">
        <ele>41.2</ele>
        <time>1970-01-01T04:09:19.000Z</time>
      </trkpt>
      <trkpt lat="42.322416" lon="-8.80763">
        <ele>41.2</ele>
        <time>1970-01-01T04:09:20.000Z</time>
      </trkpt>
      <trkpt lat="42.322429" lon="-8.807641">
        <ele>41.2</ele>
        <time>1970-01-01T04:09:21.000Z</time>
      </trkpt>
      <trkpt lat="42.322441" lon="-8.807657">
        <ele>41</ele>
        <time>1970-01-01T04:09:22.000Z</time>
      </trkpt>
      <trkpt lat="42.322453" lon="-8.807675">
        <ele>41</ele>
        <time>1970-01-01T04:09:23.000Z</time>
      </trkpt>
      <trkpt lat="42.322466" lon="-8.807686">
        <ele>40.8</ele>
        <time>1970-01-01T04:09:24.000Z</time>
      </trkpt>
      <trkpt lat="42.322478" lon="-8.807701">
        <ele>40.8</ele>
        <time>1970-01-01T04:09:25.000Z</time>
      </trkpt>
      <trkpt lat="42.322488" lon="-8.807718">
        <ele>40.8</ele>
        <time>1970-01-01T04:09:26.000Z</time>
      </trkpt>
      <trkpt lat="42.322499" lon="-8.807739">
        <ele>40.6</ele>
        <time>1970-01-01T04:09:27.000Z</time>
      </trkpt>
      <trkpt lat="42.32251" lon="-8.807754">
        <ele>40.6</ele>
        <time>1970-01-01T04:09:28.000Z</time>
      </trkpt>
      <trkpt lat="42.322518" lon="-8.807767">
        <ele>40.6</ele>
        <time>1970-01-01T04:09:29.000Z</time>
      </trkpt>
      <trkpt lat="42.322527" lon="-8.807781">
        <ele>40.6</ele>
        <time>1970-01-01T04:09:30.000Z</time>
      </trkpt>
      <trkpt lat="42.322536" lon="-8.807794">
        <ele>40.6</ele>
        <time>1970-01-01T04:09:31.000Z</time>
      </trkpt>
      <trkpt lat="42.322548" lon="-8.807807">
        <ele>40.6</ele>
        <time>1970-01-01T04:09:32.000Z</time>
      </trkpt>
      <trkpt lat="42.322559" lon="-8.807816">
        <ele>40.8</ele>
        <time>1970-01-01T04:09:33.000Z</time>
      </trkpt>
      <trkpt lat="42.322569" lon="-8.807824">
        <ele>40.8</ele>
        <time>1970-01-01T04:09:34.000Z</time>
      </trkpt>
      <trkpt lat="42.322578" lon="-8.807838">
        <ele>41</ele>
        <time>1970-01-01T04:09:35.000Z</time>
      </trkpt>
      <trkpt lat="42.322586" lon="-8.807857">
        <ele>41</ele>
        <time>1970-01-01T04:09:36.000Z</time>
      </trkpt>
      <trkpt lat="42.322599" lon="-8.80788">
        <ele>41.2</ele>
        <time>1970-01-01T04:09:37.000Z</time>
      </trkpt>
      <trkpt lat="42.322613" lon="-8.807896">
        <ele>41.2</ele>
        <time>1970-01-01T04:09:38.000Z</time>
      </trkpt>
      <trkpt lat="42.322626" lon="-8.807913">
        <ele>41.2</ele>
        <time>1970-01-01T04:09:39.000Z</time>
      </trkpt>
      <trkpt lat="42.32264" lon="-8.807931">
        <ele>41</ele>
        <time>1970-01-01T04:09:40.000Z</time>
      </trkpt>
      <trkpt lat="42.322655" lon="-8.807946">
        <ele>40.8</ele>
        <time>1970-01-01T04:09:41.000Z</time>
      </trkpt>
      <trkpt lat="42.322666" lon="-8.807961">
        <ele>40.8</ele>
        <time>1970-01-01T04:09:42.000Z</time>
      </trkpt>
      <trkpt lat="42.322676" lon="-8.807973">
        <ele>40.8</ele>
        <time>1970-01-01T04:09:43.000Z</time>
      </trkpt>
      <trkpt lat="42.322685" lon="-8.807984">
        <ele>40.8</ele>
        <time>1970-01-01T04:09:44.000Z</time>
      </trkpt>
      <trkpt lat="42.322695" lon="-8.807993">
        <ele>40.6</ele>
        <time>1970-01-01T04:09:45.000Z</time>
      </trkpt>
      <trkpt lat="42.322705" lon="-8.807998">
        <ele>40.6</ele>
        <time>1970-01-01T04:09:46.000Z</time>
      </trkpt>
      <trkpt lat="42.322715" lon="-8.808002">
        <ele>40.6</ele>
        <time>1970-01-01T04:09:47.000Z</time>
      </trkpt>
      <trkpt lat="42.322728" lon="-8.808004">
        <ele>40.6</ele>
        <time>1970-01-01T04:09:48.000Z</time>
      </trkpt>
      <trkpt lat="42.322741" lon="-8.808008">
        <ele>40.6</ele>
        <time>1970-01-01T04:09:49.000Z</time>
      </trkpt>
      <trkpt lat="42.322755" lon="-8.808013">
        <ele>40.4</ele>
        <time>1970-01-01T04:09:50.000Z</time>
      </trkpt>
      <trkpt lat="42.322768" lon="-8.808018">
        <ele>40.6</ele>
        <time>1970-01-01T04:09:51.000Z</time>
      </trkpt>
      <trkpt lat="42.322781" lon="-8.808027">
        <ele>40.6</ele>
        <time>1970-01-01T04:09:52.000Z</time>
      </trkpt>
      <trkpt lat="42.322796" lon="-8.808041">
        <ele>40.6</ele>
        <time>1970-01-01T04:09:53.000Z</time>
      </trkpt>
      <trkpt lat="42.32281" lon="-8.808054">
        <ele>40.6</ele>
        <time>1970-01-01T04:09:54.000Z</time>
      </trkpt>
      <trkpt lat="42.322821" lon="-8.808064">
        <ele>41</ele>
        <time>1970-01-01T04:09:55.000Z</time>
      </trkpt>
      <trkpt lat="42.322832" lon="-8.808071">
        <ele>41.2</ele>
        <time>1970-01-01T04:09:56.000Z</time>
      </trkpt>
      <trkpt lat="42.322844" lon="-8.808078">
        <ele>41.4</ele>
        <time>1970-01-01T04:09:57.000Z</time>
      </trkpt>
      <trkpt lat="42.322855" lon="-8.808088">
        <ele>41.2</ele>
        <time>1970-01-01T04:09:58.000Z</time>
      </trkpt>
      <trkpt lat="42.322865" lon="-8.808096">
        <ele>41.2</ele>
        <time>1970-01-01T04:09:59.000Z</time>
      </trkpt>
      <trkpt lat="42.322875" lon="-8.808098">
        <ele>41.2</ele>
        <time>1970-01-01T04:10:00.000Z</time>
      </trkpt>
      <trkpt lat="42.322885" lon="-8.808094">
        <ele>41.2</ele>
        <time>1970-01-01T04:10:01.000Z</time>
      </trkpt>
      <trkpt lat="42.322893" lon="-8.808089">
        <ele>41.2</ele>
        <time>1970-01-01T04:10:02.000Z</time>
      </trkpt>
      <trkpt lat="42.322901" lon="-8.808079">
        <ele>41.2</ele>
        <time>1970-01-01T04:10:03.000Z</time>
      </trkpt>
      <trkpt lat="42.322909" lon="-8.808062">
        <ele>41.2</ele>
        <time>1970-01-01T04:10:04.000Z</time>
      </trkpt>
      <trkpt lat="42.322918" lon="-8.808042">
        <ele>41.2</ele>
        <time>1970-01-01T04:10:05.000Z</time>
      </trkpt>
      <trkpt lat="42.322924" lon="-8.808021">
        <ele>41.2</ele>
        <time>1970-01-01T04:10:06.000Z</time>
      </trkpt>
      <trkpt lat="42.322928" lon="-8.807999">
        <ele>41.2</ele>
        <time>1970-01-01T04:10:07.000Z</time>
      </trkpt>
      <trkpt lat="42.322933" lon="-8.807981">
        <ele>41.2</ele>
        <time>1970-01-01T04:10:08.000Z</time>
      </trkpt>
      <trkpt lat="42.322937" lon="-8.807961">
        <ele>41.6</ele>
        <time>1970-01-01T04:10:09.000Z</time>
      </trkpt>
      <trkpt lat="42.322943" lon="-8.807944">
        <ele>41.6</ele>
        <time>1970-01-01T04:10:10.000Z</time>
      </trkpt>
      <trkpt lat="42.322949" lon="-8.807926">
        <ele>41.4</ele>
        <time>1970-01-01T04:10:11.000Z</time>
      </trkpt>
      <trkpt lat="42.322957" lon="-8.807913">
        <ele>41.4</ele>
        <time>1970-01-01T04:10:12.000Z</time>
      </trkpt>
      <trkpt lat="42.322964" lon="-8.807899">
        <ele>41.6</ele>
        <time>1970-01-01T04:10:13.000Z</time>
      </trkpt>
      <trkpt lat="42.322968" lon="-8.807882">
        <ele>41.6</ele>
        <time>1970-01-01T04:10:14.000Z</time>
      </trkpt>
      <trkpt lat="42.322973" lon="-8.807863">
        <ele>41.8</ele>
        <time>1970-01-01T04:10:15.000Z</time>
      </trkpt>
      <trkpt lat="42.322977" lon="-8.807844">
        <ele>41.8</ele>
        <time>1970-01-01T04:10:16.000Z</time>
      </trkpt>
      <trkpt lat="42.322984" lon="-8.80783">
        <ele>41.8</ele>
        <time>1970-01-01T04:10:17.000Z</time>
      </trkpt>
      <trkpt lat="42.322993" lon="-8.807813">
        <ele>42</ele>
        <time>1970-01-01T04:10:18.000Z</time>
      </trkpt>
      <trkpt lat="42.323001" lon="-8.807795">
        <ele>42</ele>
        <time>1970-01-01T04:10:19.000Z</time>
      </trkpt>
      <trkpt lat="42.32301" lon="-8.807778">
        <ele>42</ele>
        <time>1970-01-01T04:10:20.000Z</time>
      </trkpt>
      <trkpt lat="42.323019" lon="-8.807761">
        <ele>42</ele>
        <time>1970-01-01T04:10:21.000Z</time>
      </trkpt>
      <trkpt lat="42.323025" lon="-8.807746">
        <ele>42.2</ele>
        <time>1970-01-01T04:10:22.000Z</time>
      </trkpt>
      <trkpt lat="42.323033" lon="-8.80773">
        <ele>42.2</ele>
        <time>1970-01-01T04:10:23.000Z</time>
      </trkpt>
      <trkpt lat="42.32304" lon="-8.807712">
        <ele>42</ele>
        <time>1970-01-01T04:10:24.000Z</time>
      </trkpt>
      <trkpt lat="42.323046" lon="-8.807689">
        <ele>42</ele>
        <time>1970-01-01T04:10:25.000Z</time>
      </trkpt>
      <trkpt lat="42.323054" lon="-8.807671">
        <ele>42</ele>
        <time>1970-01-01T04:10:26.000Z</time>
      </trkpt>
      <trkpt lat="42.323059" lon="-8.807653">
        <ele>42</ele>
        <time>1970-01-01T04:10:27.000Z</time>
      </trkpt>
      <trkpt lat="42.323064" lon="-8.807636">
        <ele>42.2</ele>
        <time>1970-01-01T04:10:28.000Z</time>
      </trkpt>
      <trkpt lat="42.323067" lon="-8.807619">
        <ele>42.2</ele>
        <time>1970-01-01T04:10:29.000Z</time>
      </trkpt>
      <trkpt lat="42.323068" lon="-8.807598">
        <ele>42.4</ele>
        <time>1970-01-01T04:10:30.000Z</time>
      </trkpt>
      <trkpt lat="42.323072" lon="-8.807581">
        <ele>42.4</ele>
        <time>1970-01-01T04:10:31.000Z</time>
      </trkpt>
      <trkpt lat="42.323073" lon="-8.807562">
        <ele>42.6</ele>
        <time>1970-01-01T04:10:32.000Z</time>
      </trkpt>
      <trkpt lat="42.323074" lon="-8.80754">
        <ele>42.8</ele>
        <time>1970-01-01T04:10:33.000Z</time>
      </trkpt>
      <trkpt lat="42.323069" lon="-8.807518">
        <ele>43</ele>
        <time>1970-01-01T04:10:34.000Z</time>
      </trkpt>
      <trkpt lat="42.323062" lon="-8.807495">
        <ele>43.2</ele>
        <time>1970-01-01T04:10:35.000Z</time>
      </trkpt>
      <trkpt lat="42.323056" lon="-8.807477">
        <ele>43.2</ele>
        <time>1970-01-01T04:10:36.000Z</time>
      </trkpt>
      <trkpt lat="42.323049" lon="-8.807457">
        <ele>43.4</ele>
        <time>1970-01-01T04:10:37.000Z</time>
      </trkpt>
      <trkpt lat="42.32304" lon="-8.807438">
        <ele>43.4</ele>
        <time>1970-01-01T04:10:38.000Z</time>
      </trkpt>
      <trkpt lat="42.32303" lon="-8.807423">
        <ele>43.6</ele>
        <time>1970-01-01T04:10:39.000Z</time>
      </trkpt>
      <trkpt lat="42.32302" lon="-8.807408">
        <ele>43.6</ele>
        <time>1970-01-01T04:10:40.000Z</time>
      </trkpt>
      <trkpt lat="42.32301" lon="-8.807399">
        <ele>43.8</ele>
        <time>1970-01-01T04:10:41.000Z</time>
      </trkpt>
      <trkpt lat="42.323" lon="-8.807387">
        <ele>43.8</ele>
        <time>1970-01-01T04:10:42.000Z</time>
      </trkpt>
      <trkpt lat="42.322988" lon="-8.807376">
        <ele>44</ele>
        <time>1970-01-01T04:10:43.000Z</time>
      </trkpt>
      <trkpt lat="42.322974" lon="-8.807366">
        <ele>44.2</ele>
        <time>1970-01-01T04:10:44.000Z</time>
      </trkpt>
      <trkpt lat="42.322963" lon="-8.807357">
        <ele>44.2</ele>
        <time>1970-01-01T04:10:45.000Z</time>
      </trkpt>
      <trkpt lat="42.322952" lon="-8.807347">
        <ele>44.4</ele>
        <time>1970-01-01T04:10:46.000Z</time>
      </trkpt>
      <trkpt lat="42.322942" lon="-8.807339">
        <ele>44.4</ele>
        <time>1970-01-01T04:10:47.000Z</time>
      </trkpt>
      <trkpt lat="42.322933" lon="-8.807331">
        <ele>44.4</ele>
        <time>1970-01-01T04:10:48.000Z</time>
      </trkpt>
      <trkpt lat="42.322923" lon="-8.807323">
        <ele>44.6</ele>
        <time>1970-01-01T04:10:49.000Z</time>
      </trkpt>
      <trkpt lat="42.322913" lon="-8.807317">
        <ele>44.8</ele>
        <time>1970-01-01T04:10:50.000Z</time>
      </trkpt>
      <trkpt lat="42.322902" lon="-8.807307">
        <ele>45.2</ele>
        <time>1970-01-01T04:10:51.000Z</time>
      </trkpt>
      <trkpt lat="42.322892" lon="-8.807298">
        <ele>45.4</ele>
        <time>1970-01-01T04:10:52.000Z</time>
      </trkpt>
      <trkpt lat="42.322883" lon="-8.807289">
        <ele>45.6</ele>
        <time>1970-01-01T04:10:53.000Z</time>
      </trkpt>
      <trkpt lat="42.322873" lon="-8.807275">
        <ele>45.8</ele>
        <time>1970-01-01T04:10:54.000Z</time>
      </trkpt>
      <trkpt lat="42.322861" lon="-8.807256">
        <ele>46</ele>
        <time>1970-01-01T04:10:55.000Z</time>
      </trkpt>
      <trkpt lat="42.322853" lon="-8.80724">
        <ele>46</ele>
        <time>1970-01-01T04:10:56.000Z</time>
      </trkpt>
      <trkpt lat="42.322844" lon="-8.807222">
        <ele>46.2</ele>
        <time>1970-01-01T04:10:57.000Z</time>
      </trkpt>
      <trkpt lat="42.322837" lon="-8.807207">
        <ele>46.4</ele>
        <time>1970-01-01T04:10:58.000Z</time>
      </trkpt>
      <trkpt lat="42.322833" lon="-8.807188">
        <ele>46.6</ele>
        <time>1970-01-01T04:10:59.000Z</time>
      </trkpt>
      <trkpt lat="42.322826" lon="-8.807169">
        <ele>46.8</ele>
        <time>1970-01-01T04:11:00.000Z</time>
      </trkpt>
      <trkpt lat="42.322821" lon="-8.807148">
        <ele>47</ele>
        <time>1970-01-01T04:11:01.000Z</time>
      </trkpt>
      <trkpt lat="42.322816" lon="-8.807131">
        <ele>47.2</ele>
        <time>1970-01-01T04:11:02.000Z</time>
      </trkpt>
      <trkpt lat="42.322813" lon="-8.807113">
        <ele>47.4</ele>
        <time>1970-01-01T04:11:03.000Z</time>
      </trkpt>
      <trkpt lat="42.322811" lon="-8.807099">
        <ele>47.4</ele>
        <time>1970-01-01T04:11:04.000Z</time>
      </trkpt>
      <trkpt lat="42.322808" lon="-8.807082">
        <ele>47.6</ele>
        <time>1970-01-01T04:11:05.000Z</time>
      </trkpt>
      <trkpt lat="42.322805" lon="-8.807063">
        <ele>47.8</ele>
        <time>1970-01-01T04:11:06.000Z</time>
      </trkpt>
      <trkpt lat="42.322801" lon="-8.807043">
        <ele>48.2</ele>
        <time>1970-01-01T04:11:07.000Z</time>
      </trkpt>
      <trkpt lat="42.322797" lon="-8.807022">
        <ele>48.4</ele>
        <time>1970-01-01T04:11:08.000Z</time>
      </trkpt>
      <trkpt lat="42.322795" lon="-8.807003">
        <ele>48.6</ele>
        <time>1970-01-01T04:11:09.000Z</time>
      </trkpt>
      <trkpt lat="42.322797" lon="-8.806987">
        <ele>48.8</ele>
        <time>1970-01-01T04:11:10.000Z</time>
      </trkpt>
      <trkpt lat="42.3228" lon="-8.806973">
        <ele>49</ele>
        <time>1970-01-01T04:11:11.000Z</time>
      </trkpt>
      <trkpt lat="42.322805" lon="-8.806961">
        <ele>49.2</ele>
        <time>1970-01-01T04:11:12.000Z</time>
      </trkpt>
      <trkpt lat="42.322807" lon="-8.806947">
        <ele>49.2</ele>
        <time>1970-01-01T04:11:13.000Z</time>
      </trkpt>
      <trkpt lat="42.322811" lon="-8.806932">
        <ele>49.2</ele>
        <time>1970-01-01T04:11:14.000Z</time>
      </trkpt>
      <trkpt lat="42.322816" lon="-8.806917">
        <ele>49.4</ele>
        <time>1970-01-01T04:11:15.000Z</time>
      </trkpt>
      <trkpt lat="42.322824" lon="-8.806903">
        <ele>49.8</ele>
        <time>1970-01-01T04:11:16.000Z</time>
      </trkpt>
      <trkpt lat="42.322833" lon="-8.806888">
        <ele>50</ele>
        <time>1970-01-01T04:11:17.000Z</time>
      </trkpt>
      <trkpt lat="42.322842" lon="-8.806872">
        <ele>50.4</ele>
        <time>1970-01-01T04:11:18.000Z</time>
      </trkpt>
      <trkpt lat="42.322848" lon="-8.806855">
        <ele>50.4</ele>
        <time>1970-01-01T04:11:19.000Z</time>
      </trkpt>
      <trkpt lat="42.322855" lon="-8.80684">
        <ele>50.6</ele>
        <time>1970-01-01T04:11:20.000Z</time>
      </trkpt>
      <trkpt lat="42.322863" lon="-8.806827">
        <ele>50.8</ele>
        <time>1970-01-01T04:11:21.000Z</time>
      </trkpt>
      <trkpt lat="42.32287" lon="-8.806816">
        <ele>51</ele>
        <time>1970-01-01T04:11:22.000Z</time>
      </trkpt>
      <trkpt lat="42.322877" lon="-8.806806">
        <ele>51.2</ele>
        <time>1970-01-01T04:11:23.000Z</time>
      </trkpt>
      <trkpt lat="42.322887" lon="-8.806797">
        <ele>51.4</ele>
        <time>1970-01-01T04:11:24.000Z</time>
      </trkpt>
      <trkpt lat="42.322895" lon="-8.806789">
        <ele>51.6</ele>
        <time>1970-01-01T04:11:25.000Z</time>
      </trkpt>
      <trkpt lat="42.322907" lon="-8.806784">
        <ele>51.8</ele>
        <time>1970-01-01T04:11:26.000Z</time>
      </trkpt>
      <trkpt lat="42.322915" lon="-8.806774">
        <ele>52.2</ele>
        <time>1970-01-01T04:11:27.000Z</time>
      </trkpt>
      <trkpt lat="42.322923" lon="-8.806764">
        <ele>52.6</ele>
        <time>1970-01-01T04:11:28.000Z</time>
      </trkpt>
      <trkpt lat="42.322931" lon="-8.806754">
        <ele>52.8</ele>
        <time>1970-01-01T04:11:29.000Z</time>
      </trkpt>
      <trkpt lat="42.32294" lon="-8.806744">
        <ele>53</ele>
        <time>1970-01-01T04:11:30.000Z</time>
      </trkpt>
      <trkpt lat="42.322949" lon="-8.806735">
        <ele>53.2</ele>
        <time>1970-01-01T04:11:31.000Z</time>
      </trkpt>
      <trkpt lat="42.322958" lon="-8.806727">
        <ele>53.4</ele>
        <time>1970-01-01T04:11:32.000Z</time>
      </trkpt>
      <trkpt lat="42.322966" lon="-8.806717">
        <ele>53.6</ele>
        <time>1970-01-01T04:11:33.000Z</time>
      </trkpt>
      <trkpt lat="42.322975" lon="-8.806705">
        <ele>53.8</ele>
        <time>1970-01-01T04:11:34.000Z</time>
      </trkpt>
      <trkpt lat="42.322984" lon="-8.806695">
        <ele>54</ele>
        <time>1970-01-01T04:11:35.000Z</time>
      </trkpt>
      <trkpt lat="42.322994" lon="-8.806686">
        <ele>54.2</ele>
        <time>1970-01-01T04:11:36.000Z</time>
      </trkpt>
      <trkpt lat="42.323001" lon="-8.806674">
        <ele>54.2</ele>
        <time>1970-01-01T04:11:37.000Z</time>
      </trkpt>
      <trkpt lat="42.323011" lon="-8.806659">
        <ele>54.4</ele>
        <time>1970-01-01T04:11:38.000Z</time>
      </trkpt>
      <trkpt lat="42.323023" lon="-8.806648">
        <ele>54.6</ele>
        <time>1970-01-01T04:11:39.000Z</time>
      </trkpt>
      <trkpt lat="42.323033" lon="-8.806634">
        <ele>54.6</ele>
        <time>1970-01-01T04:11:40.000Z</time>
      </trkpt>
      <trkpt lat="42.323045" lon="-8.806619">
        <ele>54.8</ele>
        <time>1970-01-01T04:11:41.000Z</time>
      </trkpt>
      <trkpt lat="42.323056" lon="-8.806603">
        <ele>55</ele>
        <time>1970-01-01T04:11:42.000Z</time>
      </trkpt>
      <trkpt lat="42.323071" lon="-8.806588">
        <ele>55.4</ele>
        <time>1970-01-01T04:11:43.000Z</time>
      </trkpt>
      <trkpt lat="42.323083" lon="-8.806575">
        <ele>55.6</ele>
        <time>1970-01-01T04:11:44.000Z</time>
      </trkpt>
      <trkpt lat="42.323093" lon="-8.806565">
        <ele>55.8</ele>
        <time>1970-01-01T04:11:45.000Z</time>
      </trkpt>
      <trkpt lat="42.323102" lon="-8.806555">
        <ele>56</ele>
        <time>1970-01-01T04:11:46.000Z</time>
      </trkpt>
      <trkpt lat="42.323111" lon="-8.806546">
        <ele>56.2</ele>
        <time>1970-01-01T04:11:47.000Z</time>
      </trkpt>
      <trkpt lat="42.323123" lon="-8.806538">
        <ele>56.6</ele>
        <time>1970-01-01T04:11:48.000Z</time>
      </trkpt>
      <trkpt lat="42.323136" lon="-8.806527">
        <ele>56.6</ele>
        <time>1970-01-01T04:11:49.000Z</time>
      </trkpt>
      <trkpt lat="42.323148" lon="-8.806515">
        <ele>57</ele>
        <time>1970-01-01T04:11:50.000Z</time>
      </trkpt>
      <trkpt lat="42.32316" lon="-8.8065">
        <ele>57.2</ele>
        <time>1970-01-01T04:11:51.000Z</time>
      </trkpt>
      <trkpt lat="42.323171" lon="-8.806485">
        <ele>57.4</ele>
        <time>1970-01-01T04:11:52.000Z</time>
      </trkpt>
      <trkpt lat="42.323181" lon="-8.806469">
        <ele>57.8</ele>
        <time>1970-01-01T04:11:53.000Z</time>
      </trkpt>
      <trkpt lat="42.323192" lon="-8.806455">
        <ele>58</ele>
        <time>1970-01-01T04:11:54.000Z</time>
      </trkpt>
      <trkpt lat="42.323204" lon="-8.806443">
        <ele>58.4</ele>
        <time>1970-01-01T04:11:55.000Z</time>
      </trkpt>
      <trkpt lat="42.323216" lon="-8.806435">
        <ele>58.6</ele>
        <time>1970-01-01T04:11:56.000Z</time>
      </trkpt>
      <trkpt lat="42.323228" lon="-8.806424">
        <ele>58.8</ele>
        <time>1970-01-01T04:11:57.000Z</time>
      </trkpt>
      <trkpt lat="42.323239" lon="-8.806411">
        <ele>59</ele>
        <time>1970-01-01T04:11:58.000Z</time>
      </trkpt>
      <trkpt lat="42.32325" lon="-8.806396">
        <ele>59.2</ele>
        <time>1970-01-01T04:11:59.000Z</time>
      </trkpt>
      <trkpt lat="42.323257" lon="-8.80638">
        <ele>59.4</ele>
        <time>1970-01-01T04:12:00.000Z</time>
      </trkpt>
      <trkpt lat="42.323268" lon="-8.806367">
        <ele>59.6</ele>
        <time>1970-01-01T04:12:01.000Z</time>
      </trkpt>
      <trkpt lat="42.323279" lon="-8.806357">
        <ele>59.6</ele>
        <time>1970-01-01T04:12:02.000Z</time>
      </trkpt>
      <trkpt lat="42.32329" lon="-8.806345">
        <ele>59.6</ele>
        <time>1970-01-01T04:12:03.000Z</time>
      </trkpt>
      <trkpt lat="42.323303" lon="-8.806335">
        <ele>59.6</ele>
        <time>1970-01-01T04:12:04.000Z</time>
      </trkpt>
      <trkpt lat="42.323315" lon="-8.806326">
        <ele>59.8</ele>
        <time>1970-01-01T04:12:05.000Z</time>
      </trkpt>
      <trkpt lat="42.323327" lon="-8.806316">
        <ele>59.8</ele>
        <time>1970-01-01T04:12:06.000Z</time>
      </trkpt>
      <trkpt lat="42.323338" lon="-8.806304">
        <ele>59.8</ele>
        <time>1970-01-01T04:12:07.000Z</time>
      </trkpt>
      <trkpt lat="42.323356" lon="-8.806294">
        <ele>59.8</ele>
        <time>1970-01-01T04:12:08.000Z</time>
      </trkpt>
      <trkpt lat="42.323366" lon="-8.806286">
        <ele>59.8</ele>
        <time>1970-01-01T04:12:09.000Z</time>
      </trkpt>
      <trkpt lat="42.323375" lon="-8.806274">
        <ele>59.8</ele>
        <time>1970-01-01T04:12:10.000Z</time>
      </trkpt>
      <trkpt lat="42.323386" lon="-8.806263">
        <ele>60</ele>
        <time>1970-01-01T04:12:11.000Z</time>
      </trkpt>
      <trkpt lat="42.323397" lon="-8.806251">
        <ele>60.2</ele>
        <time>1970-01-01T04:12:12.000Z</time>
      </trkpt>
      <trkpt lat="42.323407" lon="-8.806239">
        <ele>60.6</ele>
        <time>1970-01-01T04:12:13.000Z</time>
      </trkpt>
      <trkpt lat="42.323416" lon="-8.806226">
        <ele>61</ele>
        <time>1970-01-01T04:12:14.000Z</time>
      </trkpt>
      <trkpt lat="42.323423" lon="-8.806214">
        <ele>61.2</ele>
        <time>1970-01-01T04:12:15.000Z</time>
      </trkpt>
      <trkpt lat="42.323432" lon="-8.806205">
        <ele>61.4</ele>
        <time>1970-01-01T04:12:16.000Z</time>
      </trkpt>
      <trkpt lat="42.323441" lon="-8.806193">
        <ele>61.6</ele>
        <time>1970-01-01T04:12:17.000Z</time>
      </trkpt>
      <trkpt lat="42.323451" lon="-8.806182">
        <ele>61.6</ele>
        <time>1970-01-01T04:12:18.000Z</time>
      </trkpt>
      <trkpt lat="42.323462" lon="-8.806168">
        <ele>61.8</ele>
        <time>1970-01-01T04:12:19.000Z</time>
      </trkpt>
      <trkpt lat="42.323472" lon="-8.806153">
        <ele>62.2</ele>
        <time>1970-01-01T04:12:20.000Z</time>
      </trkpt>
      <trkpt lat="42.323482" lon="-8.806137">
        <ele>62.4</ele>
        <time>1970-01-01T04:12:21.000Z</time>
      </trkpt>
      <trkpt lat="42.323493" lon="-8.806121">
        <ele>62.8</ele>
        <time>1970-01-01T04:12:22.000Z</time>
      </trkpt>
      <trkpt lat="42.323502" lon="-8.806104">
        <ele>63</ele>
        <time>1970-01-01T04:12:23.000Z</time>
      </trkpt>
      <trkpt lat="42.32351" lon="-8.806086">
        <ele>63.2</ele>
        <time>1970-01-01T04:12:24.000Z</time>
      </trkpt>
      <trkpt lat="42.323517" lon="-8.806073">
        <ele>63.4</ele>
        <time>1970-01-01T04:12:25.000Z</time>
      </trkpt>
      <trkpt lat="42.323525" lon="-8.80606">
        <ele>63.6</ele>
        <time>1970-01-01T04:12:26.000Z</time>
      </trkpt>
      <trkpt lat="42.323532" lon="-8.806044">
        <ele>63.8</ele>
        <time>1970-01-01T04:12:27.000Z</time>
      </trkpt>
      <trkpt lat="42.323538" lon="-8.806028">
        <ele>63.8</ele>
        <time>1970-01-01T04:12:28.000Z</time>
      </trkpt>
      <trkpt lat="42.323544" lon="-8.80601">
        <ele>64.2</ele>
        <time>1970-01-01T04:12:29.000Z</time>
      </trkpt>
      <trkpt lat="42.323553" lon="-8.805994">
        <ele>64.4</ele>
        <time>1970-01-01T04:12:30.000Z</time>
      </trkpt>
      <trkpt lat="42.323561" lon="-8.805978">
        <ele>64.6</ele>
        <time>1970-01-01T04:12:31.000Z</time>
      </trkpt>
      <trkpt lat="42.323569" lon="-8.805966">
        <ele>64.8</ele>
        <time>1970-01-01T04:12:32.000Z</time>
      </trkpt>
      <trkpt lat="42.323576" lon="-8.805953">
        <ele>64.8</ele>
        <time>1970-01-01T04:12:33.000Z</time>
      </trkpt>
      <trkpt lat="42.323581" lon="-8.805942">
        <ele>64.8</ele>
        <time>1970-01-01T04:12:34.000Z</time>
      </trkpt>
      <trkpt lat="42.323587" lon="-8.805927">
        <ele>65</ele>
        <time>1970-01-01T04:12:35.000Z</time>
      </trkpt>
      <trkpt lat="42.323595" lon="-8.805909">
        <ele>65.2</ele>
        <time>1970-01-01T04:12:36.000Z</time>
      </trkpt>
      <trkpt lat="42.323601" lon="-8.805891">
        <ele>65.2</ele>
        <time>1970-01-01T04:12:37.000Z</time>
      </trkpt>
      <trkpt lat="42.323607" lon="-8.805874">
        <ele>65.4</ele>
        <time>1970-01-01T04:12:38.000Z</time>
      </trkpt>
      <trkpt lat="42.323611" lon="-8.805856">
        <ele>65.6</ele>
        <time>1970-01-01T04:12:39.000Z</time>
      </trkpt>
      <trkpt lat="42.323617" lon="-8.805841">
        <ele>65.8</ele>
        <time>1970-01-01T04:12:40.000Z</time>
      </trkpt>
      <trkpt lat="42.323623" lon="-8.805827">
        <ele>66</ele>
        <time>1970-01-01T04:12:41.000Z</time>
      </trkpt>
      <trkpt lat="42.323629" lon="-8.805813">
        <ele>66.2</ele>
        <time>1970-01-01T04:12:42.000Z</time>
      </trkpt>
      <trkpt lat="42.323634" lon="-8.805798">
        <ele>66.4</ele>
        <time>1970-01-01T04:12:43.000Z</time>
      </trkpt>
      <trkpt lat="42.323639" lon="-8.80578">
        <ele>66.4</ele>
        <time>1970-01-01T04:12:44.000Z</time>
      </trkpt>
      <trkpt lat="42.323645" lon="-8.805762">
        <ele>66.6</ele>
        <time>1970-01-01T04:12:45.000Z</time>
      </trkpt>
      <trkpt lat="42.323651" lon="-8.805746">
        <ele>66.8</ele>
        <time>1970-01-01T04:12:46.000Z</time>
      </trkpt>
      <trkpt lat="42.323659" lon="-8.805732">
        <ele>67.2</ele>
        <time>1970-01-01T04:12:47.000Z</time>
      </trkpt>
      <trkpt lat="42.323665" lon="-8.805718">
        <ele>67.4</ele>
        <time>1970-01-01T04:12:48.000Z</time>
      </trkpt>
      <trkpt lat="42.32367" lon="-8.805702">
        <ele>67.4</ele>
        <time>1970-01-01T04:12:49.000Z</time>
      </trkpt>
      <trkpt lat="42.323675" lon="-8.805684">
        <ele>67.8</ele>
        <time>1970-01-01T04:12:50.000Z</time>
      </trkpt>
      <trkpt lat="42.323682" lon="-8.805666">
        <ele>68</ele>
        <time>1970-01-01T04:12:51.000Z</time>
      </trkpt>
      <trkpt lat="42.323688" lon="-8.805649">
        <ele>68.4</ele>
        <time>1970-01-01T04:12:52.000Z</time>
      </trkpt>
      <trkpt lat="42.323694" lon="-8.805629">
        <ele>68.6</ele>
        <time>1970-01-01T04:12:53.000Z</time>
      </trkpt>
      <trkpt lat="42.323698" lon="-8.805611">
        <ele>68.6</ele>
        <time>1970-01-01T04:12:54.000Z</time>
      </trkpt>
      <trkpt lat="42.323704" lon="-8.805597">
        <ele>68.8</ele>
        <time>1970-01-01T04:12:55.000Z</time>
      </trkpt>
      <trkpt lat="42.323708" lon="-8.805582">
        <ele>68.8</ele>
        <time>1970-01-01T04:12:56.000Z</time>
      </trkpt>
      <trkpt lat="42.323713" lon="-8.805572">
        <ele>69</ele>
        <time>1970-01-01T04:12:57.000Z</time>
      </trkpt>
      <trkpt lat="42.323717" lon="-8.805557">
        <ele>69.2</ele>
        <time>1970-01-01T04:12:58.000Z</time>
      </trkpt>
      <trkpt lat="42.32372" lon="-8.805543">
        <ele>69.4</ele>
        <time>1970-01-01T04:12:59.000Z</time>
      </trkpt>
      <trkpt lat="42.323723" lon="-8.805525">
        <ele>69.6</ele>
        <time>1970-01-01T04:13:00.000Z</time>
      </trkpt>
      <trkpt lat="42.323726" lon="-8.805508">
        <ele>70.4</ele>
        <time>1970-01-01T04:13:01.000Z</time>
      </trkpt>
      <trkpt lat="42.323727" lon="-8.80549">
        <ele>70.8</ele>
        <time>1970-01-01T04:13:02.000Z</time>
      </trkpt>
      <trkpt lat="42.32373" lon="-8.805473">
        <ele>71</ele>
        <time>1970-01-01T04:13:03.000Z</time>
      </trkpt>
      <trkpt lat="42.323734" lon="-8.805457">
        <ele>71.2</ele>
        <time>1970-01-01T04:13:04.000Z</time>
      </trkpt>
      <trkpt lat="42.323738" lon="-8.805441">
        <ele>71.2</ele>
        <time>1970-01-01T04:13:05.000Z</time>
      </trkpt>
      <trkpt lat="42.323741" lon="-8.805422">
        <ele>71.4</ele>
        <time>1970-01-01T04:13:06.000Z</time>
      </trkpt>
      <trkpt lat="42.323742" lon="-8.805405">
        <ele>71.8</ele>
        <time>1970-01-01T04:13:07.000Z</time>
      </trkpt>
      <trkpt lat="42.323744" lon="-8.805388">
        <ele>72</ele>
        <time>1970-01-01T04:13:08.000Z</time>
      </trkpt>
      <trkpt lat="42.323744" lon="-8.80537">
        <ele>72.2</ele>
        <time>1970-01-01T04:13:09.000Z</time>
      </trkpt>
      <trkpt lat="42.323748" lon="-8.805356">
        <ele>72.2</ele>
        <time>1970-01-01T04:13:10.000Z</time>
      </trkpt>
      <trkpt lat="42.323753" lon="-8.805343">
        <ele>72.4</ele>
        <time>1970-01-01T04:13:11.000Z</time>
      </trkpt>
      <trkpt lat="42.323759" lon="-8.805332">
        <ele>72.4</ele>
        <time>1970-01-01T04:13:12.000Z</time>
      </trkpt>
      <trkpt lat="42.323764" lon="-8.80532">
        <ele>72.4</ele>
        <time>1970-01-01T04:13:13.000Z</time>
      </trkpt>
      <trkpt lat="42.323771" lon="-8.80531">
        <ele>72.4</ele>
        <time>1970-01-01T04:13:14.000Z</time>
      </trkpt>
      <trkpt lat="42.32378" lon="-8.805299">
        <ele>72.6</ele>
        <time>1970-01-01T04:13:15.000Z</time>
      </trkpt>
      <trkpt lat="42.323787" lon="-8.805288">
        <ele>72.8</ele>
        <time>1970-01-01T04:13:16.000Z</time>
      </trkpt>
      <trkpt lat="42.323797" lon="-8.805274">
        <ele>73</ele>
        <time>1970-01-01T04:13:17.000Z</time>
      </trkpt>
      <trkpt lat="42.323807" lon="-8.80526">
        <ele>73</ele>
        <time>1970-01-01T04:13:18.000Z</time>
      </trkpt>
      <trkpt lat="42.32382" lon="-8.805249">
        <ele>73</ele>
        <time>1970-01-01T04:13:19.000Z</time>
      </trkpt>
      <trkpt lat="42.323834" lon="-8.80524">
        <ele>73.2</ele>
        <time>1970-01-01T04:13:20.000Z</time>
      </trkpt>
      <trkpt lat="42.323848" lon="-8.805229">
        <ele>73</ele>
        <time>1970-01-01T04:13:21.000Z</time>
      </trkpt>
      <trkpt lat="42.323862" lon="-8.805217">
        <ele>73</ele>
        <time>1970-01-01T04:13:22.000Z</time>
      </trkpt>
      <trkpt lat="42.323876" lon="-8.805202">
        <ele>73</ele>
        <time>1970-01-01T04:13:23.000Z</time>
      </trkpt>
      <trkpt lat="42.323891" lon="-8.805184">
        <ele>72.8</ele>
        <time>1970-01-01T04:13:24.000Z</time>
      </trkpt>
      <trkpt lat="42.323903" lon="-8.805168">
        <ele>72.6</ele>
        <time>1970-01-01T04:13:25.000Z</time>
      </trkpt>
      <trkpt lat="42.323915" lon="-8.805149">
        <ele>72.6</ele>
        <time>1970-01-01T04:13:26.000Z</time>
      </trkpt>
      <trkpt lat="42.323925" lon="-8.805132">
        <ele>72.6</ele>
        <time>1970-01-01T04:13:27.000Z</time>
      </trkpt>
      <trkpt lat="42.323937" lon="-8.805117">
        <ele>72.6</ele>
        <time>1970-01-01T04:13:28.000Z</time>
      </trkpt>
      <trkpt lat="42.323946" lon="-8.805105">
        <ele>72.6</ele>
        <time>1970-01-01T04:13:29.000Z</time>
      </trkpt>
      <trkpt lat="42.323956" lon="-8.805091">
        <ele>72.8</ele>
        <time>1970-01-01T04:13:30.000Z</time>
      </trkpt>
      <trkpt lat="42.323964" lon="-8.805078">
        <ele>73</ele>
        <time>1970-01-01T04:13:31.000Z</time>
      </trkpt>
      <trkpt lat="42.323974" lon="-8.805065">
        <ele>73.2</ele>
        <time>1970-01-01T04:13:32.000Z</time>
      </trkpt>
      <trkpt lat="42.323984" lon="-8.805054">
        <ele>73.8</ele>
        <time>1970-01-01T04:13:33.000Z</time>
      </trkpt>
      <trkpt lat="42.323993" lon="-8.805043">
        <ele>74</ele>
        <time>1970-01-01T04:13:34.000Z</time>
      </trkpt>
      <trkpt lat="42.323999" lon="-8.805034">
        <ele>74.2</ele>
        <time>1970-01-01T04:13:35.000Z</time>
      </trkpt>
      <trkpt lat="42.324004" lon="-8.805021">
        <ele>74.6</ele>
        <time>1970-01-01T04:13:36.000Z</time>
      </trkpt>
      <trkpt lat="42.324009" lon="-8.805011">
        <ele>74.8</ele>
        <time>1970-01-01T04:13:37.000Z</time>
      </trkpt>
      <trkpt lat="42.324017" lon="-8.805002">
        <ele>75.2</ele>
        <time>1970-01-01T04:13:38.000Z</time>
      </trkpt>
      <trkpt lat="42.324025" lon="-8.804989">
        <ele>75.4</ele>
        <time>1970-01-01T04:13:39.000Z</time>
      </trkpt>
      <trkpt lat="42.324033" lon="-8.804975">
        <ele>76</ele>
        <time>1970-01-01T04:13:40.000Z</time>
      </trkpt>
      <trkpt lat="42.324044" lon="-8.804961">
        <ele>76.2</ele>
        <time>1970-01-01T04:13:41.000Z</time>
      </trkpt>
      <trkpt lat="42.324056" lon="-8.804945">
        <ele>76.4</ele>
        <time>1970-01-01T04:13:42.000Z</time>
      </trkpt>
      <trkpt lat="42.324067" lon="-8.80493">
        <ele>76.6</ele>
        <time>1970-01-01T04:13:43.000Z</time>
      </trkpt>
      <trkpt lat="42.324078" lon="-8.804912">
        <ele>77</ele>
        <time>1970-01-01T04:13:44.000Z</time>
      </trkpt>
      <trkpt lat="42.324087" lon="-8.804894">
        <ele>77.6</ele>
        <time>1970-01-01T04:13:45.000Z</time>
      </trkpt>
      <trkpt lat="42.324097" lon="-8.80488">
        <ele>78</ele>
        <time>1970-01-01T04:13:46.000Z</time>
      </trkpt>
      <trkpt lat="42.324107" lon="-8.804862">
        <ele>78.2</ele>
        <time>1970-01-01T04:13:47.000Z</time>
      </trkpt>
      <trkpt lat="42.324114" lon="-8.804845">
        <ele>78.6</ele>
        <time>1970-01-01T04:13:48.000Z</time>
      </trkpt>
      <trkpt lat="42.324118" lon="-8.804829">
        <ele>78.8</ele>
        <time>1970-01-01T04:13:49.000Z</time>
      </trkpt>
      <trkpt lat="42.324122" lon="-8.804811">
        <ele>79</ele>
        <time>1970-01-01T04:13:50.000Z</time>
      </trkpt>
      <trkpt lat="42.324129" lon="-8.804798">
        <ele>79.4</ele>
        <time>1970-01-01T04:13:51.000Z</time>
      </trkpt>
      <trkpt lat="42.32414" lon="-8.804789">
        <ele>79.8</ele>
        <time>1970-01-01T04:13:52.000Z</time>
      </trkpt>
      <trkpt lat="42.32415" lon="-8.804776">
        <ele>80.2</ele>
        <time>1970-01-01T04:13:53.000Z</time>
      </trkpt>
      <trkpt lat="42.324163" lon="-8.804763">
        <ele>80.2</ele>
        <time>1970-01-01T04:13:54.000Z</time>
      </trkpt>
      <trkpt lat="42.324174" lon="-8.804751">
        <ele>80.6</ele>
        <time>1970-01-01T04:13:55.000Z</time>
      </trkpt>
      <trkpt lat="42.324183" lon="-8.804738">
        <ele>80.6</ele>
        <time>1970-01-01T04:13:56.000Z</time>
      </trkpt>
      <trkpt lat="42.324191" lon="-8.804723">
        <ele>81</ele>
        <time>1970-01-01T04:13:57.000Z</time>
      </trkpt>
      <trkpt lat="42.324198" lon="-8.804705">
        <ele>81.4</ele>
        <time>1970-01-01T04:13:58.000Z</time>
      </trkpt>
      <trkpt lat="42.324203" lon="-8.804686">
        <ele>81.8</ele>
        <time>1970-01-01T04:13:59.000Z</time>
      </trkpt>
      <trkpt lat="42.32421" lon="-8.804671">
        <ele>81.8</ele>
        <time>1970-01-01T04:14:00.000Z</time>
      </trkpt>
      <trkpt lat="42.324216" lon="-8.804656">
        <ele>82</ele>
        <time>1970-01-01T04:14:01.000Z</time>
      </trkpt>
      <trkpt lat="42.324224" lon="-8.80464">
        <ele>82</ele>
        <time>1970-01-01T04:14:02.000Z</time>
      </trkpt>
      <trkpt lat="42.324234" lon="-8.804629">
        <ele>82.2</ele>
        <time>1970-01-01T04:14:03.000Z</time>
      </trkpt>
      <trkpt lat="42.324244" lon="-8.804616">
        <ele>82.2</ele>
        <time>1970-01-01T04:14:04.000Z</time>
      </trkpt>
      <trkpt lat="42.324255" lon="-8.804604">
        <ele>82.2</ele>
        <time>1970-01-01T04:14:05.000Z</time>
      </trkpt>
      <trkpt lat="42.324266" lon="-8.804591">
        <ele>82.4</ele>
        <time>1970-01-01T04:14:06.000Z</time>
      </trkpt>
      <trkpt lat="42.324277" lon="-8.804581">
        <ele>82.4</ele>
        <time>1970-01-01T04:14:07.000Z</time>
      </trkpt>
      <trkpt lat="42.324288" lon="-8.804568">
        <ele>82.4</ele>
        <time>1970-01-01T04:14:08.000Z</time>
      </trkpt>
      <trkpt lat="42.324298" lon="-8.804556">
        <ele>82.6</ele>
        <time>1970-01-01T04:14:09.000Z</time>
      </trkpt>
      <trkpt lat="42.324307" lon="-8.804542">
        <ele>82.8</ele>
        <time>1970-01-01T04:14:10.000Z</time>
      </trkpt>
      <trkpt lat="42.324315" lon="-8.804528">
        <ele>82.8</ele>
        <time>1970-01-01T04:14:11.000Z</time>
      </trkpt>
      <trkpt lat="42.324323" lon="-8.804513">
        <ele>83</ele>
        <time>1970-01-01T04:14:12.000Z</time>
      </trkpt>
      <trkpt lat="42.32433" lon="-8.804498">
        <ele>83.2</ele>
        <time>1970-01-01T04:14:13.000Z</time>
      </trkpt>
      <trkpt lat="42.324336" lon="-8.804483">
        <ele>83.4</ele>
        <time>1970-01-01T04:14:14.000Z</time>
      </trkpt>
      <trkpt lat="42.324343" lon="-8.80447">
        <ele>83.4</ele>
        <time>1970-01-01T04:14:15.000Z</time>
      </trkpt>
      <trkpt lat="42.324346" lon="-8.804454">
        <ele>83.2</ele>
        <time>1970-01-01T04:14:16.000Z</time>
      </trkpt>
      <trkpt lat="42.324352" lon="-8.804439">
        <ele>83.2</ele>
        <time>1970-01-01T04:14:17.000Z</time>
      </trkpt>
      <trkpt lat="42.324358" lon="-8.804422">
        <ele>83.4</ele>
        <time>1970-01-01T04:14:18.000Z</time>
      </trkpt>
      <trkpt lat="42.324365" lon="-8.804407">
        <ele>83.2</ele>
        <time>1970-01-01T04:14:19.000Z</time>
      </trkpt>
      <trkpt lat="42.324372" lon="-8.804392">
        <ele>83.2</ele>
        <time>1970-01-01T04:14:20.000Z</time>
      </trkpt>
      <trkpt lat="42.324376" lon="-8.804377">
        <ele>83.4</ele>
        <time>1970-01-01T04:14:21.000Z</time>
      </trkpt>
      <trkpt lat="42.324382" lon="-8.804363">
        <ele>83.4</ele>
        <time>1970-01-01T04:14:22.000Z</time>
      </trkpt>
      <trkpt lat="42.324389" lon="-8.804349">
        <ele>83.6</ele>
        <time>1970-01-01T04:14:23.000Z</time>
      </trkpt>
      <trkpt lat="42.324398" lon="-8.804334">
        <ele>83.8</ele>
        <time>1970-01-01T04:14:24.000Z</time>
      </trkpt>
      <trkpt lat="42.324406" lon="-8.804318">
        <ele>84</ele>
        <time>1970-01-01T04:14:25.000Z</time>
      </trkpt>
      <trkpt lat="42.324415" lon="-8.804302">
        <ele>84.2</ele>
        <time>1970-01-01T04:14:26.000Z</time>
      </trkpt>
      <trkpt lat="42.324422" lon="-8.804286">
        <ele>84.2</ele>
        <time>1970-01-01T04:14:27.000Z</time>
      </trkpt>
      <trkpt lat="42.32443" lon="-8.804268">
        <ele>84.4</ele>
        <time>1970-01-01T04:14:28.000Z</time>
      </trkpt>
      <trkpt lat="42.324438" lon="-8.804251">
        <ele>84.4</ele>
        <time>1970-01-01T04:14:29.000Z</time>
      </trkpt>
      <trkpt lat="42.324446" lon="-8.804235">
        <ele>84.4</ele>
        <time>1970-01-01T04:14:30.000Z</time>
      </trkpt>
      <trkpt lat="42.324452" lon="-8.80422">
        <ele>84.4</ele>
        <time>1970-01-01T04:14:31.000Z</time>
      </trkpt>
      <trkpt lat="42.324458" lon="-8.804206">
        <ele>84.6</ele>
        <time>1970-01-01T04:14:32.000Z</time>
      </trkpt>
      <trkpt lat="42.324467" lon="-8.804198">
        <ele>84.8</ele>
        <time>1970-01-01T04:14:33.000Z</time>
      </trkpt>
      <trkpt lat="42.324481" lon="-8.80419">
        <ele>84.8</ele>
        <time>1970-01-01T04:14:34.000Z</time>
      </trkpt>
      <trkpt lat="42.324496" lon="-8.804188">
        <ele>85</ele>
        <time>1970-01-01T04:14:35.000Z</time>
      </trkpt>
      <trkpt lat="42.324511" lon="-8.804187">
        <ele>85</ele>
        <time>1970-01-01T04:14:36.000Z</time>
      </trkpt>
      <trkpt lat="42.324525" lon="-8.804187">
        <ele>85.2</ele>
        <time>1970-01-01T04:14:37.000Z</time>
      </trkpt>
      <trkpt lat="42.324535" lon="-8.804188">
        <ele>85.4</ele>
        <time>1970-01-01T04:14:38.000Z</time>
      </trkpt>
      <trkpt lat="42.324545" lon="-8.80419">
        <ele>85.6</ele>
        <time>1970-01-01T04:14:39.000Z</time>
      </trkpt>
      <trkpt lat="42.324555" lon="-8.804188">
        <ele>85.8</ele>
        <time>1970-01-01T04:14:40.000Z</time>
      </trkpt>
      <trkpt lat="42.324566" lon="-8.804181">
        <ele>86</ele>
        <time>1970-01-01T04:14:41.000Z</time>
      </trkpt>
      <trkpt lat="42.32458" lon="-8.804173">
        <ele>86.2</ele>
        <time>1970-01-01T04:14:42.000Z</time>
      </trkpt>
      <trkpt lat="42.324593" lon="-8.804163">
        <ele>86.2</ele>
        <time>1970-01-01T04:14:43.000Z</time>
      </trkpt>
      <trkpt lat="42.324605" lon="-8.80415">
        <ele>86.4</ele>
        <time>1970-01-01T04:14:44.000Z</time>
      </trkpt>
      <trkpt lat="42.324618" lon="-8.804141">
        <ele>86.2</ele>
        <time>1970-01-01T04:14:45.000Z</time>
      </trkpt>
      <trkpt lat="42.324629" lon="-8.80413">
        <ele>86.2</ele>
        <time>1970-01-01T04:14:46.000Z</time>
      </trkpt>
      <trkpt lat="42.32464" lon="-8.804119">
        <ele>86.2</ele>
        <time>1970-01-01T04:14:47.000Z</time>
      </trkpt>
      <trkpt lat="42.32465" lon="-8.804112">
        <ele>86.2</ele>
        <time>1970-01-01T04:14:48.000Z</time>
      </trkpt>
      <trkpt lat="42.324662" lon="-8.804109">
        <ele>86</ele>
        <time>1970-01-01T04:14:49.000Z</time>
      </trkpt>
      <trkpt lat="42.324675" lon="-8.804109">
        <ele>86</ele>
        <time>1970-01-01T04:14:50.000Z</time>
      </trkpt>
      <trkpt lat="42.32469" lon="-8.804112">
        <ele>86</ele>
        <time>1970-01-01T04:14:51.000Z</time>
      </trkpt>
      <trkpt lat="42.324704" lon="-8.804118">
        <ele>86</ele>
        <time>1970-01-01T04:14:52.000Z</time>
      </trkpt>
      <trkpt lat="42.324719" lon="-8.804125">
        <ele>86.2</ele>
        <time>1970-01-01T04:14:53.000Z</time>
      </trkpt>
      <trkpt lat="42.324734" lon="-8.804133">
        <ele>86.2</ele>
        <time>1970-01-01T04:14:54.000Z</time>
      </trkpt>
      <trkpt lat="42.324747" lon="-8.804141">
        <ele>86.2</ele>
        <time>1970-01-01T04:14:55.000Z</time>
      </trkpt>
      <trkpt lat="42.324759" lon="-8.804155">
        <ele>86.2</ele>
        <time>1970-01-01T04:14:56.000Z</time>
      </trkpt>
      <trkpt lat="42.324774" lon="-8.80417">
        <ele>86.4</ele>
        <time>1970-01-01T04:14:57.000Z</time>
      </trkpt>
      <trkpt lat="42.324788" lon="-8.804186">
        <ele>86.6</ele>
        <time>1970-01-01T04:14:58.000Z</time>
      </trkpt>
      <trkpt lat="42.324802" lon="-8.804207">
        <ele>86.6</ele>
        <time>1970-01-01T04:14:59.000Z</time>
      </trkpt>
      <trkpt lat="42.324814" lon="-8.804226">
        <ele>86.8</ele>
        <time>1970-01-01T04:15:00.000Z</time>
      </trkpt>
      <trkpt lat="42.324828" lon="-8.804242">
        <ele>86.8</ele>
        <time>1970-01-01T04:15:01.000Z</time>
      </trkpt>
      <trkpt lat="42.324841" lon="-8.804251">
        <ele>87</ele>
        <time>1970-01-01T04:15:02.000Z</time>
      </trkpt>
      <trkpt lat="42.324852" lon="-8.80426">
        <ele>86.6</ele>
        <time>1970-01-01T04:15:03.000Z</time>
      </trkpt>
      <trkpt lat="42.32486" lon="-8.804268">
        <ele>86.2</ele>
        <time>1970-01-01T04:15:04.000Z</time>
      </trkpt>
      <trkpt lat="42.324867" lon="-8.804275">
        <ele>86</ele>
        <time>1970-01-01T04:15:05.000Z</time>
      </trkpt>
      <trkpt lat="42.324875" lon="-8.804279">
        <ele>85.8</ele>
        <time>1970-01-01T04:15:06.000Z</time>
      </trkpt>
      <trkpt lat="42.324883" lon="-8.804288">
        <ele>85.8</ele>
        <time>1970-01-01T04:15:07.000Z</time>
      </trkpt>
      <trkpt lat="42.324891" lon="-8.804298">
        <ele>85.8</ele>
        <time>1970-01-01T04:15:08.000Z</time>
      </trkpt>
      <trkpt lat="42.324902" lon="-8.804306">
        <ele>85.6</ele>
        <time>1970-01-01T04:15:09.000Z</time>
      </trkpt>
      <trkpt lat="42.324916" lon="-8.804314">
        <ele>85.6</ele>
        <time>1970-01-01T04:15:10.000Z</time>
      </trkpt>
      <trkpt lat="42.32493" lon="-8.80432">
        <ele>85.6</ele>
        <time>1970-01-01T04:15:11.000Z</time>
      </trkpt>
      <trkpt lat="42.324943" lon="-8.804326">
        <ele>85.4</ele>
        <time>1970-01-01T04:15:12.000Z</time>
      </trkpt>
      <trkpt lat="42.324954" lon="-8.804335">
        <ele>85.4</ele>
        <time>1970-01-01T04:15:13.000Z</time>
      </trkpt>
      <trkpt lat="42.324967" lon="-8.804345">
        <ele>85.4</ele>
        <time>1970-01-01T04:15:14.000Z</time>
      </trkpt>
      <trkpt lat="42.324982" lon="-8.804358">
        <ele>85.4</ele>
        <time>1970-01-01T04:15:15.000Z</time>
      </trkpt>
      <trkpt lat="42.324999" lon="-8.804371">
        <ele>85.4</ele>
        <time>1970-01-01T04:15:16.000Z</time>
      </trkpt>
      <trkpt lat="42.325012" lon="-8.80439">
        <ele>85.4</ele>
        <time>1970-01-01T04:15:17.000Z</time>
      </trkpt>
      <trkpt lat="42.325026" lon="-8.804404">
        <ele>85.8</ele>
        <time>1970-01-01T04:15:18.000Z</time>
      </trkpt>
      <trkpt lat="42.325037" lon="-8.804416">
        <ele>86</ele>
        <time>1970-01-01T04:15:19.000Z</time>
      </trkpt>
      <trkpt lat="42.325048" lon="-8.804427">
        <ele>85.8</ele>
        <time>1970-01-01T04:15:20.000Z</time>
      </trkpt>
      <trkpt lat="42.325057" lon="-8.804438">
        <ele>85.6</ele>
        <time>1970-01-01T04:15:21.000Z</time>
      </trkpt>
      <trkpt lat="42.325068" lon="-8.804448">
        <ele>85.6</ele>
        <time>1970-01-01T04:15:22.000Z</time>
      </trkpt>
      <trkpt lat="42.32508" lon="-8.804461">
        <ele>85.6</ele>
        <time>1970-01-01T04:15:23.000Z</time>
      </trkpt>
      <trkpt lat="42.325096" lon="-8.804472">
        <ele>85.6</ele>
        <time>1970-01-01T04:15:24.000Z</time>
      </trkpt>
      <trkpt lat="42.325109" lon="-8.804485">
        <ele>85.6</ele>
        <time>1970-01-01T04:15:25.000Z</time>
      </trkpt>
      <trkpt lat="42.325122" lon="-8.804495">
        <ele>85.6</ele>
        <time>1970-01-01T04:15:26.000Z</time>
      </trkpt>
      <trkpt lat="42.325136" lon="-8.804506">
        <ele>85.6</ele>
        <time>1970-01-01T04:15:27.000Z</time>
      </trkpt>
      <trkpt lat="42.32515" lon="-8.804513">
        <ele>85.6</ele>
        <time>1970-01-01T04:15:28.000Z</time>
      </trkpt>
      <trkpt lat="42.325163" lon="-8.80452">
        <ele>85.6</ele>
        <time>1970-01-01T04:15:29.000Z</time>
      </trkpt>
      <trkpt lat="42.325171" lon="-8.804529">
        <ele>85.6</ele>
        <time>1970-01-01T04:15:30.000Z</time>
      </trkpt>
      <trkpt lat="42.325181" lon="-8.804543">
        <ele>85.6</ele>
        <time>1970-01-01T04:15:31.000Z</time>
      </trkpt>
      <trkpt lat="42.325194" lon="-8.804561">
        <ele>85.6</ele>
        <time>1970-01-01T04:15:32.000Z</time>
      </trkpt>
      <trkpt lat="42.325207" lon="-8.804573">
        <ele>85.6</ele>
        <time>1970-01-01T04:15:33.000Z</time>
      </trkpt>
      <trkpt lat="42.325218" lon="-8.804585">
        <ele>85.6</ele>
        <time>1970-01-01T04:15:34.000Z</time>
      </trkpt>
      <trkpt lat="42.325228" lon="-8.804598">
        <ele>85.6</ele>
        <time>1970-01-01T04:15:35.000Z</time>
      </trkpt>
      <trkpt lat="42.325239" lon="-8.804608">
        <ele>85.6</ele>
        <time>1970-01-01T04:15:36.000Z</time>
      </trkpt>
      <trkpt lat="42.325254" lon="-8.804613">
        <ele>85.6</ele>
        <time>1970-01-01T04:15:37.000Z</time>
      </trkpt>
      <trkpt lat="42.325271" lon="-8.804618">
        <ele>85.6</ele>
        <time>1970-01-01T04:15:38.000Z</time>
      </trkpt>
      <trkpt lat="42.325288" lon="-8.804616">
        <ele>85.4</ele>
        <time>1970-01-01T04:15:39.000Z</time>
      </trkpt>
      <trkpt lat="42.325303" lon="-8.804602">
        <ele>85.2</ele>
        <time>1970-01-01T04:15:40.000Z</time>
      </trkpt>
      <trkpt lat="42.325316" lon="-8.804578">
        <ele>84.8</ele>
        <time>1970-01-01T04:15:41.000Z</time>
      </trkpt>
      <trkpt lat="42.32533" lon="-8.804559">
        <ele>84.8</ele>
        <time>1970-01-01T04:15:42.000Z</time>
      </trkpt>
      <trkpt lat="42.325342" lon="-8.804539">
        <ele>84.8</ele>
        <time>1970-01-01T04:15:43.000Z</time>
      </trkpt>
      <trkpt lat="42.325355" lon="-8.804519">
        <ele>84.8</ele>
        <time>1970-01-01T04:15:44.000Z</time>
      </trkpt>
      <trkpt lat="42.325365" lon="-8.804504">
        <ele>84.6</ele>
        <time>1970-01-01T04:15:45.000Z</time>
      </trkpt>
      <trkpt lat="42.325374" lon="-8.804492">
        <ele>84.4</ele>
        <time>1970-01-01T04:15:46.000Z</time>
      </trkpt>
      <trkpt lat="42.325378" lon="-8.804476">
        <ele>84.8</ele>
        <time>1970-01-01T04:15:47.000Z</time>
      </trkpt>
      <trkpt lat="42.325381" lon="-8.804456">
        <ele>85</ele>
        <time>1970-01-01T04:15:48.000Z</time>
      </trkpt>
      <trkpt lat="42.325383" lon="-8.804428">
        <ele>85.2</ele>
        <time>1970-01-01T04:15:49.000Z</time>
      </trkpt>
      <trkpt lat="42.325381" lon="-8.804398">
        <ele>85.4</ele>
        <time>1970-01-01T04:15:50.000Z</time>
      </trkpt>
      <trkpt lat="42.325379" lon="-8.804374">
        <ele>85.8</ele>
        <time>1970-01-01T04:15:51.000Z</time>
      </trkpt>
      <trkpt lat="42.325374" lon="-8.804346">
        <ele>86</ele>
        <time>1970-01-01T04:15:52.000Z</time>
      </trkpt>
      <trkpt lat="42.325376" lon="-8.804327">
        <ele>86.2</ele>
        <time>1970-01-01T04:15:53.000Z</time>
      </trkpt>
      <trkpt lat="42.325378" lon="-8.804311">
        <ele>86.2</ele>
        <time>1970-01-01T04:15:54.000Z</time>
      </trkpt>
      <trkpt lat="42.325378" lon="-8.804292">
        <ele>86.2</ele>
        <time>1970-01-01T04:15:55.000Z</time>
      </trkpt>
      <trkpt lat="42.325379" lon="-8.804273">
        <ele>86.2</ele>
        <time>1970-01-01T04:15:56.000Z</time>
      </trkpt>
      <trkpt lat="42.325378" lon="-8.804254">
        <ele>86</ele>
        <time>1970-01-01T04:15:57.000Z</time>
      </trkpt>
      <trkpt lat="42.325373" lon="-8.804229">
        <ele>85.8</ele>
        <time>1970-01-01T04:15:58.000Z</time>
      </trkpt>
      <trkpt lat="42.325368" lon="-8.804208">
        <ele>85.8</ele>
        <time>1970-01-01T04:15:59.000Z</time>
      </trkpt>
      <trkpt lat="42.325362" lon="-8.804182">
        <ele>85.8</ele>
        <time>1970-01-01T04:16:00.000Z</time>
      </trkpt>
      <trkpt lat="42.325352" lon="-8.804151">
        <ele>85.8</ele>
        <time>1970-01-01T04:16:01.000Z</time>
      </trkpt>
      <trkpt lat="42.325345" lon="-8.804128">
        <ele>85.8</ele>
        <time>1970-01-01T04:16:02.000Z</time>
      </trkpt>
      <trkpt lat="42.325341" lon="-8.804113">
        <ele>86.2</ele>
        <time>1970-01-01T04:16:03.000Z</time>
      </trkpt>
      <trkpt lat="42.325338" lon="-8.804101">
        <ele>86.4</ele>
        <time>1970-01-01T04:16:04.000Z</time>
      </trkpt>
      <trkpt lat="42.325336" lon="-8.804086">
        <ele>86.6</ele>
        <time>1970-01-01T04:16:05.000Z</time>
      </trkpt>
      <trkpt lat="42.325334" lon="-8.804068">
        <ele>86.6</ele>
        <time>1970-01-01T04:16:06.000Z</time>
      </trkpt>
      <trkpt lat="42.32533" lon="-8.804047">
        <ele>86.8</ele>
        <time>1970-01-01T04:16:07.000Z</time>
      </trkpt>
      <trkpt lat="42.325328" lon="-8.804026">
        <ele>86.8</ele>
        <time>1970-01-01T04:16:08.000Z</time>
      </trkpt>
      <trkpt lat="42.325326" lon="-8.804006">
        <ele>86.8</ele>
        <time>1970-01-01T04:16:09.000Z</time>
      </trkpt>
      <trkpt lat="42.325324" lon="-8.80399">
        <ele>86.8</ele>
        <time>1970-01-01T04:16:10.000Z</time>
      </trkpt>
      <trkpt lat="42.325322" lon="-8.803973">
        <ele>86.8</ele>
        <time>1970-01-01T04:16:11.000Z</time>
      </trkpt>
      <trkpt lat="42.325309" lon="-8.803969">
        <ele>86.8</ele>
        <time>1970-01-01T04:16:12.000Z</time>
      </trkpt>
    </trkseg>
  </trk>
</gpx>
